[[{"header":{"parameterUnit":"m.s-1","parameterCategory":1,"la1":30.6,"la2":29.2853,"lo1":-89.7004,"lo2":-87.6739,"dy":0.0162,"dx":0.0183,"nx":112,"ny":82,"refTime":"2023-10-24T06:00:00:Z","depth":0,"parameterNumber":2,"parameterNumberName":"U-component_of_WINDS"},"data":[0.0,0.0,0.0,0.0,0.0,0.0,0.0,0.0,0.0,0.0,0.0,0.0,0.0,0.0,0.0,0.0,0.0,0.0,0.0,0.0,0.0,0.0,0.0,0.0,0.0,0.0,0.0,0.0,0.0,0.0,0.0,0.0,0.0,0.0,0.0,0.0,0.0,0.0,0.0,0.0,0.0,0.0,0.0,0.0,0.0,0.0,0.0,0.0,0.0,0.0,0.0,0.0,0.0,0.0,0.0,0.0,0.0,0.0,0.0,0.0,0.0,0.0,0.0,0.0,0.0,0.0,0.0,0.0,0.0,0.0,0.0,0.0,0.0,0.0,0.0,0.0,0.0,0.0,0.0,0.0,0.0,0.0,0.0,0.0,0.0,0.0,0.0,0.0,0.0,0.0,0.0,-1.2456,-1.2288,-1.217,-1.2216,-1.222,-1.1986,-1.149,0.0,0.0,0.0,0.0,0.0,0.0,0.0,0.0,0.0,0.0,0.0,0.0,0.0,0.0,0.0,0.0,0.0,0.0,0.0,0.0,0.0,0.0,0.0,0.0,0.0,0.0,0.0,0.0,0.0,0.0,0.0,0.0,0.0,0.0,0.0,0.0,0.0,0.0,0.0,0.0,0.0,0.0,0.0,0.0,0.0,0.0,0.0,0.0,0.0,0.0,0.0,0.0,0.0,0.0,0.0,0.0,0.0,0.0,0.0,0.0,0.0,0.0,0.0,0.0,0.0,0.0,0.0,0.0,0.0,0.0,0.0,0.0,0.0,0.0,0.0,0.0,0.0,0.0,0.0,0.0,0.0,0.0,0.0,0.0,0.0,0.0,0.0,0.0,0.0,0.0,0.0,0.0,0.0,0.0,0.0,0.0,0.0,0.0,0.0,0.0,0.0,0.0,0.0,0.0,-1.2474,-1.3549,-1.3128,-1.285,-1.3068,-1.256,-1.2075,-1.1775,0.0,0.0,0.0,0.0,0.0,0.0,0.0,0.0,0.0,0.0,0.0,0.0,0.0,0.0,0.0,0.0,0.0,0.0,0.0,0.0,0.0,0.0,0.0,0.0,0.0,0.0,0.0,0.0,0.0,0.0,0.0,0.0,0.0,0.0,0.0,0.0,0.0,0.0,0.0,0.0,0.0,0.0,0.0,0.0,0.0,0.0,0.0,0.0,0.0,0.0,0.0,0.0,0.0,0.0,0.0,0.0,0.0,0.0,0.0,0.0,0.0,0.0,0.0,0.0,0.0,0.0,0.0,0.0,0.0,0.0,0.0,0.0,0.0,0.0,0.0,0.0,0.0,0.0,0.0,0.0,0.0,0.0,0.0,0.0,0.0,0.0,0.0,0.0,0.0,0.0,0.0,0.0,0.0,0.0,0.0,0.0,0.0,0.0,0.0,0.0,0.0,0.0,0.0,-1.257,-1.3151,-1.3838,-1.3656,-1.3477,-1.3454,-1.3233,-1.2764,-1.2049,-1.1811,0.0,0.0,0.0,0.0,0.0,0.0,0.0,0.0,0.0,0.0,0.0,0.0,0.0,0.0,0.0,0.0,0.0,0.0,0.0,0.0,0.0,0.0,0.0,0.0,0.0,0.0,0.0,0.0,0.0,0.0,0.0,0.0,0.0,0.0,0.0,0.0,0.0,0.0,0.0,0.0,0.0,0.0,0.0,0.0,0.0,0.0,0.0,0.0,0.0,0.0,0.0,0.0,0.0,0.0,0.0,0.0,0.0,0.0,0.0,0.0,0.0,0.0,0.0,0.0,0.0,0.0,0.0,0.0,0.0,0.0,0.0,0.0,0.0,0.0,0.0,0.0,0.0,0.0,0.0,0.0,0.0,0.0,0.0,0.0,0.0,0.0,0.0,0.0,0.0,0.0,0.0,0.0,0.0,0.0,0.0,0.0,0.0,0.0,0.0,0.0,0.0,0.0,-1.3225,-1.387,-1.4247,-1.4252,-1.4147,-1.3904,-1.3772,-1.3214,-1.2149,-1.1863,0.0,0.0,0.0,0.0,0.0,0.0,0.0,0.0,0.0,0.0,0.0,0.0,0.0,0.0,0.0,0.0,0.0,0.0,0.0,0.0,0.0,0.0,0.0,0.0,0.0,0.0,0.0,0.0,0.0,0.0,0.0,0.0,0.0,0.0,0.0,0.0,0.0,0.0,0.0,0.0,0.0,0.0,0.0,0.0,0.0,0.0,0.0,0.0,0.0,0.0,0.0,0.0,0.0,0.0,0.0,0.0,0.0,0.0,0.0,0.0,0.0,0.0,0.0,0.0,0.0,0.0,0.0,0.0,0.0,0.0,0.0,0.0,0.0,0.0,0.0,0.0,0.0,0.0,0.0,0.0,0.0,0.0,0.0,0.0,0.0,0.0,0.0,0.0,0.0,0.0,0.0,0.0,0.0,0.0,0.0,0.0,0.0,0.0,0.0,0.0,0.0,0.0,-1.3703,-1.4666,-1.531,-1.5042,-1.482,-1.4794,-1.3892,-1.2841,-1.1718,-1.128,0.0,0.0,0.0,0.0,0.0,0.0,0.0,0.0,0.0,0.0,0.0,0.0,0.0,0.0,0.0,0.0,0.0,0.0,0.0,0.0,0.0,0.0,0.0,0.0,0.0,0.0,0.0,0.0,0.0,0.0,0.0,0.0,0.0,0.0,0.0,0.0,0.0,0.0,0.0,0.0,0.0,0.0,0.0,0.0,0.0,0.0,0.0,0.0,0.0,0.0,0.0,0.0,0.0,0.0,0.0,0.0,0.0,0.0,0.0,0.0,0.0,0.0,0.0,0.0,0.0,0.0,0.0,0.0,0.0,0.0,0.0,0.0,0.0,0.0,0.0,0.0,0.0,0.0,0.0,0.0,0.0,0.0,0.0,0.0,0.0,0.0,0.0,0.0,0.0,0.0,0.0,0.0,0.0,0.0,0.0,0.0,0.0,0.0,0.0,0.0,0.0,0.0,-1.3539,-1.4235,0.0,-1.4683,-1.4562,-1.418,-1.3519,-1.2739,-1.192,0.0,0.0,0.0,0.0,0.0,0.0,0.0,0.0,0.0,0.0,0.0,0.0,0.0,0.0,0.0,0.0,0.0,0.0,0.0,0.0,0.0,0.0,0.0,0.0,0.0,0.0,0.0,0.0,0.0,0.0,0.0,0.0,0.0,0.0,0.0,0.0,0.0,0.0,0.0,0.0,0.0,0.0,0.0,0.0,0.0,0.0,0.0,0.0,0.0,0.0,0.0,0.0,0.0,0.0,0.0,0.0,0.0,0.0,0.0,0.0,0.0,0.0,0.0,0.0,0.0,0.0,0.0,0.0,0.0,0.0,0.0,0.0,0.0,0.0,0.0,0.0,0.0,0.0,0.0,0.0,0.0,0.0,0.0,0.0,0.0,0.0,0.0,0.0,0.0,0.0,0.0,0.0,0.0,0.0,0.0,0.0,0.0,0.0,0.0,0.0,0.0,0.0,-1.235,-1.3223,-1.3886,0.0,-1.4333,-1.4229,-1.3822,-1.3114,-1.238,-1.1651,0.0,0.0,0.0,0.0,0.0,0.0,0.0,0.0,0.0,0.0,0.0,0.0,0.0,0.0,0.0,0.0,0.0,0.0,0.0,0.0,0.0,0.0,0.0,0.0,0.0,0.0,0.0,0.0,0.0,0.0,0.0,0.0,0.0,0.0,0.0,0.0,0.0,0.0,0.0,0.0,0.0,0.0,0.0,0.0,0.0,0.0,0.0,0.0,0.0,0.0,0.0,0.0,0.0,0.0,0.0,0.0,0.0,0.0,0.0,0.0,0.0,0.0,0.0,0.0,0.0,0.0,0.0,0.0,0.0,0.0,0.0,0.0,0.0,0.0,0.0,0.0,0.0,0.0,0.0,0.0,0.0,0.0,0.0,0.0,0.0,0.0,0.0,0.0,0.0,0.0,0.0,0.0,0.0,0.0,0.0,0.0,0.0,0.0,0.0,0.0,0.0,0.0,-1.1895,-1.2833,-1.3717,-1.4573,-1.4186,-1.3926,-1.3988,-1.281,-1.168,0.0,0.0,0.0,0.0,0.0,0.0,0.0,0.0,0.0,0.0,0.0,0.0,0.0,0.0,0.0,0.0,0.0,0.0,0.0,0.0,0.0,0.0,0.0,0.0,0.0,0.0,0.0,0.0,0.0,0.0,0.0,0.0,0.0,0.0,0.0,0.0,0.0,0.0,0.0,0.0,0.0,0.0,0.0,0.0,0.0,0.0,0.0,0.0,0.0,0.0,0.0,0.0,0.0,0.0,0.0,0.0,0.0,0.0,0.0,0.0,0.0,0.0,0.0,0.0,0.0,0.0,0.0,0.0,0.0,0.0,0.0,0.0,0.0,0.0,0.0,0.0,0.0,0.0,0.0,0.0,0.0,0.0,0.0,0.0,0.0,0.0,0.0,0.0,0.0,0.0,0.0,0.0,0.0,0.0,0.0,0.0,0.0,0.0,0.0,0.0,0.0,0.0,0.0,-1.1709,-1.2367,-1.2879,-1.3211,-1.3123,-1.2902,-1.2551,-1.1981,-1.1338,-1.0486,0.0,0.0,0.0,0.0,0.0,0.0,0.0,0.0,0.0,0.0,0.0,0.0,0.0,0.0,0.0,0.0,0.0,0.0,0.0,0.0,0.0,0.0,0.0,0.0,0.0,0.0,0.0,0.0,0.0,0.0,0.0,0.0,0.0,0.0,0.0,0.0,0.0,0.0,0.0,0.0,0.0,0.0,0.0,0.0,0.0,0.0,0.0,0.0,0.0,0.0,0.0,0.0,0.0,0.0,0.0,0.0,0.0,0.0,0.0,0.0,0.0,0.0,0.0,0.0,0.0,0.0,0.0,0.0,0.0,0.0,0.0,0.0,0.0,0.0,0.0,0.0,0.0,0.0,0.0,0.0,0.0,0.0,0.0,0.0,0.0,0.0,0.0,0.0,0.0,0.0,0.0,0.0,0.0,0.0,0.0,0.0,0.0,0.0,0.0,0.0,0.0,0.0,-1.1154,-1.1623,-1.2002,-1.2212,-1.2111,-1.1834,-1.1438,-1.1244,-1.081,-0.9963,0.0,0.0,0.0,0.0,0.0,0.0,0.0,0.0,0.0,0.0,0.0,0.0,0.0,0.0,0.0,0.0,0.0,0.0,0.0,0.0,0.0,0.0,0.0,0.0,0.0,0.0,0.0,0.0,0.0,0.0,0.0,0.0,0.0,0.0,0.0,0.0,0.0,0.0,0.0,0.0,0.0,0.0,0.0,0.0,0.0,0.0,0.0,0.0,0.0,0.0,0.0,0.0,0.0,0.0,0.0,0.0,0.0,0.0,0.0,0.0,0.0,0.0,0.0,0.0,0.0,0.0,0.0,0.0,0.0,0.0,0.0,0.0,0.0,0.0,0.0,0.0,0.0,0.0,0.0,0.0,0.0,0.0,0.0,0.0,0.0,0.0,0.0,0.0,0.0,0.0,0.0,0.0,0.0,0.0,0.0,0.0,0.0,0.0,0.0,0.0,0.0,0.0,-1.0376,-1.0694,-1.1046,-1.1462,-1.1154,-1.0809,-1.0549,-1.0554,-1.0203,-0.9297,0.0,0.0,0.0,0.0,0.0,0.0,0.0,0.0,0.0,0.0,0.0,0.0,0.0,0.0,0.0,0.0,0.0,0.0,0.0,0.0,0.0,0.0,0.0,0.0,0.0,0.0,0.0,0.0,0.0,0.0,0.0,0.0,0.0,0.0,0.0,0.0,0.0,0.0,0.0,0.0,0.0,0.0,0.0,0.0,0.0,0.0,0.0,0.0,0.0,0.0,0.0,0.0,0.0,0.0,0.0,0.0,0.0,0.0,0.0,0.0,-0.8693,0.0,0.0,0.0,0.0,0.0,0.0,0.0,0.0,0.0,0.0,0.0,0.0,0.0,0.0,0.0,0.0,0.0,0.0,0.0,0.0,0.0,0.0,0.0,0.0,0.0,0.0,0.0,0.0,0.0,0.0,0.0,0.0,0.0,0.0,0.0,0.0,0.0,0.0,0.0,0.0,0.0,-0.9218,-0.9725,-1.0032,-1.0052,-1.0164,-1.0077,-0.982,-0.9689,-0.9368,-0.8788,-0.8305,0.0,0.0,0.0,0.0,0.0,0.0,0.0,0.0,0.0,0.0,0.0,0.0,0.0,0.0,0.0,0.0,0.0,0.0,0.0,0.0,0.0,0.0,0.0,0.0,0.0,0.0,0.0,0.0,0.0,0.0,0.0,0.0,0.0,0.0,0.0,0.0,0.0,0.0,0.0,0.0,0.0,0.0,0.0,0.0,0.0,0.0,0.0,0.0,0.0,0.0,0.0,0.0,0.0,0.0,0.0,0.0,0.0,0.0,0.0,0.0,-0.8646,0.0,0.0,0.0,0.0,0.0,0.0,0.0,0.0,0.0,0.0,0.0,0.0,0.0,0.0,0.0,0.0,0.0,0.0,0.0,0.0,0.0,0.0,0.0,0.0,0.0,0.0,0.0,0.0,0.0,0.0,0.0,0.0,0.0,0.0,0.0,0.0,0.0,0.0,0.0,0.0,-0.8524,-0.9015,-0.9325,-0.9266,-0.9292,-0.9205,-0.8947,-0.8947,-0.8692,-0.8122,-0.7816,0.0,0.0,0.0,0.0,0.0,0.0,0.0,0.0,0.0,0.0,0.0,0.0,0.0,0.0,0.0,0.0,0.0,0.0,0.0,0.0,0.0,0.0,0.0,0.0,0.0,0.0,0.0,0.0,0.0,0.0,0.0,0.0,0.0,0.0,0.0,0.0,0.0,0.0,0.0,0.0,0.0,0.0,0.0,0.0,0.0,0.0,0.0,0.0,0.0,0.0,0.0,0.0,0.0,-0.941,-0.9114,-0.8447,-0.8469,-0.8357,-0.81,-0.8668,-0.8879,-0.8862,-0.8465,0.0,0.0,0.0,0.0,0.0,0.0,0.0,0.0,0.0,0.0,0.0,0.0,0.0,0.0,0.0,0.0,0.0,0.0,0.0,0.0,0.0,0.0,0.0,0.0,-0.3339,-0.3307,0.0,0.0,0.0,0.0,0.0,0.0,0.0,0.0,0.0,0.0,0.0,0.0,-0.7779,-0.8169,-0.8477,-0.852,-0.8412,-0.8241,-0.8021,-0.8197,-0.8003,-0.7436,-0.7361,-0.7119,0.0,0.0,0.0,0.0,0.0,0.0,0.0,0.0,0.0,0.0,0.0,0.0,0.0,0.0,0.0,0.0,0.0,0.0,0.0,0.0,0.0,0.0,0.0,0.0,0.0,0.0,0.0,0.0,0.0,0.0,0.0,0.0,-1.0208,-1.0235,0.0,0.0,0.0,0.0,0.0,0.0,0.0,0.0,0.0,0.0,0.0,0.0,0.0,-0.9415,-0.9436,-0.9327,-0.914,-0.8891,-0.9132,-0.9054,-0.8746,-0.8864,-0.8737,-0.8341,-0.8459,0.0,-0.7949,-0.7911,0.0,0.0,0.0,0.0,0.0,0.0,0.0,0.0,0.0,0.0,0.0,0.0,0.0,0.0,0.0,0.0,0.0,0.0,0.0,0.0,0.0,0.0,-0.2633,-0.2625,-0.2566,-0.2448,0.0,-0.2833,-0.316,-0.3328,-0.36,0.0,0.0,0.0,0.0,0.0,0.0,0.0,-0.632,-0.6734,-0.6992,-0.7074,-0.7231,-0.7272,-0.7228,-0.7098,-0.7007,-0.6899,-0.6564,-0.6359,-0.6254,-0.5901,0.0,0.0,0.0,0.0,0.0,0.0,0.0,0.0,0.0,0.0,0.0,0.0,0.0,0.0,0.0,0.0,0.0,0.0,0.0,0.0,0.0,0.0,0.0,0.0,0.0,0.0,0.0,0.0,0.0,-1.0184,-1.0075,-1.0088,-1.0032,-0.9957,0.0,0.0,0.0,0.0,0.0,0.0,0.0,0.0,0.0,-0.9144,-0.911,-0.9095,-0.9095,-0.9036,-0.8893,-0.8606,-0.8719,-0.8652,-0.8427,-0.848,-0.8375,-0.8136,-0.7899,-0.7707,-0.7486,-0.759,-0.7435,-0.7111,0.0,0.0,0.0,0.0,-0.6508,-0.6179,-0.6025,-0.5703,0.0,-0.5124,0.0,0.0,0.0,0.0,0.0,0.0,0.0,0.0,0.0,0.0,-0.245,-0.2313,-0.2219,-0.2126,-0.1975,-0.2097,-0.2294,0.0,-0.3038,-0.3362,-0.3484,0.0,0.0,0.0,0.0,-0.5724,-0.6055,-0.6463,-0.6723,-0.6808,-0.6745,-0.6697,-0.6697,-0.6609,-0.6479,-0.621,-0.6028,-0.5821,-0.5514,-0.5448,-0.5276,0.0,0.0,0.0,0.0,0.0,0.0,0.0,0.0,0.0,0.0,0.0,0.0,0.0,0.0,0.0,0.0,0.0,0.0,0.0,0.0,0.0,0.0,0.0,0.0,0.0,0.0,0.0,0.0,-0.995,-0.9864,-0.9868,-0.9729,-0.9546,0.0,0.0,0.0,0.0,0.0,0.0,-0.8608,-0.8536,-0.8498,-0.8567,-0.8633,-0.8686,-0.8781,-0.8686,-0.8471,-0.8192,-0.8222,-0.8097,-0.7824,-0.7851,-0.78,-0.7627,-0.7385,-0.7155,-0.7007,-0.72,-0.7084,-0.6704,-0.655,-0.6415,-0.629,-0.6405,-0.6073,-0.5554,-0.5699,-0.5351,-0.4892,-0.4673,-0.4402,-0.4174,-0.3839,0.0,0.0,0.0,0.0,-0.2675,-0.2456,-0.2352,-0.224,-0.1982,-0.1958,-0.1932,-0.1673,-0.1604,-0.172,0.0,-0.2479,-0.2816,-0.2812,0.0,0.0,0.0,0.0,-0.5309,-0.5696,-0.6029,-0.6322,-0.6494,-0.6302,-0.6166,-0.6166,-0.6074,-0.5897,-0.5542,-0.5455,-0.5322,-0.501,-0.5051,-0.5015,-0.4773,0.0,0.0,0.0,0.0,0.0,0.0,0.0,0.0,0.0,0.0,0.0,0.0,0.0,0.0,0.0,0.0,0.0,0.0,0.0,0.0,0.0,0.0,0.0,0.0,0.0,0.0,0.0,0.0,0.0,-0.9328,-0.9458,0.0,0.0,0.0,0.0,-0.8738,-0.8532,-0.8318,-0.8155,-0.811,-0.8222,-0.8522,-0.8172,-0.8111,-0.8537,-0.8114,-0.7814,-0.7457,-0.7567,-0.7376,-0.6974,-0.7067,-0.7055,-0.6962,-0.6962,-0.6712,-0.6449,-0.6654,-0.6669,-0.6513,-0.6518,-0.6287,-0.605,-0.6399,-0.5927,-0.5155,-0.5416,-0.5045,-0.4419,-0.4142,-0.3656,-0.3104,-0.2731,-0.2555,0.0,0.0,-0.2341,-0.2137,-0.2229,-0.1995,-0.1658,-0.1414,-0.1508,-0.1649,-0.1385,-0.1543,-0.1726,0.0,-0.1964,-0.2097,-0.2529,0.0,-0.3118,-0.3333,-0.3786,-0.4263,-0.4717,-0.4973,-0.524,-0.5688,-0.5552,-0.546,-0.546,-0.5233,-0.5053,-0.5053,-0.4835,-0.4837,-0.501,-0.4879,-0.4795,-0.4699,-0.4594,0.0,0.0,0.0,0.0,0.0,0.0,0.0,0.0,0.0,0.0,0.0,0.0,0.0,0.0,0.0,0.0,0.0,0.0,0.0,0.0,0.0,0.0,0.0,0.0,0.0,0.0,0.0,0.0,-0.9223,-0.9105,0.0,-0.8971,-0.8739,-0.8481,-0.8321,-0.8257,-0.8161,-0.7983,-0.7991,-0.7944,-0.7861,-0.7702,-0.7736,-0.7981,-0.7815,-0.7767,-0.7709,-0.775,-0.7456,-0.6787,-0.6821,-0.6618,-0.6221,-0.61,-0.5938,-0.5815,-0.5714,-0.5702,-0.5756,-0.5577,-0.5363,-0.5264,-0.5437,-0.5121,-0.4656,-0.4925,-0.4485,-0.369,-0.3271,-0.2876,-0.2499,-0.2374,-0.2148,-0.1932,-0.1786,-0.1667,-0.1604,-0.1631,-0.1506,-0.1489,-0.1609,-0.17,-0.1679,-0.1355,-0.1491,-0.1616,-0.1278,-0.1628,-0.2066,-0.2149,-0.2498,-0.2791,-0.3014,-0.3427,-0.3931,-0.4395,-0.4523,-0.4699,-0.501,-0.4835,-0.4701,-0.4701,-0.461,-0.4565,-0.4565,-0.4297,-0.4297,-0.452,-0.4385,-0.4346,-0.4435,-0.4148,-0.3959,0.0,0.0,0.0,0.0,0.0,0.0,0.0,0.0,0.0,0.0,0.0,0.0,0.0,0.0,0.0,0.0,0.0,0.0,0.0,0.0,0.0,0.0,0.0,0.0,0.0,0.0,-0.8893,-0.891,-0.8839,-0.8676,-0.8629,-0.8478,-0.8192,-0.7812,-0.7853,-0.7851,-0.7744,-0.763,-0.7578,-0.7547,-0.7386,-0.7438,-0.7587,-0.7552,-0.7439,-0.731,-0.731,-0.6951,-0.6312,-0.6184,-0.6117,-0.6002,-0.569,-0.5588,-0.5716,-0.5324,-0.5222,-0.5315,-0.5041,-0.4802,-0.4681,-0.4855,-0.4595,-0.4187,-0.4408,-0.4099,-0.3482,-0.2924,-0.2589,-0.2338,-0.2168,-0.194,-0.1715,-0.1388,-0.1318,-0.1304,-0.1204,-0.1193,-0.1177,-0.129,-0.139,-0.1434,-0.1213,-0.1355,-0.1438,-0.1058,-0.151,-0.1884,-0.1679,-0.2088,-0.248,-0.2647,-0.3016,-0.3479,-0.3991,-0.4119,-0.4251,-0.4518,-0.4387,-0.4253,-0.4164,-0.4121,-0.4076,-0.4166,-0.3941,-0.3941,-0.43,-0.4047,-0.4035,-0.4255,-0.3898,-0.3723,-0.3728,0.0,0.0,0.0,0.0,0.0,0.0,0.0,0.0,0.0,0.0,0.0,0.0,0.0,0.0,0.0,0.0,0.0,0.0,0.0,0.0,0.0,0.0,0.0,-0.8734,-0.8556,-0.8386,-0.8384,-0.847,-0.8435,-0.8017,-0.8168,-0.7955,-0.7232,-0.7327,-0.7391,-0.7391,-0.7092,-0.7127,-0.7655,-0.7239,-0.7094,-0.7234,-0.7202,-0.683,-0.6124,-0.6124,-0.5931,-0.561,-0.5222,-0.5476,-0.6116,-0.5736,-0.5803,-0.6056,-0.5417,-0.516,-0.5149,-0.5006,-0.4749,-0.4444,-0.475,-0.4442,-0.3881,-0.3883,-0.3861,-0.373,-0.3019,-0.2768,-0.2649,-0.2063,-0.1828,-0.1769,-0.1474,-0.134,-0.1266,-0.0977,-0.0852,-0.0785,-0.0505,-0.0673,-0.0897,-0.0897,-0.1121,-0.1283,-0.1262,-0.1416,-0.1508,-0.1234,-0.1622,-0.2037,-0.2193,-0.2452,0.0,-0.3509,-0.3764,-0.3983,-0.421,-0.4255,-0.4164,-0.3894,-0.3674,-0.3678,-0.3859,-0.3678,-0.3812,-0.4259,-0.3966,-0.391,-0.4148,-0.391,-0.3732,-0.3569,0.0,0.0,0.0,0.0,0.0,0.0,0.0,0.0,0.0,0.0,0.0,0.0,0.0,0.0,0.0,0.0,0.0,0.0,0.0,0.0,0.0,0.0,-0.7773,-0.7936,-0.7841,-0.7816,-0.7758,-0.7892,-0.7885,-0.7786,-0.777,-0.7557,-0.7088,-0.7366,-0.7446,-0.713,-0.7335,-0.7216,-0.6631,-0.6739,-0.6658,-0.6247,-0.6749,-0.6839,-0.638,-0.638,-0.6014,-0.5367,-0.5042,-0.4818,-0.4642,-0.4627,-0.4648,-0.4718,-0.4635,-0.4496,-0.4442,-0.4329,-0.424,-0.4192,-0.4167,-0.395,-0.3516,-0.307,-0.286,-0.271,-0.228,-0.1843,-0.1416,-0.1254,-0.0899,-0.0479,-0.042,-0.0355,-0.0408,-0.0519,-0.0397,-0.0336,-0.0673,-0.0673,-0.0561,-0.0561,-0.0777,-0.088,-0.0438,-0.0848,-0.1287,-0.1229,-0.16,-0.2006,-0.2225,-0.245,0.0,-0.3119,-0.3169,-0.3186,-0.3275,-0.3275,-0.3275,-0.3186,-0.3141,-0.3186,-0.3361,-0.3186,-0.3343,-0.3849,-0.3479,-0.3332,-0.3476,-0.3482,-0.3399,0.0,0.0,0.0,0.0,0.0,0.0,0.0,0.0,0.0,0.0,0.0,0.0,0.0,0.0,0.0,0.0,0.0,0.0,0.0,0.0,0.0,0.0,-0.7998,-0.7751,-0.7795,-0.7581,-0.7464,-0.7464,-0.7501,-0.7495,-0.7587,-0.7481,-0.727,-0.6802,-0.6862,-0.6802,-0.6551,-0.6582,-0.6462,-0.618,-0.6337,-0.6271,-0.6105,-0.6558,-0.6585,-0.625,-0.6118,-0.5824,-0.5314,-0.4852,-0.4632,-0.4662,-0.4371,-0.432,-0.4454,-0.436,-0.4286,0.0,0.0,0.0,0.0,0.0,-0.3613,-0.3423,-0.2906,-0.2698,-0.2556,-0.207,-0.1695,-0.1324,-0.1033,-0.0667,-0.0362,-0.0241,-0.0237,-0.0233,-0.0231,-0.0114,-0.0056,-0.028,-0.0224,-0.0056,-0.0056,-0.0334,-0.0442,-0.0055,-0.0595,0.0,-0.1061,-0.1475,-0.1861,-0.2087,-0.214,-0.2343,-0.2949,-0.2783,-0.2672,-0.2763,-0.2855,-0.2901,-0.2763,-0.2901,0.0,0.0,0.0,-0.3067,-0.3269,-0.331,0.0,0.0,0.0,-0.327,-0.3049,0.0,0.0,0.0,-0.3452,-0.3512,0.0,0.0,0.0,0.0,0.0,0.0,0.0,0.0,0.0,0.0,0.0,0.0,0.0,0.0,0.0,0.0,-0.8099,-0.8013,-0.7975,-0.7516,-0.7198,-0.7323,-0.7246,-0.7221,-0.7294,-0.7175,-0.6941,-0.6388,-0.613,-0.5947,-0.5824,0.0,0.0,0.0,0.0,-0.5897,-0.6237,-0.6315,-0.6183,-0.5778,-0.5446,-0.5314,-0.5314,-0.4642,-0.4642,-0.5178,-0.4575,-0.4441,-0.4572,-0.4374,-0.4239,-0.4167,-0.4182,-0.412,-0.3991,-0.3631,-0.3422,-0.3347,-0.2991,0.0,0.0,-0.2164,-0.1914,-0.1788,-0.1111,-0.0917,-0.0846,-0.0483,-0.0413,-0.0346,-0.0058,0.0057,0.0112,0.028,0.0393,0.0393,0.0393,0.0224,0.0056,0.0112,-0.0387,-0.0765,-0.0765,-0.119,-0.1623,-0.1841,-0.1685,-0.1919,-0.2829,-0.2538,-0.2294,-0.2572,0.0,0.0,-0.2628,-0.2868,-0.3063,-0.3261,-0.3076,-0.286,-0.2663,-0.3267,-0.3328,-0.2862,-0.3173,-0.3199,-0.2931,-0.2931,-0.2774,-0.2508,-0.2893,-0.3077,0.0,0.0,0.0,0.0,0.0,0.0,0.0,0.0,0.0,0.0,0.0,0.0,0.0,0.0,0.0,-0.8116,-0.7807,-0.7467,-0.7246,-0.6976,-0.6869,-0.7049,-0.7231,-0.7157,-0.674,-0.6768,-0.6554,-0.588,-0.626,-0.6197,-0.5365,-0.5762,-0.5681,-0.5116,-0.5262,-0.5144,-0.4629,-0.5283,-0.5379,-0.5041,0.0,0.0,-0.4908,-0.4508,-0.4239,-0.4104,-0.4239,-0.3969,-0.3497,-0.3767,-0.3701,-0.3497,-0.4025,-0.4025,-0.3677,-0.3388,-0.3051,-0.2697,-0.2369,-0.2221,-0.2136,-0.1758,-0.1433,-0.1111,-0.0741,-0.0431,0.0,0.0242,0.0119,0.0,0.0288,0.0341,0.028,0.0112,0.0224,0.0393,0.0393,0.0336,0.0393,0.0673,0.0221,-0.0109,0.0109,-0.0635,-0.1392,-0.1667,-0.1833,-0.1949,-0.2096,-0.2215,-0.2375,-0.2576,-0.243,-0.2447,-0.2678,-0.2536,-0.2454,-0.2493,-0.2531,-0.2505,-0.2462,-0.2619,-0.2703,-0.2597,-0.266,-0.2664,-0.2611,-0.2611,-0.2576,-0.2556,-0.26,-0.2633,0.0,0.0,0.0,0.0,0.0,0.0,0.0,0.0,0.0,0.0,0.0,-0.862,0.0,0.0,-0.8203,-0.8091,-0.7792,-0.7612,-0.7778,-0.7592,-0.7236,-0.6909,-0.6841,-0.6795,-0.6649,-0.6611,-0.6431,-0.6061,-0.6124,-0.5955,-0.5164,-0.5326,-0.5238,-0.4759,-0.4922,-0.4958,-0.4793,-0.5228,-0.5312,-0.5111,-0.4908,-0.4772,-0.4772,-0.4441,-0.4105,-0.3835,-0.3969,-0.3701,-0.3228,-0.3431,-0.3498,-0.3498,-0.3701,-0.3601,-0.3359,-0.3032,-0.269,-0.228,-0.1939,-0.1668,-0.1467,-0.1085,-0.0885,-0.0687,-0.0375,-0.0124,0.0061,0.0423,0.0356,0.029,0.0634,0.0681,0.0617,0.0505,0.0561,0.0673,0.0841,0.0729,0.0729,0.1065,0.0724,0.0443,0.0388,-0.0163,-0.0746,-0.1172,-0.1575,-0.1816,-0.1763,-0.1889,-0.2011,-0.209,-0.2139,-0.2198,-0.2369,-0.2391,-0.2362,-0.2228,-0.2374,-0.2388,-0.2051,-0.2428,-0.2506,-0.2375,-0.2505,-0.2516,-0.2352,-0.2352,-0.2307,-0.2215,-0.2141,-0.2232,0.0,0.0,0.0,0.0,0.0,0.0,0.0,0.0,-0.8989,-0.8867,-0.882,-0.871,-0.8378,-0.8302,-0.8231,-0.8128,-0.792,-0.7925,-0.8389,-0.8222,-0.7766,-0.6837,-0.661,-0.6594,-0.6832,-0.6606,-0.6404,-0.6279,-0.5985,-0.5584,-0.5069,-0.4792,-0.4636,-0.4597,-0.4651,-0.4783,-0.5064,-0.5064,-0.5072,-0.5018,-0.4676,-0.4535,-0.4522,-0.4256,-0.3913,-0.3566,-0.3566,-0.3431,-0.3228,-0.3162,-0.3296,-0.3566,-0.3162,-0.3027,-0.2956,-0.2659,-0.2317,-0.1916,-0.1567,-0.1233,-0.0971,-0.0582,-0.051,-0.044,-0.0125,0.0,0.006,0.0422,0.0414,0.0405,0.0754,0.0803,0.0849,0.0849,0.0847,0.0958,0.124,0.1124,0.1009,0.1346,0.1121,0.0841,0.0617,0.0277,-0.0109,-0.0593,-0.118,-0.1552,-0.1392,-0.1534,-0.1571,-0.1512,-0.172,-0.1827,-0.1886,-0.2077,-0.2099,-0.1884,-0.2126,-0.2075,-0.1615,-0.2156,-0.2342,-0.2144,-0.2396,-0.2413,-0.2132,-0.2132,-0.202,-0.1795,-0.1683,-0.1782,-1.0595,-1.0167,-0.9692,-0.9399,-0.9248,-0.918,0.0,0.0,-0.8768,-0.867,-0.8702,-0.8659,-0.822,-0.8239,-0.8262,-0.8179,-0.8161,-0.8087,-0.8018,-0.7971,-0.7671,-0.7011,-0.7151,-0.7242,-0.7084,-0.6621,-0.6229,-0.6028,-0.5831,-0.542,-0.4761,-0.4582,-0.4415,-0.4269,-0.428,-0.4205,-0.3974,-0.3975,-0.3861,-0.3559,-0.3489,-0.3467,-0.3494,-0.3426,-0.32,-0.2828,-0.2828,-0.2962,-0.3161,-0.2894,-0.2761,-0.2761,-0.2424,-0.2289,-0.2289,-0.2286,-0.2015,-0.1612,-0.1273,-0.1063,-0.0919,-0.0583,-0.0507,-0.0432,-0.0122,0.0,0.0059,0.0421,0.0298,0.0118,0.0478,0.0534,0.0527,0.0527,0.0753,0.0975,0.1319,0.1133,0.1065,0.1627,0.129,0.0953,0.1177,0.0728,0.0279,-0.0056,-0.0825,-0.1145,-0.06,-0.1035,-0.1297,-0.1276,-0.1063,-0.0963,-0.1031,-0.1049,-0.1059,-0.1059,-0.1061,-0.1173,-0.1338,-0.14,-0.1569,-0.1846,-0.1905,-0.1907,-0.1851,-0.1851,-0.1851,-0.1795,-0.1234,-0.1289,-0.9927,-0.9799,-0.9636,0.0,-0.9284,-0.9178,-0.9084,-0.8833,-0.8571,-0.8723,-0.8689,-0.8573,-0.8448,-0.843,-0.8328,0.0,-0.8044,-0.7868,-0.7781,-0.7595,-0.7418,-0.7203,-0.7161,-0.7055,-0.6845,-0.6586,-0.6423,-0.6326,-0.6262,-0.5911,-0.5096,-0.4996,-0.4767,-0.4267,-0.427,-0.4243,-0.4122,-0.4122,-0.4065,-0.3949,-0.3949,-0.3815,-0.3615,-0.3615,-0.3451,-0.3066,-0.2794,-0.2916,-0.3162,-0.2828,-0.2694,-0.2694,-0.2357,-0.2222,-0.2222,-0.2222,-0.1953,-0.1548,-0.1414,-0.1073,-0.0733,-0.0795,-0.0584,-0.019,-0.0252,0.0,0.0364,0.0671,0.0665,0.0598,0.0964,0.0894,0.0707,0.0707,0.0821,0.0992,0.1342,0.1276,0.1328,0.179,0.1604,0.148,0.1594,0.1242,0.0897,0.0785,-0.0111,-0.0555,0.0,-0.0605,-0.1036,-0.1028,-0.1082,-0.109,-0.1108,-0.1285,-0.1402,-0.1402,-0.1402,-0.1458,-0.157,-0.157,-0.157,-0.1514,-0.1514,-0.1458,-0.129,-0.129,-0.129,-0.129,-0.1009,-0.1009,-0.9442,-0.9492,0.0,-0.9327,-0.9217,-0.9129,-0.8968,-0.8654,-0.8462,-0.8722,-0.8657,-0.8544,-0.8635,-0.8508,-0.8388,-0.8299,-0.7937,-0.7722,-0.7717,-0.7348,-0.7146,-0.7139,-0.6843,-0.6543,-0.6394,-0.6455,-0.6564,-0.6588,-0.6475,-0.6067,-0.5369,-0.5231,-0.4925,-0.4307,-0.4323,-0.4285,-0.4259,-0.4261,-0.42,-0.4077,-0.4007,-0.3813,-0.3557,-0.3487,-0.3406,-0.3315,-0.2903,-0.2955,-0.3198,-0.286,-0.2719,-0.2641,-0.2235,-0.2027,-0.202,-0.1953,-0.175,-0.1548,-0.1346,-0.101,-0.0739,-0.1001,-0.0655,-0.0192,-0.0445,-0.0125,0.0427,0.0797,0.0852,0.0846,0.1213,0.1204,0.1015,0.0955,0.1071,0.1245,0.1364,0.1418,0.1473,0.1826,0.1809,0.1737,0.1795,0.1605,0.1422,0.1365,0.0623,0.0169,0.0393,-0.0222,-0.0661,-0.0661,-0.0826,-0.0994,-0.1058,-0.1231,-0.1344,-0.1393,-0.1343,-0.1346,-0.1402,-0.1402,-0.1346,-0.1177,-0.1177,-0.1121,-0.0897,-0.0897,-0.0897,-0.0897,-0.0785,-0.0787,-0.9475,-0.9527,-0.9525,-0.9257,-0.8977,-0.8768,-0.9049,-0.8684,-0.8365,-0.8678,-0.8668,-0.8573,-0.8576,-0.8489,-0.8416,-0.8413,-0.7984,-0.7714,-0.7714,-0.7221,-0.686,-0.6741,-0.6223,-0.5876,0.0,-0.6223,-0.6562,-0.6584,-0.6095,-0.5703,-0.5441,-0.5039,-0.4638,-0.4308,-0.4365,-0.4189,-0.3847,-0.3847,-0.3664,-0.3362,-0.3012,-0.2784,-0.2753,-0.2408,-0.2701,-0.3363,-0.2942,-0.3011,-0.336,-0.2939,-0.2779,-0.2611,-0.1992,-0.1703,-0.1548,-0.1279,-0.1346,-0.1481,-0.0808,-0.0808,-0.1072,-0.1043,-0.0767,-0.0503,-0.0488,-0.0239,0.0059,0.0421,0.0543,0.0605,0.0922,0.1234,0.1418,0.1048,0.1463,0.1809,0.1447,0.143,0.1473,0.1826,0.1649,0.1531,0.1825,0.1883,0.1765,0.1471,0.1393,0.1142,0.0506,0.0168,0.0,0.0,-0.0056,-0.0167,-0.0384,-0.0222,-0.0167,-0.0439,-0.0222,-0.0168,-0.0449,-0.0449,-0.0617,-0.0897,-0.0897,-0.0897,-0.0897,-0.0897,-0.0897,-0.0897,-0.0561,-0.0396,-0.9276,-0.9282,-0.9231,-0.905,-0.8797,-0.8595,-0.8509,-0.8337,-0.8203,-0.8286,-0.8306,-0.8353,-0.8353,-0.8323,-0.8272,-0.819,-0.7888,-0.7496,-0.7163,-0.6773,-0.6467,-0.6162,-0.6031,0.0,0.0,0.0,0.0,-0.6072,-0.5745,-0.551,-0.5452,-0.5112,-0.4723,-0.4422,-0.4407,-0.4329,-0.4192,-0.4192,-0.4064,-0.3667,-0.3071,-0.2937,-0.3136,-0.2811,-0.2816,-0.3015,-0.3184,-0.318,-0.3014,-0.3154,-0.3007,-0.2716,-0.2507,-0.2083,-0.159,-0.1233,-0.116,-0.1227,-0.1013,-0.101,-0.1141,-0.1317,-0.1166,-0.0893,-0.1125,-0.0615,0.0,0.0122,0.049,0.0859,0.0986,0.1111,0.1173,0.1297,0.1292,0.1348,0.147,0.1465,0.152,0.1642,0.1689,0.1796,0.1856,0.1899,0.1768,0.1473,0.1046,0.0629,0.0449,0.0168,0.0,0.0,-0.0167,-0.0275,-0.0383,-0.0495,-0.066,-0.0711,-0.0667,-0.0617,-0.0729,-0.0729,-0.0673,-0.0561,-0.0393,-0.028,-0.028,-0.0112,0.0,0.0057,0.0171,0.0286,-0.8791,-0.885,-0.8851,-0.8717,-0.8534,-0.8281,-0.8154,-0.8027,-0.7929,-0.7929,-0.8092,-0.822,-0.8179,-0.8206,-0.8195,-0.8136,-0.7741,-0.7304,-0.6882,-0.6458,-0.6098,-0.5893,-0.5782,-0.5815,0.0,0.0,0.0,-0.6027,-0.5859,-0.572,-0.5692,-0.5421,-0.5099,-0.4658,-0.4622,-0.4524,-0.4367,-0.4367,-0.4229,-0.3887,-0.3233,-0.3186,-0.3551,-0.2964,-0.2834,-0.3249,-0.315,-0.301,-0.2844,-0.2986,-0.2836,-0.2612,-0.2471,-0.2107,-0.167,-0.1241,-0.1096,-0.109,-0.0945,-0.101,-0.1141,-0.1316,-0.1235,-0.1028,-0.1259,-0.0871,-0.0309,-0.0062,0.0309,0.0679,0.0926,0.1111,0.1173,0.1297,0.1359,0.1359,0.1297,0.1482,0.1606,0.1359,0.1654,0.1887,0.1764,0.175,0.1735,0.1606,0.0942,0.0465,0.0572,0.0341,0.017,0.017,-0.0056,-0.0275,-0.0383,-0.044,-0.0495,-0.0547,-0.0389,-0.028,-0.028,-0.028,-0.0168,0.0056,0.0224,0.0336,0.0336,0.0505,0.062,0.0627,0.0627,0.0686,-0.8202,-0.829,-0.8381,-0.8375,-0.8054,-0.7829,-0.7953,-0.7847,-0.7701,-0.7701,-0.7978,-0.8179,0.0,0.0,-0.8118,-0.807,-0.7483,-0.7007,-0.6915,-0.6267,-0.5818,0.0,0.0,0.0,0.0,0.0,0.0,-0.6433,0.0,-0.6201,-0.6028,-0.5969,-0.5627,-0.4942,-0.487,-0.4703,-0.4308,-0.4311,-0.4112,-0.3776,-0.3368,-0.3458,-0.3849,-0.2719,-0.2896,-0.3861,-0.2827,-0.2552,-0.2843,-0.2479,-0.2317,-0.2293,-0.1934,-0.1763,-0.1653,-0.1239,-0.1091,-0.1078,-0.0673,-0.0808,-0.1072,-0.0977,-0.0968,-0.1027,-0.0999,-0.099,-0.0866,-0.0247,0.0,0.0124,0.0803,0.1173,0.1359,0.105,0.1482,0.1791,0.1112,0.1482,0.1791,0.1111,0.1544,0.1853,0.1544,0.1544,0.1598,0.1877,0.1148,0.066,0.1004,0.0697,0.0517,0.0517,0.0226,-0.0056,-0.0329,0.0111,0.0334,0.0055,0.0556,0.0898,0.0897,0.0898,0.0898,0.0897,0.0897,0.0897,0.0897,0.0898,0.0899,0.0899,0.09,0.0794,-0.8308,-0.8244,-0.8072,-0.7973,-0.7769,-0.7594,-0.7627,-0.7673,-0.7701,-0.7701,-0.7842,-0.7929,0.0,0.0,0.0,-0.7671,-0.7048,0.0,-0.653,-0.6141,0.0,-0.5821,0.0,-0.5902,-0.6008,-0.5954,0.0,0.0,-0.5964,-0.5729,-0.5963,-0.549,-0.5079,-0.4873,-0.4623,-0.439,-0.4308,-0.408,-0.3984,-0.3886,-0.3433,-0.3354,-0.3436,-0.3205,-0.309,-0.3104,-0.3177,-0.3063,-0.2916,-0.3136,-0.2985,-0.2685,-0.2322,-0.2012,-0.1628,-0.1261,-0.1107,-0.1092,-0.1013,-0.101,-0.1074,-0.0725,-0.0786,-0.098,-0.1026,-0.0829,-0.0637,-0.0693,-0.0377,0.0063,0.0186,0.0494,0.0803,0.0988,0.1111,0.1235,0.105,0.1112,0.1173,0.105,0.1359,0.1606,0.1544,0.1729,0.1912,0.1966,0.178,0.152,0.1301,0.0813,0.0517,0.0748,0.0728,0.0659,0.0602,0.0713,0.0769,0.0656,0.0787,0.0909,0.0898,0.0908,0.0909,0.0898,0.0897,0.0785,0.0505,0.0795,0.0914,0.0915,0.123,0.1407,-0.7893,-0.778,-0.7651,-0.7578,-0.7459,-0.7358,-0.7358,-0.7453,-0.7527,-0.7472,-0.7641,0.0,-0.7644,-0.7501,0.0,0.0,0.0,0.0,-0.6527,-0.6372,-0.6234,0.0,-0.645,0.0,-0.6547,-0.6526,-0.6496,0.0,-0.6084,-0.5899,-0.6182,-0.5849,-0.551,-0.5373,-0.5163,-0.497,-0.4659,-0.4487,-0.4312,-0.4134,-0.3756,-0.3673,-0.3812,-0.3373,-0.3252,-0.3328,0.0,-0.3136,-0.2916,-0.3136,-0.299,-0.2625,-0.226,-0.2018,-0.1843,-0.1477,-0.1455,-0.1565,-0.135,-0.1346,-0.1209,-0.0662,-0.0659,-0.0789,-0.0778,-0.0774,-0.0709,-0.0767,-0.051,-0.0191,-0.0063,0.0125,0.0374,0.0686,0.0807,0.0803,0.0988,0.1111,0.1235,0.142,0.1482,0.1544,0.1667,0.1729,0.1853,0.1977,0.1729,0.1596,0.1628,0.1061,0.0756,0.1104,0.0846,0.0719,0.0885,0.0995,0.105,0.0885,0.1133,0.126,0.1135,0.1268,0.1326,0.1305,0.1304,0.1186,0.1009,0.1198,0.1322,0.1323,0.1535,0.1656,-0.7421,-0.7393,-0.7388,-0.7371,-0.7289,-0.7271,-0.7285,-0.7303,-0.7288,-0.7195,0.0,-0.7646,-0.7538,-0.7496,-0.7476,-0.7426,0.0,-0.6584,-0.6686,-0.6688,-0.6755,-0.6911,-0.7138,-0.7231,-0.7064,-0.6964,-0.6834,-0.6581,-0.6446,-0.637,-0.6516,-0.6386,-0.6189,-0.5794,-0.5932,-0.5739,-0.5129,-0.5129,-0.4921,-0.4506,-0.415,-0.4147,-0.4426,-0.3478,-0.3352,-0.3855,-0.3255,-0.2982,-0.2982,-0.2987,-0.277,-0.2333,-0.1968,-0.2009,-0.2175,-0.1824,-0.1931,-0.2155,-0.1818,-0.1616,-0.1478,-0.073,-0.0529,-0.0462,-0.0456,-0.0649,-0.0843,-0.0583,-0.0518,-0.0453,-0.0129,-0.0064,0.0,0.0379,0.0438,0.0559,0.0868,0.1177,0.1548,0.1791,0.1667,0.1606,0.1915,0.1729,0.1667,0.1977,0.1482,0.1297,0.1915,0.1445,0.1122,0.1355,0.086,0.0675,0.0954,0.118,0.1238,0.1013,0.1547,0.1734,0.15,0.1758,0.1877,0.179,0.1788,0.1774,0.1745,0.1774,0.1729,0.1726,0.1876,0.1771,-0.7795,-0.7849,-0.7939,-0.7609,-0.7566,-0.7574,-0.7675,-0.7466,0.0,0.0,-0.7434,-0.7543,-0.7524,-0.743,-0.7321,-0.7096,0.0,0.0,0.0,0.0,-0.7162,0.0,0.0,0.0,0.0,0.0,0.0,0.0,0.0,-0.6504,-0.652,-0.5917,-0.5475,-0.5195,-0.5416,-0.549,-0.52,-0.52,-0.5014,-0.4632,-0.451,-0.4345,-0.4062,-0.3814,-0.3658,-0.352,-0.3353,0.0,-0.3303,-0.334,-0.3136,-0.277,-0.2333,-0.2225,-0.2175,-0.1824,-0.1931,-0.2222,-0.2087,-0.1885,-0.1481,-0.0738,-0.0469,-0.0469,-0.0201,-0.0134,-0.02,-0.0461,-0.0525,-0.0458,-0.0453,-0.0387,-0.0321,0.0,0.0318,0.0511,0.0568,0.0881,0.1128,0.1176,0.1359,0.1544,0.1606,0.1791,0.1915,0.1977,0.1667,0.1544,0.1977,0.1581,0.1375,0.1416,0.1274,0.1252,0.1235,0.1306,0.1431,0.1661,0.1767,0.1845,0.182,0.1848,0.1909,0.1879,0.1584,0.1455,0.1489,0.1455,0.1457,0.1496,0.1778,0.185,-0.7767,-0.7809,-0.7794,-0.7452,-0.7379,-0.7396,-0.7452,0.0,0.0,0.0,-0.7388,-0.7519,-0.7519,-0.7464,0.0,-0.7293,0.0,0.0,0.0,0.0,0.0,0.0,0.0,0.0,0.0,0.0,0.0,0.0,0.0,-0.652,-0.652,-0.6185,-0.5975,-0.5893,-0.6037,-0.6047,-0.5848,-0.563,-0.5359,-0.4956,-0.478,-0.4549,-0.4333,-0.4063,-0.3967,-0.4035,-0.3751,0.0,-0.3722,-0.3745,-0.3407,-0.2843,-0.2478,-0.2307,-0.2198,-0.1843,-0.1882,-0.2178,-0.2178,-0.21,-0.1818,-0.1279,-0.0808,-0.0538,-0.0538,-0.0337,-0.0067,-0.04,-0.04,-0.0266,-0.0264,-0.0394,-0.039,-0.0064,0.0254,0.0505,0.0505,0.0753,0.1061,0.1248,0.1366,0.1544,0.1729,0.1729,0.1791,0.1977,0.1544,0.1359,0.1667,0.1596,0.1518,0.1673,0.1529,0.1451,0.1613,0.1624,0.1631,0.1572,0.1787,0.1864,0.1671,0.1878,0.1941,0.191,0.173,0.1658,0.1631,0.1644,0.1643,0.169,0.1834,0.1908,-0.78,-0.7718,-0.7715,-0.7379,-0.7268,-0.7268,-0.7268,-0.7265,0.0,-0.721,-0.7328,-0.7489,-0.7513,-0.753,-0.7555,0.0,-0.7348,-0.7241,0.0,0.0,0.0,0.0,0.0,0.0,0.0,0.0,0.0,0.0,0.0,0.0,-0.6386,-0.6472,-0.6558,-0.6581,-0.6673,-0.6618,-0.6412,-0.6119,-0.5756,-0.5321,-0.4956,-0.4875,-0.4931,-0.437,-0.4336,-0.4674,-0.4208,0.0,-0.4131,-0.4143,-0.3747,-0.3135,-0.2697,-0.2532,-0.2362,-0.2004,-0.1971,-0.22,-0.22,-0.218,-0.2155,-0.1818,-0.1279,-0.0808,-0.101,-0.0606,-0.0135,-0.0404,-0.0269,0.0,0.0,-0.02,-0.033,-0.0065,0.0127,0.0313,0.0443,0.0627,0.0933,0.1317,0.1369,0.1482,0.1853,0.1667,0.1606,0.1977,0.142,0.1173,0.1544,0.142,0.1476,0.1883,0.1614,0.1538,0.1768,0.1832,0.1718,0.154,0.1744,0.1819,0.1637,0.1841,0.1965,0.1941,0.1941,0.1926,0.1896,0.1896,0.1892,0.1886,0.1886,0.1898,-0.8103,-0.8208,-0.8266,-0.7715,-0.7551,-0.7551,-0.7551,0.0,-0.721,-0.721,-0.726,-0.7328,-0.7497,-0.7576,-0.7648,-0.7447,-0.7735,-0.7909,0.0,0.0,0.0,0.0,0.0,0.0,0.0,0.0,0.0,0.0,0.0,0.0,-0.5984,-0.6328,-0.6485,-0.623,-0.6659,-0.6747,-0.6412,-0.6339,-0.6119,-0.5754,-0.532,-0.5287,-0.5579,-0.4801,-0.4601,-0.4823,-0.4476,0.0,0.0,-0.4551,-0.432,-0.3935,-0.3573,-0.3183,-0.2789,-0.2362,-0.2252,-0.22,-0.22,-0.218,-0.2222,-0.2155,-0.1885,-0.1481,-0.1212,-0.0808,-0.0471,-0.0471,-0.0269,0.0,0.0,0.0,-0.0067,0.0,-0.0197,-0.0257,0.0387,0.0255,0.0251,0.093,0.1051,0.1173,0.1482,0.1544,0.1606,0.1977,0.142,0.1235,0.1853,0.1173,0.0926,0.1911,0.1702,0.1497,0.1475,0.1493,0.1625,0.1867,0.1956,0.1973,0.1973,0.1975,0.1975,0.1973,0.1973,0.1958,0.1927,0.1927,0.1913,0.1886,0.1886,0.1887,-0.8432,-0.8437,-0.8504,-0.8114,-0.7886,-0.7714,-0.7714,0.0,-0.721,-0.721,-0.7249,-0.7317,-0.7497,-0.7619,-0.7679,-0.7731,-0.7851,-0.7986,-0.7917,0.0,0.0,0.0,0.0,0.0,0.0,0.0,0.0,0.0,0.0,0.0,-0.6252,-0.6524,-0.6619,-0.6514,-0.6687,-0.6748,-0.6694,-0.648,-0.6291,-0.6119,-0.5756,-0.5667,-0.5777,-0.5376,-0.5124,-0.5062,-0.4841,0.0,0.0,-0.4548,-0.4374,-0.4038,-0.3924,-0.3633,-0.3184,-0.2823,-0.2647,-0.2602,-0.2303,-0.2207,-0.2179,-0.2228,-0.2222,-0.2222,-0.1885,-0.1346,-0.0875,-0.0875,-0.0606,-0.0269,-0.0067,0.0,0.0,0.0,-0.0262,-0.0388,0.0065,-0.0065,-0.0128,0.0572,0.0693,0.0811,0.1113,0.1359,0.1544,0.1667,0.1297,0.1111,0.1359,0.105,0.0864,0.105,0.1351,0.1587,0.1759,0.1769,0.1836,0.1958,0.197,0.1977,0.1977,0.1977,0.1977,0.1977,0.1977,0.1971,0.1958,0.194,0.1915,0.1885,0.1867,0.1858,-0.8654,-0.8647,-0.8634,-0.8426,-0.8159,-0.7951,0.0,0.0,-0.7324,-0.7324,-0.7281,-0.732,-0.7442,-0.7565,-0.7687,-0.7801,-0.7847,-0.7974,-0.81,-0.8364,0.0,0.0,0.0,0.0,0.0,0.0,0.0,0.0,0.0,0.0,-0.6829,-0.6984,-0.6989,-0.6823,-0.692,-0.7047,-0.7067,-0.6786,-0.6616,-0.6557,-0.6192,-0.6032,-0.6078,-0.5736,-0.5484,-0.5293,-0.5101,0.0,0.0,-0.4643,-0.4471,-0.4152,-0.4117,-0.3923,-0.3646,-0.3209,-0.311,-0.2997,-0.2677,-0.2572,-0.2537,-0.2368,-0.2558,-0.276,-0.2424,-0.1885,-0.1414,-0.1279,-0.0875,-0.0471,-0.0202,-0.0067,0.0,0.0,-0.0328,-0.0586,-0.0197,-0.0521,-0.0645,0.0064,0.0191,0.0314,0.0805,0.105,0.1297,0.1482,0.1111,0.0926,0.1111,0.0864,0.0679,0.0679,0.0988,0.1359,0.1667,0.1915,0.1977,0.1853,0.1915,0.1977,0.1977,0.1977,0.1977,0.1977,0.1977,0.1977,0.1977,0.1955,0.1929,0.1898,0.1877,0.1804,-0.8868,-0.8811,-0.8668,-0.8523,-0.8373,-0.8216,-0.8023,-0.7771,-0.7607,-0.7607,-0.7382,-0.7248,-0.7315,-0.7437,-0.7562,-0.7684,-0.7799,-0.7974,-0.81,0.0,0.0,0.0,0.0,0.0,0.0,0.0,0.0,0.0,0.0,0.0,-0.7674,-0.7774,-0.7578,-0.7137,-0.7571,-0.7676,-0.7427,-0.7358,-0.7261,-0.699,-0.6557,-0.6583,-0.6851,-0.5993,-0.5566,-0.5493,0.0,0.0,0.0,-0.4739,-0.4745,-0.4574,-0.4148,-0.4037,-0.408,-0.3646,-0.3472,-0.3498,-0.338,-0.3334,-0.3221,-0.2841,-0.2895,-0.3162,-0.2828,-0.2492,-0.2087,-0.1683,-0.1077,-0.0471,-0.0471,-0.0269,0.0,0.0,-0.0532,-0.0922,-0.0593,-0.1042,-0.1349,-0.0633,-0.0505,-0.0251,0.0371,0.0494,0.0741,0.142,0.0926,0.0741,0.142,0.0617,0.0247,0.0926,0.0679,0.0617,0.0988,0.1606,0.1853,0.1544,0.1791,0.1977,0.1977,0.1977,0.1977,0.1977,0.1977,0.1977,0.1977,0.1976,0.196,0.1871,0.187,0.1914,-0.8878,-0.8986,-0.903,-0.898,-0.8781,-0.8577,-0.8477,-0.8168,-0.7826,-0.7662,-0.7549,-0.7418,-0.7315,-0.7434,-0.7559,-0.7682,-0.7799,-0.8008,0.0,0.0,0.0,0.0,0.0,0.0,0.0,0.0,0.0,0.0,0.0,0.0,-0.7672,-0.7912,-0.7842,-0.7538,-0.7639,-0.7707,-0.7673,-0.7673,-0.762,-0.7421,-0.7278,-0.7119,-0.6941,-0.651,-0.6253,0.0,0.0,0.0,0.0,-0.4994,-0.4871,-0.4803,-0.4496,-0.4382,-0.4327,-0.3904,-0.3754,-0.3732,-0.3404,-0.3309,-0.3289,-0.3109,-0.3296,-0.3565,-0.3163,-0.296,-0.2759,-0.2154,-0.1481,-0.0875,-0.0538,-0.0404,-0.0337,-0.0337,-0.0738,-0.107,-0.0936,-0.1266,-0.1455,-0.0978,-0.0715,-0.0452,-0.0189,0.0188,0.0562,0.0804,0.0617,0.0556,0.0803,0.0556,0.0309,0.0309,0.0617,0.0864,0.0988,0.142,0.1606,0.1482,0.1791,0.1977,0.1977,0.1977,0.1977,0.1977,0.1977,0.1977,0.1977,0.1977,0.195,0.19,0.19,0.1883,-0.9085,-0.9154,-0.9197,-0.9255,-0.9057,0.0,-0.8805,-0.8496,-0.81,-0.7826,-0.766,-0.7519,-0.7311,-0.7404,-0.7543,-0.7619,-0.7766,-0.7994,0.0,0.0,0.0,0.0,0.0,0.0,0.0,0.0,0.0,0.0,0.0,0.0,-0.822,-0.8337,-0.8267,-0.802,-0.802,-0.8007,-0.7981,-0.7984,-0.786,-0.767,-0.7711,-0.7513,-0.7151,-0.704,-0.6786,0.0,0.0,-0.6022,0.0,-0.543,-0.5232,-0.5085,-0.492,-0.4882,-0.4835,-0.4485,-0.4345,-0.4267,-0.3864,-0.3709,-0.3701,-0.3513,-0.3565,-0.3768,-0.3632,-0.3365,-0.2894,-0.2491,-0.1885,-0.1212,-0.101,-0.074,-0.0538,-0.0673,-0.0942,-0.1144,-0.1279,-0.1548,-0.1743,-0.1388,-0.1054,-0.0851,-0.0575,-0.0127,0.019,0.0437,0.0374,0.0373,0.0494,0.037,0.0247,0.0,0.037,0.0679,0.0803,0.1235,0.1482,0.1482,0.1791,0.1977,0.1977,0.1987,0.1992,0.1992,0.2004,0.2004,0.1992,0.1981,0.1957,0.192,0.192,0.191,0.0,-0.9307,-0.9219,-0.9359,-0.9262,-0.9103,-0.8967,-0.8712,0.0,-0.81,-0.7826,-0.7549,-0.7268,-0.7347,-0.7508,-0.7516,-0.7709,-0.7922,0.0,0.0,0.0,0.0,0.0,0.0,0.0,0.0,0.0,0.0,0.0,0.0,-0.9128,-0.8901,-0.8709,-0.8603,-0.8592,-0.8512,-0.8227,-0.8227,-0.8077,-0.7836,-0.7936,-0.7842,-0.7418,-0.7411,-0.7213,0.0,0.0,-0.6393,-0.5979,-0.5979,-0.5825,-0.5555,-0.5486,-0.5529,-0.5522,-0.5101,-0.4961,-0.4952,-0.4549,-0.4391,-0.4382,-0.3987,-0.3835,-0.3902,-0.4172,-0.3567,-0.2761,-0.2761,-0.2222,-0.1683,-0.1616,-0.1144,-0.0673,-0.1077,-0.1144,-0.1212,-0.1548,-0.1953,-0.2079,-0.1721,-0.165,-0.138,-0.0648,-0.0517,-0.0257,0.038,0.019,0.0126,0.0434,0.0185,0.0,0.0,0.0,0.0185,0.0494,0.1111,0.1482,0.1482,0.1791,0.1977,0.1977,0.2003,0.2018,0.2018,0.2046,0.2046,0.2016,0.1989,0.1975,0.1973,0.1975,0.1975,-0.9205,0.0,-0.8981,-0.9002,-0.9019,-0.8981,0.0,-0.8826,-0.8712,-0.8432,-0.8156,-0.7826,-0.7549,-0.7392,-0.741,-0.7502,-0.7881,-0.8254,0.0,0.0,0.0,0.0,0.0,0.0,0.0,0.0,0.0,0.0,0.0,-0.8895,-0.9258,-0.8865,-0.866,-0.8725,-0.8636,-0.8647,-0.8633,-0.8636,-0.8489,-0.8258,-0.8286,-0.8084,-0.7729,-0.765,-0.7598,0.0,-0.7337,-0.7212,-0.7056,-0.6587,-0.6331,-0.6217,-0.5678,-0.5418,-0.5366,-0.5024,-0.4821,-0.4818,-0.4468,-0.4462,-0.466,-0.4577,-0.4372,-0.4172,-0.4308,-0.3971,-0.3566,-0.3566,-0.3029,-0.2357,-0.2155,-0.1683,-0.1346,-0.1481,-0.1481,-0.1616,-0.1953,-0.2155,-0.2153,-0.2078,-0.1809,-0.1467,-0.1052,-0.0721,-0.0392,0.0064,0.0064,0.0,0.0126,0.0062,0.0,0.0,0.0247,0.0494,0.0864,0.105,0.1235,0.1482,0.1791,0.1977,0.1977,0.2003,0.2018,0.2018,0.2025,0.2015,0.1986,0.1979,0.1964,0.1942,0.1966,0.1964,-0.9221,-0.9038,-0.8885,-0.8885,-0.8885,-0.8885,-0.8885,-0.8885,-0.8771,-0.8377,0.0,0.0,-0.7511,-0.735,-0.7394,-0.7749,-0.8014,0.0,0.0,0.0,0.0,0.0,0.0,0.0,0.0,0.0,0.0,0.0,0.0,-0.9221,-0.9493,-0.9279,-0.9145,-0.9229,-0.9148,-0.901,-0.8685,-0.8685,-0.8652,-0.8515,-0.857,-0.8387,-0.7971,-0.803,-0.7998,0.0,-0.7687,-0.7634,-0.7724,-0.6989,-0.6719,-0.6652,-0.6118,-0.5917,-0.5848,-0.5444,-0.5176,-0.5044,-0.4844,-0.491,-0.5042,-0.4841,-0.4707,-0.4507,-0.4374,-0.4172,-0.3971,-0.3835,-0.3365,-0.2827,-0.2491,-0.2155,-0.1885,-0.1885,-0.175,-0.1683,-0.2087,-0.2222,-0.2222,-0.2222,-0.202,-0.1746,-0.1399,-0.0998,-0.0662,-0.0261,-0.0129,0.0,0.0,0.0,0.0,0.0,0.0188,0.0499,0.0936,0.0992,0.1235,0.1729,0.1915,0.1977,0.1977,0.2003,0.2025,0.2039,0.2039,0.2025,0.1996,0.1983,0.1968,0.1952,0.1969,0.1968,-0.938,-0.9154,-0.8964,-0.8944,-0.8885,-0.8885,-0.8885,-0.8885,-0.8716,0.0,0.0,0.0,0.0,-0.735,0.0,0.0,0.0,0.0,0.0,0.0,0.0,0.0,0.0,0.0,0.0,0.0,0.0,0.0,0.0,-0.9528,-0.9594,-0.9695,-0.9636,-0.9598,-0.9698,-0.9431,-0.8653,-0.8653,-0.8653,-0.859,-0.8693,-0.8606,-0.8272,-0.8372,-0.8362,-0.8269,0.0,0.0,-0.8058,-0.7388,-0.7051,-0.6985,-0.6652,-0.652,-0.6453,-0.6048,-0.5713,-0.5446,-0.5446,-0.5448,-0.5381,-0.5042,-0.4906,-0.4774,-0.4441,-0.4374,-0.4239,-0.3969,-0.3565,-0.3229,-0.2828,-0.2492,-0.2289,-0.2222,-0.1953,-0.1818,-0.2155,-0.2222,-0.2222,-0.2222,-0.2222,-0.2087,-0.1683,-0.1346,-0.0939,-0.053,-0.0264,-0.0066,-0.0065,-0.0065,-0.0065,-0.0065,0.0,0.0317,0.0884,0.1001,0.1305,0.1798,0.1921,0.1987,0.1996,0.202,0.2044,0.207,0.2071,0.2056,0.2025,0.1996,0.1983,0.1983,0.1979,0.1979,-0.938,-0.9396,-0.9423,-0.9023,-0.8885,-0.8885,-0.8885,-0.8885,-0.8826,0.0,0.0,0.0,0.0,-0.7591,0.0,0.0,0.0,0.0,0.0,0.0,0.0,0.0,0.0,0.0,0.0,0.0,0.0,0.0,0.0,-0.892,-0.9183,-0.9204,-0.9204,-0.9183,-0.9543,-0.9476,-0.905,-0.905,-0.8851,-0.8587,-0.8606,-0.8614,-0.855,-0.8569,-0.8566,-0.8547,0.0,-0.8339,-0.8058,-0.7591,-0.7254,-0.6985,-0.6652,-0.652,-0.6453,-0.6048,-0.5847,-0.5847,-0.5847,-0.5646,-0.5448,-0.5646,-0.5309,-0.4772,-0.4707,-0.4507,-0.4308,-0.4239,-0.3969,-0.3566,-0.2895,-0.2694,-0.2559,-0.2289,-0.2155,-0.2155,-0.2155,-0.2222,-0.2222,-0.2222,-0.2222,-0.2087,-0.1683,-0.1346,-0.0942,-0.0537,-0.0465,-0.0395,-0.0394,-0.0455,-0.0452,-0.0452,0.0064,0.0448,0.0569,0.1083,0.1339,0.1134,0.1698,0.2035,0.2087,0.2093,0.2097,0.2102,0.2102,0.2087,0.2057,0.2026,0.2012,0.2011,0.1988,0.1989,-0.9433,-0.9514,-0.9538,-0.894,-0.8943,-0.8976,-0.8729,-0.8771,-0.8735,0.0,0.0,0.0,0.0,0.0,0.0,0.0,0.0,0.0,0.0,0.0,0.0,0.0,0.0,0.0,0.0,0.0,0.0,0.0,0.0,0.0,-0.9386,-0.9455,-0.9588,-0.9984,-0.999,-0.9857,-0.9721,-0.9522,-0.9123,-0.8587,-0.8587,-0.8587,-0.8587,-0.8587,-0.8587,-0.8587,0.0,-0.8523,-0.8323,-0.7724,-0.739,-0.719,-0.6721,-0.652,-0.6453,-0.6048,-0.6048,-0.6183,-0.5981,-0.5914,-0.5984,-0.5914,-0.5579,-0.5111,-0.4841,-0.4574,-0.4239,-0.4105,-0.4038,-0.3971,-0.3433,-0.3164,-0.2894,-0.2558,-0.2357,-0.2222,-0.2222,-0.2222,-0.2222,-0.2222,-0.2222,-0.2155,-0.1953,-0.1616,-0.1279,-0.1144,-0.0937,-0.08,-0.08,-0.0796,-0.0726,-0.0528,-0.0197,0.013,0.0453,0.0775,0.1029,0.1278,0.1532,0.167,0.1497,0.1903,0.197,0.1759,0.197,0.2094,0.2128,0.205,0.2043,0.2043,0.203,0.2031,-0.9485,-0.9622,-0.9727,-0.902,-0.8984,-0.9077,-0.8604,-0.8703,-0.8679,0.0,0.0,0.0,0.0,0.0,0.0,0.0,0.0,0.0,0.0,0.0,0.0,0.0,0.0,0.0,0.0,0.0,0.0,0.0,0.0,0.0,-0.9522,-0.9661,-0.9927,-1.0455,-1.0256,-1.0193,-1.006,-0.9927,-0.9458,-0.872,-0.8653,-0.8653,-0.872,-0.8653,-0.8653,-0.872,-0.8653,-0.8587,-0.8454,-0.7791,-0.7526,-0.7459,-0.6788,-0.652,-0.6453,-0.6182,-0.625,-0.6453,-0.6115,-0.625,-0.6453,-0.6115,-0.5781,-0.5314,-0.5042,-0.4641,-0.4239,-0.3971,-0.4105,-0.4172,-0.3768,-0.3431,-0.3095,-0.276,-0.2425,-0.2222,-0.2222,-0.2222,-0.2222,-0.2222,-0.2222,-0.2222,-0.2222,-0.1885,-0.1616,-0.1616,-0.1414,-0.1212,-0.1212,-0.1212,-0.1077,-0.0808,-0.06,-0.0199,0.0464,0.0458,0.065,0.1237,0.1368,0.1303,0.1042,0.1646,0.1845,0.1499,0.191,0.2108,0.1955,0.2078,0.2074,0.2009,0.2067,0.2067,-0.9485,-0.979,-1.0119,-0.9355,-0.921,-0.9074,-0.8515,-0.8659,-0.8717,-0.8139,0.0,0.0,0.0,0.0,0.0,0.0,0.0,0.0,0.0,0.0,0.0,0.0,0.0,0.0,0.0,0.0,0.0,0.0,0.0,0.0,-0.9117,-0.9525,-0.9731,-0.9794,-1.006,-1.006,-0.9728,-0.9994,-0.9788,-0.905,-0.872,-0.8787,-0.905,-0.872,-0.8787,-0.905,-0.872,-0.8456,-0.8125,-0.766,-0.7526,-0.7459,-0.6788,-0.652,-0.652,-0.6453,-0.6453,-0.652,-0.6453,-0.6453,-0.652,-0.6453,-0.5984,-0.5381,-0.5381,-0.4844,-0.4308,-0.4239,-0.4308,-0.4105,-0.3431,-0.3228,-0.3095,-0.276,-0.2425,-0.2222,-0.2222,-0.2222,-0.2222,-0.2222,-0.2222,-0.2222,-0.2222,-0.1885,-0.1616,-0.1616,-0.1548,-0.1548,-0.1548,-0.1548,-0.1548,-0.1548,-0.0941,-0.0202,0.0471,0.0199,0.0199,0.0536,0.094,0.1141,0.1074,0.1411,0.1613,0.161,0.2016,0.2016,0.161,0.1921,0.1908,0.1645,0.1947,0.1949,-0.9553,-0.975,-0.9938,-0.9171,-0.9074,-0.9072,-0.8751,-0.8629,-0.8479,-0.8204,-0.8141,0.0,0.0,0.0,0.0,0.0,0.0,0.0,0.0,0.0,0.0,0.0,0.0,0.0,0.0,0.0,0.0,0.0,0.0,0.0,-0.9452,-0.9594,-0.9794,-0.9994,-1.0123,-1.0256,-1.0326,-1.0256,-1.0057,-0.9788,-0.9458,-0.9189,-0.9117,-0.8984,-0.8853,-0.8784,-0.8653,-0.852,-0.839,-0.7992,-0.7858,-0.7791,-0.7323,-0.6989,-0.6786,-0.6786,-0.6652,-0.652,-0.652,-0.652,-0.652,-0.652,-0.6116,-0.5647,-0.5448,-0.5044,-0.4574,-0.4374,-0.4308,-0.4239,-0.3969,-0.3701,-0.3498,-0.3095,-0.276,-0.2425,-0.2222,-0.2222,-0.2222,-0.2222,-0.2222,-0.2222,-0.2222,-0.2087,-0.1953,-0.1953,-0.1953,-0.1953,-0.1953,-0.1953,-0.1885,-0.1616,-0.0942,-0.0404,-0.0135,-0.0067,0.0067,0.0202,0.0538,0.0606,0.0404,0.101,0.1144,0.0942,0.1279,0.1414,0.1279,0.1406,0.1403,0.1269,0.1394,0.1395,-0.9625,-0.9791,-0.9881,-0.9126,-0.8996,-0.8985,-0.8897,-0.8642,-0.837,-0.8156,-0.7962,-0.7924,-0.8278,0.0,0.0,0.0,0.0,0.0,0.0,0.0,0.0,0.0,0.0,0.0,0.0,0.0,0.0,0.0,0.0,0.0,0.0,-0.9795,-0.9927,-1.0122,-1.0122,-1.0277,-1.0522,-1.0389,-1.0389,-1.0389,-1.0123,-0.9791,-0.9452,-0.9319,-0.9189,-0.8923,-0.8787,-0.872,-0.8587,-0.8256,-0.8058,-0.7925,-0.7724,-0.7388,-0.6985,-0.6985,-0.6786,-0.652,-0.652,-0.652,-0.652,-0.652,-0.625,-0.5845,-0.5513,-0.5111,-0.4774,-0.4507,-0.4441,-0.4441,-0.4441,-0.4104,-0.3701,-0.3295,-0.2961,-0.2627,-0.2289,-0.2222,-0.2222,-0.2222,-0.2222,-0.2222,-0.2222,-0.223,-0.2169,-0.2169,-0.2177,-0.218,-0.217,-0.2169,-0.203,-0.1617,-0.1144,-0.074,-0.0538,-0.0269,-0.0135,0.0,0.0202,0.0269,0.0,0.0606,0.0808,0.0538,0.0875,0.101,0.0942,0.101,0.101,0.0942,0.101,0.101,-0.9629,-0.9869,-1.0069,-0.9149,-0.8891,-0.8915,-0.8915,-0.8613,-0.8305,-0.7933,-0.7596,-0.7397,-0.7641,0.0,0.0,0.0,0.0,0.0,0.0,0.0,0.0,0.0,0.0,0.0,0.0,0.0,0.0,0.0,0.0,0.0,0.0,-0.9974,-0.9974,-0.9974,-0.9974,-1.0045,-1.019,-1.0522,-1.0721,-1.0721,-1.0721,-1.0522,-1.019,-0.9861,-0.9728,-0.9661,-0.9253,-0.8917,-0.8587,-0.8256,-0.7858,-0.7526,-0.7925,-0.7655,-0.6985,-0.6985,-0.6786,-0.652,-0.652,-0.652,-0.652,-0.652,-0.625,-0.5845,-0.5513,-0.5111,-0.4772,-0.4772,-0.4772,-0.4772,-0.4772,-0.4304,-0.3701,-0.3295,-0.2961,-0.2627,-0.2289,-0.2222,-0.2222,-0.2222,-0.2222,-0.2222,-0.2223,-0.218,-0.22,-0.22,-0.2226,-0.2234,-0.2204,-0.22,-0.2051,-0.1618,-0.1616,-0.1279,-0.0606,-0.0538,-0.0337,0.0,0.0,0.0,0.0,0.0337,0.0471,0.0471,0.0875,0.0875,0.0471,0.0875,0.0875,0.0538,0.0875,0.0875,-0.9806,-0.9876,0.0,-0.9412,0.0,0.0,0.0,-0.8305,0.0,0.0,-0.7236,-0.7215,-0.71,0.0,0.0,0.0,0.0,0.0,0.0,0.0,0.0,0.0,0.0,0.0,0.0,0.0,0.0,0.0,0.0,0.0,0.0,-1.0234,-1.0234,-1.0039,-1.0234,-1.0434,-1.0518,-1.0654,-1.0721,-1.0721,-1.0721,-1.0522,-1.0193,-1.0127,-0.9791,-0.9253,-0.9183,-0.8917,-0.8587,-0.852,-0.8256,-0.7925,-0.8323,-0.7853,-0.7051,-0.7257,-0.6989,-0.652,-0.652,-0.652,-0.652,-0.652,-0.6386,-0.6183,-0.5582,-0.5314,-0.5178,-0.4908,-0.464,-0.4507,-0.4707,-0.4507,-0.4038,-0.3701,-0.3297,-0.2961,-0.2626,-0.2357,-0.2222,-0.2222,-0.2222,-0.2229,-0.2183,-0.2176,-0.2183,-0.2226,-0.2203,-0.2178,-0.217,-0.2168,-0.2165,-0.2021,-0.175,-0.1481,-0.1279,-0.1077,-0.0875,-0.0808,-0.074,-0.0538,0.0,0.0067,0.0135,0.0135,0.0269,0.0269,0.0135,0.0269,0.0269,0.0135,0.0269,0.0269,-1.0114,-1.0019,0.0,-0.9387,-0.9163,-0.8871,-0.8407,0.0,0.0,0.0,0.0,-0.6856,-0.6918,0.0,0.0,0.0,0.0,0.0,0.0,0.0,0.0,0.0,0.0,0.0,0.0,0.0,0.0,0.0,0.0,0.0,0.0,-0.9998,-1.0152,-1.0148,-1.0344,-1.051,-1.0717,-1.0721,-1.0721,-1.0721,-1.0721,-1.0588,-1.0389,-1.0389,-0.9987,-0.9319,-0.9053,-0.8784,-0.8587,-0.8587,-0.8454,-0.8323,-0.8523,-0.8053,-0.7254,-0.7457,-0.7056,-0.652,-0.652,-0.652,-0.652,-0.652,-0.652,-0.6386,-0.5649,-0.5513,-0.5513,-0.5176,-0.4977,-0.4977,-0.5042,-0.491,-0.4575,-0.3969,-0.3632,-0.3296,-0.2828,-0.2559,-0.2357,-0.2222,-0.2222,-0.2232,-0.2195,-0.2185,-0.2189,-0.2168,-0.2204,-0.2173,-0.2173,-0.223,-0.2222,-0.2222,-0.1953,-0.175,-0.1616,-0.1414,-0.1212,-0.1077,-0.1077,-0.0875,-0.0471,-0.0404,-0.0337,-0.0202,-0.0202,-0.0135,0.0,0.0,0.0,0.0,0.0,0.0,-1.0315,-1.0109,-0.9825,-0.9298,-0.8992,0.0,-0.7691,-0.7385,-0.7324,-0.7324,0.0,-0.6446,0.0,0.0,0.0,0.0,0.0,0.0,0.0,0.0,0.0,0.0,0.0,0.0,0.0,0.0,0.0,0.0,0.0,0.0,0.0,-0.9568,-0.9824,-1.0213,-1.028,-1.0422,-1.0651,-1.0638,-1.0638,-1.0654,-1.0721,-1.0721,-1.0721,-1.0721,-1.0323,-0.9661,-0.8923,-0.8587,-0.8587,-0.8587,-0.8587,-0.8587,-0.8587,-0.8123,-0.7459,-0.7459,-0.7056,-0.652,-0.652,-0.652,-0.652,-0.652,-0.652,-0.6386,-0.5649,-0.5647,-0.5845,-0.5513,-0.5646,-0.578,-0.5446,-0.5381,-0.5112,-0.4104,-0.3835,-0.3633,-0.2963,-0.2761,-0.2627,-0.2289,-0.2222,-0.2232,-0.2195,-0.2198,-0.2205,-0.2233,-0.2216,-0.2199,-0.2196,-0.2172,-0.2222,-0.2222,-0.2222,-0.202,-0.1683,-0.1683,-0.1548,-0.1212,-0.1212,-0.1212,-0.1212,-0.1144,-0.0942,-0.0538,-0.0471,-0.0337,0.0,0.0,0.0,0.0,0.0,0.0,-1.0209,-0.9946,0.0,0.0,-0.9179,-0.8732,-0.7933,-0.7385,-0.6959,-0.665,-0.6508,0.0,0.0,0.0,0.0,0.0,0.0,0.0,0.0,0.0,0.0,0.0,0.0,0.0,0.0,0.0,0.0,0.0,0.0,0.0,-0.9187,-0.9532,-0.9792,-0.9885,-1.0149,-1.0293,-1.0319,-1.0471,-1.0471,-1.0323,-1.0588,-1.0721,-1.0721,-1.0721,-1.0323,-0.9661,-0.8923,-0.8587,-0.8587,-0.8587,-0.8456,-0.8256,-0.852,-0.7987,-0.7121,-0.739,-0.7056,-0.652,-0.652,-0.652,-0.652,-0.652,-0.652,-0.6386,-0.5914,-0.5845,-0.5912,-0.5847,-0.5647,-0.5513,-0.5448,-0.5178,-0.4774,-0.4307,-0.3971,-0.3768,-0.3566,-0.3097,-0.2694,-0.2627,-0.2357,-0.2232,-0.2195,-0.218,-0.2166,-0.2173,-0.2189,-0.2191,-0.2168,-0.2226,-0.2222,-0.2222,-0.2222,-0.2155,-0.2087,-0.2087,-0.202,-0.1953,-0.1953,-0.1953,-0.1953,-0.1414,-0.0942,-0.0538,-0.0471,-0.0337,0.0,0.0,0.0,0.0,0.0,0.0,-1.0429,-1.0069,0.0,-0.9377,0.0,-0.8302,-0.775,-0.7018,-0.6394,-0.6343,0.0,0.0,0.0,0.0,0.0,0.0,0.0,0.0,0.0,0.0,0.0,0.0,0.0,0.0,0.0,0.0,0.0,0.0,0.0,-0.84,-0.8717,-0.9026,-0.9277,-0.9721,-0.9857,-0.9962,-0.998,-1.0172,-1.0143,-0.9892,-1.0091,-1.022,-1.0156,-1.0161,-0.9924,-0.9389,-0.8853,-0.8587,-0.8587,-0.8587,-0.839,-0.8125,-0.8323,-0.7786,-0.7051,-0.7187,-0.6922,-0.652,-0.652,-0.652,-0.652,-0.652,-0.652,-0.6453,-0.6048,-0.6048,-0.6115,-0.5979,-0.5915,-0.585,-0.5515,-0.5245,-0.4977,-0.4441,-0.4172,-0.3971,-0.3835,-0.3365,-0.2894,-0.2761,-0.2424,-0.2232,-0.2195,-0.2187,-0.2172,-0.2224,-0.2168,-0.2172,-0.2224,-0.2222,-0.2222,-0.2222,-0.2222,-0.2222,-0.2222,-0.2222,-0.2222,-0.2222,-0.2222,-0.2222,-0.2222,-0.1818,-0.1414,-0.101,-0.101,-0.0875,-0.0538,-0.0538,-0.0538,-0.0538,-0.0337,-0.0269,-1.0595,-1.0195,-0.9792,-0.907,-0.8424,0.0,-0.7447,-0.6639,-0.6054,0.0,0.0,0.0,0.0,0.0,0.0,0.0,0.0,0.0,0.0,0.0,0.0,0.0,0.0,0.0,0.0,0.0,0.0,0.0,0.0,-0.8119,-0.8369,-0.8512,-0.8881,-0.9492,-0.9577,-0.9645,-0.9631,-0.9838,-0.9714,-0.9394,-0.9572,-0.962,-0.9491,-0.9539,-0.9402,-0.9019,-0.8712,-0.8587,-0.8587,-0.8587,-0.8456,-0.8189,-0.8125,-0.7655,-0.7051,-0.7051,-0.6786,-0.652,-0.652,-0.652,-0.652,-0.652,-0.652,-0.6453,-0.6115,-0.625,-0.6453,-0.6115,-0.625,-0.6319,-0.5582,-0.5381,-0.5247,-0.4508,-0.4308,-0.4239,-0.3969,-0.3565,-0.3229,-0.2828,-0.2491,-0.223,-0.2188,-0.2192,-0.2184,-0.2226,-0.2222,-0.2222,-0.2222,-0.2222,-0.2222,-0.2222,-0.2222,-0.2222,-0.2222,-0.2222,-0.2222,-0.2222,-0.2222,-0.2222,-0.2222,-0.2222,-0.202,-0.1683,-0.1616,-0.1414,-0.1077,-0.1077,-0.1077,-0.1077,-0.074,-0.0606,-1.0475,0.0,-0.9677,0.0,-0.8604,-0.8113,0.0,0.0,-0.6213,0.0,0.0,0.0,0.0,0.0,0.0,0.0,0.0,0.0,0.0,0.0,0.0,0.0,0.0,0.0,0.0,0.0,0.0,0.0,-0.8183,-0.8369,-0.8369,-0.9029,-0.9349,-0.9184,-0.9482,-0.9421,-0.8933,-0.9321,-0.9326,-0.9003,-0.9347,-0.9478,-0.9343,-0.9041,-0.8922,-0.8901,-0.8676,-0.8587,-0.8587,-0.8587,-0.8587,-0.852,-0.8192,-0.7858,-0.739,-0.7121,-0.6786,-0.652,-0.652,-0.652,-0.652,-0.652,-0.652,-0.652,-0.6453,-0.6453,-0.652,-0.6453,-0.6453,-0.6319,-0.5582,-0.5381,-0.5247,-0.4508,-0.4308,-0.4308,-0.4239,-0.3969,-0.3632,-0.3229,-0.2625,-0.2223,-0.2228,-0.2228,-0.2227,-0.2223,-0.2222,-0.2222,-0.2222,-0.2222,-0.2222,-0.2222,-0.2222,-0.2222,-0.2222,-0.2222,-0.2222,-0.2222,-0.2222,-0.2222,-0.2222,-0.2222,-0.2155,-0.2155,-0.175,-0.1414,-0.1077,-0.1077,-0.1077,-0.1077,-0.1077,-0.101,-1.0246,-0.9707,-0.9296,0.0,-0.8241,-0.7691,-0.7021,0.0,0.0,0.0,0.0,0.0,0.0,0.0,0.0,0.0,0.0,0.0,0.0,0.0,0.0,0.0,0.0,0.0,0.0,0.0,0.0,0.0,-0.8058,-0.8119,-0.8119,-0.8477,-0.8697,-0.87,-0.906,-0.9153,-0.8842,-0.9226,-0.9331,-0.9086,-0.9231,-0.9154,-0.889,-0.9038,-0.9074,-0.8873,-0.8601,-0.8527,-0.8587,-0.8587,-0.852,-0.8256,-0.7925,-0.7524,-0.7187,-0.6853,-0.6652,-0.652,-0.652,-0.652,-0.652,-0.652,-0.652,-0.652,-0.652,-0.652,-0.652,-0.652,-0.652,-0.6319,-0.5582,-0.5381,-0.5247,-0.4508,-0.4308,-0.4308,-0.4308,-0.4038,-0.3633,-0.3028,-0.2693,-0.2424,-0.2222,-0.2222,-0.2222,-0.2222,-0.2222,-0.2222,-0.2222,-0.217,-0.218,-0.218,-0.2196,-0.2206,-0.2206,-0.2206,-0.2198,-0.2181,-0.218,-0.2172,-0.2223,-0.2222,-0.2222,-0.2222,-0.202,-0.1885,-0.1683,-0.1683,-0.1683,-0.1683,-0.1481,-0.1279,0.0,0.0,-0.9208,-0.8597,-0.8036,-0.7508,0.0,0.0,0.0,0.0,0.0,0.0,0.0,0.0,0.0,0.0,0.0,0.0,0.0,0.0,0.0,0.0,0.0,0.0,0.0,0.0,0.0,0.0,-0.795,-0.7947,-0.7947,-0.816,-0.8285,-0.8323,-0.8747,-0.8891,-0.8796,-0.9175,-0.9293,-0.9139,-0.9048,-0.8854,-0.8619,-0.9038,-0.908,-0.8824,-0.8598,-0.853,-0.8546,-0.8576,-0.839,-0.8058,-0.7658,-0.7323,-0.6985,-0.6654,-0.652,-0.652,-0.652,-0.652,-0.652,-0.652,-0.652,-0.652,-0.652,-0.652,-0.652,-0.652,-0.652,-0.6319,-0.5582,-0.5367,-0.5223,-0.4438,-0.4296,-0.4289,-0.4304,-0.4038,-0.3633,-0.3097,-0.2828,-0.2627,-0.2357,-0.2289,-0.2225,-0.2232,-0.2166,-0.2169,-0.2176,-0.2198,-0.2211,-0.2211,-0.2232,-0.2175,-0.2175,-0.2175,-0.2166,-0.2213,-0.2211,-0.2202,-0.2178,-0.2178,-0.2174,-0.2166,-0.2166,-0.223,-0.2222,-0.2222,-0.2222,-0.2222,-0.1885,-0.1616,0.0,-1.0196,0.0,-0.8835,-0.8449,0.0,0.0,0.0,0.0,0.0,0.0,0.0,0.0,0.0,0.0,0.0,0.0,0.0,0.0,0.0,0.0,0.0,0.0,0.0,0.0,0.0,0.0,0.0,-0.8008,-0.8184,-0.8184,-0.8842,-0.8914,-0.825,-0.8728,-0.88,-0.8433,-0.8806,-0.9,-0.9006,-0.8825,-0.8816,-0.9,-0.8886,-0.8817,-0.8695,-0.8818,-0.8682,-0.8435,-0.8543,-0.839,-0.8058,-0.7658,-0.7323,-0.6985,-0.6654,-0.652,-0.652,-0.652,-0.652,-0.652,-0.652,-0.652,-0.652,-0.652,-0.652,-0.652,-0.652,-0.652,-0.6319,-0.5582,-0.5328,-0.5159,-0.4427,-0.4263,-0.4237,-0.4294,-0.4038,-0.3768,-0.3768,-0.3164,-0.2694,-0.2694,-0.2424,-0.2232,-0.2193,-0.2198,-0.2208,-0.2167,-0.2172,-0.2173,-0.2173,-0.2174,-0.2175,-0.2175,-0.2175,-0.2174,-0.2173,-0.2173,-0.2172,-0.2171,-0.2171,-0.2227,-0.2198,-0.2198,-0.2184,-0.2222,-0.2222,-0.2222,-0.2222,-0.2155,-0.2155,0.0,0.0,0.0,-0.9015,-0.8384,-0.784,0.0,0.0,0.0,0.0,0.0,0.0,0.0,0.0,0.0,0.0,0.0,0.0,0.0,0.0,0.0,0.0,0.0,0.0,0.0,0.0,0.0,0.0,0.0,-0.7794,-0.7874,-0.8159,-0.8199,-0.7991,-0.8386,-0.8719,-0.8976,-0.9236,-0.9305,-0.9309,-0.8959,-0.8799,-0.8805,-0.8976,-0.8805,-0.8428,-0.8855,-0.886,-0.8426,-0.8541,-0.839,-0.8058,-0.7658,-0.7323,-0.6985,-0.6654,-0.652,-0.652,-0.652,-0.652,-0.652,-0.652,-0.652,-0.652,-0.652,-0.652,-0.652,-0.652,-0.6317,-0.5982,-0.5513,-0.5158,-0.4878,-0.4435,-0.429,-0.4281,-0.4303,-0.4172,-0.4038,-0.3835,-0.3566,-0.324,-0.2794,-0.2593,-0.2468,-0.2224,-0.2229,-0.2233,-0.2174,-0.2262,-0.2275,-0.2275,-0.2291,-0.2229,-0.2229,-0.2229,-0.2294,-0.2276,-0.2275,-0.2266,-0.2176,-0.2175,-0.217,-0.223,-0.221,-0.2185,-0.2222,-0.2222,-0.2222,-0.2222,-0.2222,-0.2087,-1.1037,0.0,0.0,0.0,0.0,-0.8199,-0.7856,0.0,0.0,0.0,0.0,0.0,0.0,0.0,0.0,0.0,0.0,0.0,0.0,0.0,0.0,0.0,0.0,0.0,0.0,0.0,0.0,0.0,0.0,0.0,-0.7635,-0.7798,-0.7913,-0.7991,-0.8242,-0.8627,-0.9156,-0.9374,-0.9506,-0.9679,-0.9343,-0.9144,-0.906,-0.9233,-0.8951,-0.8303,-0.8895,-0.8857,-0.8426,-0.8541,-0.839,-0.8058,-0.7658,-0.7323,-0.6985,-0.6654,-0.6587,-0.6654,-0.652,-0.6587,-0.6654,-0.652,-0.652,-0.652,-0.652,-0.652,-0.652,-0.652,-0.6183,-0.5847,-0.5513,-0.5044,-0.4568,-0.4348,-0.4293,-0.4313,-0.4334,-0.4322,-0.4246,-0.4062,-0.3931,-0.3676,-0.3176,-0.2906,-0.2642,-0.2466,-0.2331,-0.2264,-0.2202,-0.2292,-0.2305,-0.2305,-0.2322,-0.2333,-0.2333,-0.2333,-0.2324,-0.2306,-0.2305,-0.2296,-0.2204,-0.2346,-0.2412,-0.2401,-0.259,-0.263,-0.2594,-0.2435,-0.243,-0.2575,-0.2563,-0.2356,0.0,0.0,0.0,0.0,0.0,0.0,-0.7931,0.0,-0.7736,0.0,0.0,0.0,0.0,0.0,0.0,0.0,0.0,0.0,0.0,0.0,0.0,0.0,0.0,0.0,0.0,0.0,0.0,0.0,-0.7442,-0.751,-0.7519,-0.7926,-0.817,-0.817,-0.8173,-0.8414,-0.8909,-0.9153,-0.9532,-0.999,-0.9753,-0.9691,-0.9634,-0.9518,-0.9114,-0.8509,-0.8758,-0.8677,-0.8432,-0.8543,-0.839,-0.8058,-0.766,-0.7323,-0.6985,-0.6654,-0.6719,-0.6985,-0.6652,-0.6719,-0.6918,-0.6587,-0.652,-0.652,-0.652,-0.652,-0.652,-0.6453,-0.6183,-0.578,-0.5448,-0.4844,-0.4293,-0.4233,-0.4266,-0.4326,-0.4386,-0.4353,-0.433,-0.439,-0.4125,-0.3936,-0.3919,-0.3296,-0.2817,-0.2927,-0.2577,-0.2302,-0.2329,-0.2333,-0.2333,-0.2333,-0.2333,-0.2333,-0.2333,-0.2333,-0.2333,-0.2333,-0.2333,-0.2333,-0.2333,-0.2698,-0.2899,-0.2933,-0.329,-0.3483,-0.3438,-0.2938,-0.2919,-0.3298,-0.3252,-0.303,-1.2201,0.0,0.0,0.0,0.0,0.0,-0.9007,-0.8399,-0.8061,0.0,0.0,0.0,0.0,0.0,0.0,0.0,0.0,0.0,0.0,0.0,0.0,0.0,0.0,0.0,0.0,0.0,0.0,0.0,-0.7285,-0.7331,-0.7508,-0.761,-0.7685,-0.7685,-0.8008,-0.8369,-0.8765,-0.9105,-0.9287,-0.9305,-0.9314,-0.9057,-0.8617,-0.8843,-0.8744,-0.8444,-0.8679,-0.8705,-0.8543,-0.8573,-0.839,-0.8058,-0.7992,-0.7522,-0.6985,-0.719,-0.7123,-0.6985,-0.6918,-0.692,-0.6918,-0.6587,-0.652,-0.652,-0.652,-0.652,-0.6453,-0.6115,-0.578,-0.5379,-0.4777,-0.4442,-0.4304,-0.4286,-0.433,-0.4377,-0.4395,-0.4417,-0.4439,-0.4455,-0.439,-0.4269,-0.4045,-0.377,-0.3501,-0.2967,-0.2829,-0.2615,-0.2332,-0.2333,-0.2333,-0.2333,-0.2552,-0.2698,-0.2698,-0.299,-0.3136,-0.3136,-0.3136,-0.3136,-0.3136,-0.3281,-0.3349,-0.3338,-0.345,-0.3657,-0.3892,-0.3441,-0.3265,-0.3345,-0.3026,-0.287,0.0,0.0,0.0,0.0,0.0,0.0,-0.9774,-0.9262,-0.8964,0.0,0.0,0.0,0.0,0.0,0.0,0.0,0.0,0.0,0.0,0.0,0.0,0.0,0.0,0.0,0.0,-0.6868,-0.7038,-0.7271,-0.7317,-0.7347,-0.7437,-0.7442,-0.7442,-0.7442,-0.7685,-0.8066,-0.8471,-0.8729,-0.8928,-0.9062,-0.9129,-0.8977,-0.8603,-0.8664,-0.8577,-0.8453,-0.8497,-0.8469,-0.8522,-0.8568,-0.839,-0.8058,-0.7925,-0.7591,-0.7187,-0.7257,-0.7388,-0.7386,-0.7118,-0.7118,-0.7121,-0.6654,-0.652,-0.652,-0.652,-0.652,-0.6386,-0.5981,-0.5512,-0.5044,-0.4441,-0.4308,-0.4313,-0.4339,-0.4372,-0.4412,-0.4461,-0.4638,-0.4804,-0.4804,-0.4662,-0.4541,-0.4532,-0.4253,-0.3902,-0.3495,-0.328,-0.3063,-0.2843,-0.277,-0.2765,-0.275,-0.2979,-0.3128,-0.3112,-0.3344,-0.3501,-0.3501,-0.3501,-0.3501,-0.3501,-0.3646,-0.3718,-0.3718,-0.3907,-0.4124,-0.4371,-0.3835,-0.3715,-0.3853,-0.3478,-0.3258,0.0,0.0,0.0,0.0,0.0,0.0,-1.0415,-1.0235,-1.021,-0.9804,0.0,0.0,0.0,0.0,0.0,0.0,0.0,0.0,0.0,0.0,0.0,0.0,0.0,0.0,-0.6807,-0.7123,-0.7304,-0.7317,-0.7478,-0.7486,-0.7304,-0.7285,-0.728,-0.728,-0.728,-0.7561,-0.8153,-0.8167,-0.8479,-0.91,-0.9106,-0.9044,-0.9038,-0.875,-0.8571,-0.8452,-0.8265,-0.8323,-0.8446,-0.8546,-0.8456,-0.8123,-0.7791,-0.7593,-0.7526,-0.7254,-0.7522,-0.7925,-0.7254,-0.7254,-0.7323,-0.6721,-0.652,-0.652,-0.652,-0.6453,-0.6317,-0.5914,-0.5309,-0.4707,-0.4374,-0.4312,-0.4331,-0.4386,-0.4409,-0.4447,-0.4551,-0.4938,-0.523,-0.523,-0.5014,-0.4816,-0.5238,-0.4664,-0.4226,-0.4153,-0.379,-0.3573,-0.3501,-0.3497,-0.348,-0.3444,-0.3472,-0.3551,-0.3514,-0.355,-0.3647,-0.3647,-0.3647,-0.3647,-0.3647,-0.4009,-0.4149,-0.4144,-0.4502,-0.4651,-0.4665,-0.4202,-0.4154,-0.4503,-0.4078,-0.3935,0.0,0.0,0.0,0.0,0.0,0.0,-1.1511,-1.1197,-1.0992,0.0,0.0,0.0,0.0,0.0,0.0,0.0,0.0,0.0,0.0,0.0,0.0,0.0,0.0,0.0,-0.7332,-0.7412,-0.7524,-0.7622,-0.7652,-0.7614,-0.7489,-0.7331,-0.728,-0.728,-0.728,-0.7519,-0.8017,-0.8124,-0.8434,-0.8958,-0.9004,-0.8877,-0.8538,-0.8614,-0.8516,-0.827,-0.8329,-0.8448,-0.8557,-0.8579,-0.8587,-0.852,-0.8387,-0.8189,-0.7992,-0.8187,-0.7989,-0.7593,-0.7459,-0.7257,-0.7054,-0.6654,-0.652,-0.652,-0.652,-0.625,-0.5847,-0.5176,-0.4708,-0.4374,-0.4308,-0.4343,-0.4384,-0.4395,-0.447,-0.4545,-0.4568,-0.4901,-0.5301,-0.5589,-0.5588,-0.5592,-0.568,-0.532,-0.4883,-0.4591,-0.4226,-0.3863,-0.3573,-0.3469,-0.3457,-0.3485,-0.3751,-0.389,-0.399,-0.4293,-0.4447,-0.4447,-0.4447,-0.4447,-0.4447,-0.4518,-0.4568,-0.452,-0.4542,-0.4567,-0.4665,-0.4568,-0.4557,-0.4628,-0.4224,-0.3991,0.0,0.0,0.0,-1.4283,0.0,0.0,0.0,-1.2252,-1.1991,-1.169,-1.1286,0.0,0.0,0.0,0.0,0.0,0.0,0.0,0.0,0.0,0.0,0.0,0.0,0.0,-0.7982,-0.7923,-0.781,-0.7695,-0.7701,-0.7649,-0.7527,-0.7402,-0.728,-0.728,-0.7277,-0.7388,-0.7749,-0.7814,-0.8056,-0.8424,-0.8427,-0.84,-0.8279,-0.8276,-0.8278,-0.8326,-0.8326,-0.8426,-0.8587,-0.8587,-0.8587,-0.8587,-0.839,-0.8256,-0.8125,-0.8256,-0.8123,-0.7791,-0.7593,-0.7257,-0.6918,-0.6587,-0.652,-0.652,-0.652,-0.6116,-0.558,-0.5178,-0.471,-0.4308,-0.4308,-0.4353,-0.4405,-0.4433,-0.4508,-0.4653,-0.4829,-0.5224,-0.561,-0.6047,-0.6263,-0.6335,-0.6119,-0.5756,-0.5392,-0.5029,-0.4784,-0.4475,-0.4115,-0.4019,-0.4003,-0.4003,-0.4147,-0.429,-0.4287,-0.4501,-0.4587,-0.4617,-0.4619,-0.4632,-0.4662,-0.4665,-0.4635,-0.4575,-0.4514,-0.4512,-0.4574,-0.4574,-0.4518,-0.4332,-0.409,-0.4006,0.0,0.0,0.0,0.0,0.0,-1.4331,0.0,0.0,0.0,-1.2663,-1.2256,0.0,0.0,0.0,0.0,0.0,0.0,0.0,0.0,0.0,0.0,0.0,0.0,0.0,-0.8577,-0.8447,-0.8213,-0.7856,-0.7856,-0.7752,-0.7592,-0.7472,-0.735,-0.735,-0.7344,-0.7445,-0.761,-0.7671,-0.7898,-0.8177,-0.8116,-0.817,-0.8268,-0.8088,-0.8166,-0.838,-0.8326,-0.841,-0.8587,-0.8587,-0.8587,-0.8587,-0.8323,-0.8189,-0.8189,-0.8125,-0.8058,-0.7925,-0.7524,-0.719,-0.6853,-0.6587,-0.652,-0.6453,-0.6386,-0.5984,-0.5446,-0.5314,-0.4844,-0.4377,-0.4322,-0.4369,-0.4429,-0.4486,-0.4617,-0.482,-0.5164,-0.561,-0.5974,-0.6266,-0.6629,-0.6773,-0.6557,-0.6192,-0.5756,-0.5394,-0.5273,-0.509,-0.4646,-0.4563,-0.4537,-0.4488,-0.4516,-0.4525,-0.4486,-0.4482,-0.4503,-0.4553,-0.4556,-0.4583,-0.4645,-0.4647,-0.4619,-0.4557,-0.4497,-0.4471,-0.4482,-0.4471,-0.4288,-0.3991,-0.4072,-0.4078,0.0,0.0,0.0,0.0,-1.5933,0.0,0.0,0.0,-1.3964,-1.3622,0.0,0.0,0.0,0.0,0.0,0.0,0.0,0.0,0.0,0.0,0.0,0.0,0.0,0.0,0.0,-0.8821,-0.8711,-0.8349,-0.8349,-0.8158,-0.7892,-0.7722,-0.766,-0.766,-0.783,-0.795,-0.8093,-0.8388,-0.8762,-0.9153,-0.8912,-0.8799,-0.8824,-0.8666,-0.8469,-0.8266,-0.8462,-0.8562,-0.8587,-0.8587,-0.8587,-0.8587,-0.8587,-0.852,-0.8523,-0.8189,-0.7858,-0.7526,-0.7187,-0.6853,-0.652,-0.652,-0.652,-0.6453,-0.6048,-0.5914,-0.5711,-0.5041,-0.4841,-0.472,-0.4442,-0.4429,-0.4488,-0.4549,-0.4898,-0.5167,-0.5174,-0.583,-0.6266,-0.5899,-0.6192,-0.6557,-0.6845,-0.6629,-0.6194,-0.5827,-0.5459,-0.507,-0.4652,-0.4526,-0.4491,-0.4484,-0.4444,-0.4436,-0.4478,-0.4482,-0.4485,-0.4492,-0.4493,-0.4521,-0.458,-0.4583,-0.4555,-0.4493,-0.4437,-0.4433,-0.4482,-0.4432,-0.4231,-0.3936,-0.4336,-0.4361,0.0,0.0,0.0,0.0,0.0,0.0,-1.5838,0.0,-1.4869,0.0,0.0,0.0,0.0,0.0,0.0,0.0,-1.2233,0.0,0.0,0.0,0.0,0.0,0.0,0.0,0.0,0.0,0.0,-0.8447,-0.8203,-0.8056,-0.8007,-0.7785,-0.7701,-0.7701,-0.7699,-0.7752,-0.7937,-0.8235,-0.8417,-0.8482,-0.8549,-0.8567,-0.846,-0.8366,-0.837,-0.844,-0.8475,-0.8527,-0.8587,-0.8587,-0.8587,-0.8587,-0.8587,-0.8587,-0.8587,-0.8192,-0.7858,-0.7459,-0.7121,-0.6786,-0.652,-0.652,-0.652,-0.6453,-0.6317,-0.6115,-0.5778,-0.531,-0.5005,-0.4771,-0.446,-0.4466,-0.4613,-0.4853,-0.491,-0.5029,-0.5465,-0.5612,-0.5758,-0.5754,-0.5899,-0.6119,-0.6263,-0.619,-0.5901,-0.5538,-0.5287,-0.5021,-0.4599,-0.4499,-0.447,-0.4437,-0.4413,-0.4409,-0.4431,-0.4401,-0.4397,-0.4431,-0.4465,-0.451,-0.4571,-0.4366,-0.428,-0.4534,-0.4202,-0.4169,-0.4433,-0.4375,-0.4017,-0.3493,-0.3989,-0.4029,-1.9354,0.0,0.0,0.0,0.0,0.0,0.0,0.0,0.0,0.0,0.0,0.0,0.0,0.0,0.0,0.0,0.0,-1.2562,0.0,0.0,0.0,0.0,0.0,0.0,0.0,0.0,-0.9221,-0.8567,-0.8299,-0.8116,-0.8105,-0.7937,-0.7774,-0.7747,-0.7722,-0.7838,-0.805,-0.8348,-0.8452,-0.8299,-0.8427,-0.8464,-0.8262,-0.8177,-0.8247,-0.8489,-0.8473,-0.8511,-0.8587,-0.8587,-0.8568,-0.8541,-0.8541,-0.8474,-0.8411,-0.8179,-0.7791,-0.7323,-0.7051,-0.6786,-0.652,-0.652,-0.652,-0.652,-0.652,-0.6317,-0.5981,-0.5647,-0.5298,-0.5017,-0.4624,-0.4568,-0.4649,-0.4955,-0.4923,-0.4956,-0.5538,-0.5465,-0.5392,-0.5609,-0.561,-0.561,-0.5536,-0.5682,-0.5682,-0.5248,-0.5192,-0.5052,-0.4561,-0.4469,-0.4507,-0.4515,-0.4442,-0.4442,-0.4508,-0.44,-0.4326,-0.4371,-0.4442,-0.4495,-0.4525,-0.4265,-0.4261,-0.4525,-0.4206,-0.4088,-0.4373,-0.4361,-0.4007,-0.3385,-0.3882,-0.3855,0.0,0.0,0.0,-1.9324,0.0,0.0,0.0,0.0,-1.6518,0.0,0.0,0.0,0.0,0.0,0.0,0.0,0.0,0.0,0.0,0.0,0.0,0.0,0.0,0.0,0.0,-0.9642,-0.9389,-0.8907,-0.873,-0.8484,-0.8099,-0.8113,-0.8047,-0.7922,-0.8233,-0.8541,-0.8848,-0.915,-0.9271,-0.9275,-0.8973,-0.8738,-0.8389,-0.8251,-0.8172,-0.8258,-0.8484,-0.8584,-0.8587,-0.8587,-0.8522,-0.8424,-0.8424,-0.8225,-0.7905,-0.8084,-0.7655,-0.6985,-0.6985,-0.6786,-0.652,-0.652,-0.652,-0.652,-0.652,-0.652,-0.6386,-0.5981,-0.5705,-0.5373,-0.5094,-0.481,-0.4589,-0.472,-0.4955,-0.5176,-0.5248,-0.5538,-0.5682,-0.5321,-0.5248,-0.5103,-0.481,-0.5318,-0.5682,-0.5248,-0.5192,-0.5052,-0.4561,-0.4435,-0.4513,-0.4783,-0.451,-0.4444,-0.4777,-0.4508,-0.4308,-0.4311,-0.4418,-0.4459,-0.4406,-0.451,-0.4516,-0.4406,-0.4451,-0.4422,-0.4311,-0.4422,-0.431,-0.3915,-0.4315,-0.4064,0.0,0.0,-2.0403,-1.9931,0.0,0.0,0.0,0.0,0.0,0.0,0.0,0.0,0.0,0.0,0.0,0.0,0.0,0.0,0.0,0.0,0.0,0.0,0.0,0.0,0.0,0.0,0.0,-0.9096,-0.87,-0.8514,-0.8623,-0.8207,-0.8074,-0.8241,-0.8119,-0.8241,-0.8552,-0.8671,-0.8732,-0.8732,-0.8613,-0.8412,-0.8183,-0.8141,-0.8204,-0.8361,-0.844,-0.8519,-0.8581,-0.8508,-0.8454,-0.841,-0.8329,-0.7954,-0.75,-0.7537,-0.7329,-0.6985,-0.6719,-0.6587,-0.6453,-0.6183,-0.625,-0.6453,-0.6183,-0.6317,-0.6466,-0.6116,-0.5987,-0.5862,-0.5516,-0.5233,-0.5073,-0.5385,-0.5174,-0.4956,-0.5176,-0.5101,-0.5027,-0.4883,-0.4883,-0.481,-0.4738,-0.4882,-0.5027,-0.4883,-0.4829,-0.4765,-0.4561,-0.4433,-0.4443,-0.4447,-0.4411,-0.4419,-0.4444,-0.4374,-0.4308,-0.4308,-0.4345,-0.4392,-0.4451,-0.4209,-0.4226,-0.4512,-0.4247,-0.4218,-0.4422,-0.4425,-0.4228,-0.39,-0.4335,-0.4223,-2.1623,-2.1326,0.0,-2.0498,-1.999,0.0,-1.9049,0.0,0.0,0.0,0.0,0.0,0.0,0.0,0.0,0.0,0.0,0.0,0.0,-1.1817,0.0,0.0,0.0,0.0,0.0,0.0,-0.9743,-0.9269,-0.8821,-0.861,0.0,-0.8358,-0.8193,-0.8241,-0.8119,-0.8183,-0.8369,-0.8369,-0.8369,-0.8369,-0.8369,-0.8287,-0.8054,-0.8097,-0.8163,-0.8356,-0.8399,-0.8459,-0.8522,-0.8448,-0.8367,-0.828,-0.8201,-0.7768,-0.7198,-0.7401,-0.7299,-0.6985,-0.6587,-0.652,-0.6453,-0.6183,-0.6317,-0.6453,-0.6183,-0.6317,-0.6472,-0.6289,-0.6168,-0.6041,-0.5978,-0.5556,-0.5248,-0.5538,-0.5101,-0.4738,-0.4957,-0.4883,-0.4665,-0.4665,-0.4665,-0.4665,-0.4665,-0.4665,-0.4657,-0.4635,-0.458,-0.4519,-0.4461,-0.4402,-0.4426,-0.4476,-0.4443,-0.4391,-0.4371,-0.4369,-0.4361,-0.4341,-0.4358,-0.4395,-0.445,-0.4174,-0.4196,-0.4538,-0.4257,-0.4238,-0.4482,-0.4489,-0.4361,-0.4165,-0.4467,-0.4427]},{"header":{"parameterUnit":"m.s-1","parameterCategory":1,"la1":30.6,"la2":29.2853,"lo1":-89.7004,"lo2":-87.6739,"dy":0.0162,"dx":0.0183,"nx":112,"ny":82,"refTime":"2023-10-24T06:00:00:Z","depth":0,"parameterNumber":3,"parameterNumberName":"V-component_of_WINDS"},"data":[0.0,0.0,0.0,0.0,0.0,0.0,0.0,0.0,0.0,0.0,0.0,0.0,0.0,0.0,0.0,0.0,0.0,0.0,0.0,0.0,0.0,0.0,0.0,0.0,0.0,0.0,0.0,0.0,0.0,0.0,0.0,0.0,0.0,0.0,0.0,0.0,0.0,0.0,0.0,0.0,0.0,0.0,0.0,0.0,0.0,0.0,0.0,0.0,0.0,0.0,0.0,0.0,0.0,0.0,0.0,0.0,0.0,0.0,0.0,0.0,0.0,0.0,0.0,0.0,0.0,0.0,0.0,0.0,0.0,0.0,0.0,0.0,0.0,0.0,0.0,0.0,0.0,0.0,0.0,0.0,0.0,0.0,0.0,0.0,0.0,0.0,0.0,0.0,0.0,0.0,0.0,3.3876,3.3875,3.3897,3.4026,3.475,3.4934,3.434,0.0,0.0,0.0,0.0,0.0,0.0,0.0,0.0,0.0,0.0,0.0,0.0,0.0,0.0,0.0,0.0,0.0,0.0,0.0,0.0,0.0,0.0,0.0,0.0,0.0,0.0,0.0,0.0,0.0,0.0,0.0,0.0,0.0,0.0,0.0,0.0,0.0,0.0,0.0,0.0,0.0,0.0,0.0,0.0,0.0,0.0,0.0,0.0,0.0,0.0,0.0,0.0,0.0,0.0,0.0,0.0,0.0,0.0,0.0,0.0,0.0,0.0,0.0,0.0,0.0,0.0,0.0,0.0,0.0,0.0,0.0,0.0,0.0,0.0,0.0,0.0,0.0,0.0,0.0,0.0,0.0,0.0,0.0,0.0,0.0,0.0,0.0,0.0,0.0,0.0,0.0,0.0,0.0,0.0,0.0,0.0,0.0,0.0,0.0,0.0,0.0,0.0,0.0,0.0,3.4743,3.4506,3.3978,3.3917,3.4607,3.4982,3.5193,3.5192,0.0,0.0,0.0,0.0,0.0,0.0,0.0,0.0,0.0,0.0,0.0,0.0,0.0,0.0,0.0,0.0,0.0,0.0,0.0,0.0,0.0,0.0,0.0,0.0,0.0,0.0,0.0,0.0,0.0,0.0,0.0,0.0,0.0,0.0,0.0,0.0,0.0,0.0,0.0,0.0,0.0,0.0,0.0,0.0,0.0,0.0,0.0,0.0,0.0,0.0,0.0,0.0,0.0,0.0,0.0,0.0,0.0,0.0,0.0,0.0,0.0,0.0,0.0,0.0,0.0,0.0,0.0,0.0,0.0,0.0,0.0,0.0,0.0,0.0,0.0,0.0,0.0,0.0,0.0,0.0,0.0,0.0,0.0,0.0,0.0,0.0,0.0,0.0,0.0,0.0,0.0,0.0,0.0,0.0,0.0,0.0,0.0,0.0,0.0,0.0,0.0,0.0,0.0,3.5496,3.541,3.4685,3.4337,3.4324,3.471,3.5275,3.5551,3.5367,3.5818,0.0,0.0,0.0,0.0,0.0,0.0,0.0,0.0,0.0,0.0,0.0,0.0,0.0,0.0,0.0,0.0,0.0,0.0,0.0,0.0,0.0,0.0,0.0,0.0,0.0,0.0,0.0,0.0,0.0,0.0,0.0,0.0,0.0,0.0,0.0,0.0,0.0,0.0,0.0,0.0,0.0,0.0,0.0,0.0,0.0,0.0,0.0,0.0,0.0,0.0,0.0,0.0,0.0,0.0,0.0,0.0,0.0,0.0,0.0,0.0,0.0,0.0,0.0,0.0,0.0,0.0,0.0,0.0,0.0,0.0,0.0,0.0,0.0,0.0,0.0,0.0,0.0,0.0,0.0,0.0,0.0,0.0,0.0,0.0,0.0,0.0,0.0,0.0,0.0,0.0,0.0,0.0,0.0,0.0,0.0,0.0,0.0,0.0,0.0,0.0,0.0,0.0,3.6091,3.6015,3.5152,3.4728,3.4687,3.5184,3.553,3.5699,3.5663,3.6109,0.0,0.0,0.0,0.0,0.0,0.0,0.0,0.0,0.0,0.0,0.0,0.0,0.0,0.0,0.0,0.0,0.0,0.0,0.0,0.0,0.0,0.0,0.0,0.0,0.0,0.0,0.0,0.0,0.0,0.0,0.0,0.0,0.0,0.0,0.0,0.0,0.0,0.0,0.0,0.0,0.0,0.0,0.0,0.0,0.0,0.0,0.0,0.0,0.0,0.0,0.0,0.0,0.0,0.0,0.0,0.0,0.0,0.0,0.0,0.0,0.0,0.0,0.0,0.0,0.0,0.0,0.0,0.0,0.0,0.0,0.0,0.0,0.0,0.0,0.0,0.0,0.0,0.0,0.0,0.0,0.0,0.0,0.0,0.0,0.0,0.0,0.0,0.0,0.0,0.0,0.0,0.0,0.0,0.0,0.0,0.0,0.0,0.0,0.0,0.0,0.0,0.0,3.7268,3.6878,3.651,3.5117,3.4914,3.6616,3.5609,3.5399,3.6608,3.605,0.0,0.0,0.0,0.0,0.0,0.0,0.0,0.0,0.0,0.0,0.0,0.0,0.0,0.0,0.0,0.0,0.0,0.0,0.0,0.0,0.0,0.0,0.0,0.0,0.0,0.0,0.0,0.0,0.0,0.0,0.0,0.0,0.0,0.0,0.0,0.0,0.0,0.0,0.0,0.0,0.0,0.0,0.0,0.0,0.0,0.0,0.0,0.0,0.0,0.0,0.0,0.0,0.0,0.0,0.0,0.0,0.0,0.0,0.0,0.0,0.0,0.0,0.0,0.0,0.0,0.0,0.0,0.0,0.0,0.0,0.0,0.0,0.0,0.0,0.0,0.0,0.0,0.0,0.0,0.0,0.0,0.0,0.0,0.0,0.0,0.0,0.0,0.0,0.0,0.0,0.0,0.0,0.0,0.0,0.0,0.0,0.0,0.0,0.0,0.0,0.0,0.0,3.7452,3.6963,0.0,3.5015,3.4833,3.623,3.5919,3.5975,3.6686,0.0,0.0,0.0,0.0,0.0,0.0,0.0,0.0,0.0,0.0,0.0,0.0,0.0,0.0,0.0,0.0,0.0,0.0,0.0,0.0,0.0,0.0,0.0,0.0,0.0,0.0,0.0,0.0,0.0,0.0,0.0,0.0,0.0,0.0,0.0,0.0,0.0,0.0,0.0,0.0,0.0,0.0,0.0,0.0,0.0,0.0,0.0,0.0,0.0,0.0,0.0,0.0,0.0,0.0,0.0,0.0,0.0,0.0,0.0,0.0,0.0,0.0,0.0,0.0,0.0,0.0,0.0,0.0,0.0,0.0,0.0,0.0,0.0,0.0,0.0,0.0,0.0,0.0,0.0,0.0,0.0,0.0,0.0,0.0,0.0,0.0,0.0,0.0,0.0,0.0,0.0,0.0,0.0,0.0,0.0,0.0,0.0,0.0,0.0,0.0,0.0,0.0,3.8292,3.7999,3.7512,0.0,3.5812,3.5665,3.6723,3.6526,3.6472,3.6813,0.0,0.0,0.0,0.0,0.0,0.0,0.0,0.0,0.0,0.0,0.0,0.0,0.0,0.0,0.0,0.0,0.0,0.0,0.0,0.0,0.0,0.0,0.0,0.0,0.0,0.0,0.0,0.0,0.0,0.0,0.0,0.0,0.0,0.0,0.0,0.0,0.0,0.0,0.0,0.0,0.0,0.0,0.0,0.0,0.0,0.0,0.0,0.0,0.0,0.0,0.0,0.0,0.0,0.0,0.0,0.0,0.0,0.0,0.0,0.0,0.0,0.0,0.0,0.0,0.0,0.0,0.0,0.0,0.0,0.0,0.0,0.0,0.0,0.0,0.0,0.0,0.0,0.0,0.0,0.0,0.0,0.0,0.0,0.0,0.0,0.0,0.0,0.0,0.0,0.0,0.0,0.0,0.0,0.0,0.0,0.0,0.0,0.0,0.0,0.0,0.0,0.0,3.9212,3.9059,3.8737,3.8339,3.7692,3.7622,3.8432,3.7336,3.6763,0.0,0.0,0.0,0.0,0.0,0.0,0.0,0.0,0.0,0.0,0.0,0.0,0.0,0.0,0.0,0.0,0.0,0.0,0.0,0.0,0.0,0.0,0.0,0.0,0.0,0.0,0.0,0.0,0.0,0.0,0.0,0.0,0.0,0.0,0.0,0.0,0.0,0.0,0.0,0.0,0.0,0.0,0.0,0.0,0.0,0.0,0.0,0.0,0.0,0.0,0.0,0.0,0.0,0.0,0.0,0.0,0.0,0.0,0.0,0.0,0.0,0.0,0.0,0.0,0.0,0.0,0.0,0.0,0.0,0.0,0.0,0.0,0.0,0.0,0.0,0.0,0.0,0.0,0.0,0.0,0.0,0.0,0.0,0.0,0.0,0.0,0.0,0.0,0.0,0.0,0.0,0.0,0.0,0.0,0.0,0.0,0.0,0.0,0.0,0.0,0.0,0.0,0.0,3.937,3.8635,3.8076,3.7962,3.7186,3.7077,3.8062,3.7856,3.7524,3.7182,0.0,0.0,0.0,0.0,0.0,0.0,0.0,0.0,0.0,0.0,0.0,0.0,0.0,0.0,0.0,0.0,0.0,0.0,0.0,0.0,0.0,0.0,0.0,0.0,0.0,0.0,0.0,0.0,0.0,0.0,0.0,0.0,0.0,0.0,0.0,0.0,0.0,0.0,0.0,0.0,0.0,0.0,0.0,0.0,0.0,0.0,0.0,0.0,0.0,0.0,0.0,0.0,0.0,0.0,0.0,0.0,0.0,0.0,0.0,0.0,0.0,0.0,0.0,0.0,0.0,0.0,0.0,0.0,0.0,0.0,0.0,0.0,0.0,0.0,0.0,0.0,0.0,0.0,0.0,0.0,0.0,0.0,0.0,0.0,0.0,0.0,0.0,0.0,0.0,0.0,0.0,0.0,0.0,0.0,0.0,0.0,0.0,0.0,0.0,0.0,0.0,0.0,3.9551,3.8927,3.8505,3.8439,3.7979,3.7964,3.8615,3.8733,3.8329,3.7346,0.0,0.0,0.0,0.0,0.0,0.0,0.0,0.0,0.0,0.0,0.0,0.0,0.0,0.0,0.0,0.0,0.0,0.0,0.0,0.0,0.0,0.0,0.0,0.0,0.0,0.0,0.0,0.0,0.0,0.0,0.0,0.0,0.0,0.0,0.0,0.0,0.0,0.0,0.0,0.0,0.0,0.0,0.0,0.0,0.0,0.0,0.0,0.0,0.0,0.0,0.0,0.0,0.0,0.0,0.0,0.0,0.0,0.0,0.0,0.0,0.0,0.0,0.0,0.0,0.0,0.0,0.0,0.0,0.0,0.0,0.0,0.0,0.0,0.0,0.0,0.0,0.0,0.0,0.0,0.0,0.0,0.0,0.0,0.0,0.0,0.0,0.0,0.0,0.0,0.0,0.0,0.0,0.0,0.0,0.0,0.0,0.0,0.0,0.0,0.0,0.0,0.0,3.9762,3.9738,3.9662,3.9483,3.9551,3.9647,3.9717,3.9735,3.9101,3.7638,0.0,0.0,0.0,0.0,0.0,0.0,0.0,0.0,0.0,0.0,0.0,0.0,0.0,0.0,0.0,0.0,0.0,0.0,0.0,0.0,0.0,0.0,0.0,0.0,0.0,0.0,0.0,0.0,0.0,0.0,0.0,0.0,0.0,0.0,0.0,0.0,0.0,0.0,0.0,0.0,0.0,0.0,0.0,0.0,0.0,0.0,0.0,0.0,0.0,0.0,0.0,0.0,0.0,0.0,0.0,0.0,0.0,0.0,0.0,0.0,4.3455,0.0,0.0,0.0,0.0,0.0,0.0,0.0,0.0,0.0,0.0,0.0,0.0,0.0,0.0,0.0,0.0,0.0,0.0,0.0,0.0,0.0,0.0,0.0,0.0,0.0,0.0,0.0,0.0,0.0,0.0,0.0,0.0,0.0,0.0,0.0,0.0,0.0,0.0,0.0,0.0,0.0,4.0127,4.0509,4.0615,3.9946,3.9837,3.9859,3.9943,3.9975,3.959,3.8642,3.8049,0.0,0.0,0.0,0.0,0.0,0.0,0.0,0.0,0.0,0.0,0.0,0.0,0.0,0.0,0.0,0.0,0.0,0.0,0.0,0.0,0.0,0.0,0.0,0.0,0.0,0.0,0.0,0.0,0.0,0.0,0.0,0.0,0.0,0.0,0.0,0.0,0.0,0.0,0.0,0.0,0.0,0.0,0.0,0.0,0.0,0.0,0.0,0.0,0.0,0.0,0.0,0.0,0.0,0.0,0.0,0.0,0.0,0.0,0.0,0.0,4.4739,0.0,0.0,0.0,0.0,0.0,0.0,0.0,0.0,0.0,0.0,0.0,0.0,0.0,0.0,0.0,0.0,0.0,0.0,0.0,0.0,0.0,0.0,0.0,0.0,0.0,0.0,0.0,0.0,0.0,0.0,0.0,0.0,0.0,0.0,0.0,0.0,0.0,0.0,0.0,0.0,4.032,4.0873,4.1004,4.0136,4.0049,4.007,4.0148,4.0148,3.9824,3.9047,3.8631,0.0,0.0,0.0,0.0,0.0,0.0,0.0,0.0,0.0,0.0,0.0,0.0,0.0,0.0,0.0,0.0,0.0,0.0,0.0,0.0,0.0,0.0,0.0,0.0,0.0,0.0,0.0,0.0,0.0,0.0,0.0,0.0,0.0,0.0,0.0,0.0,0.0,0.0,0.0,0.0,0.0,0.0,0.0,0.0,0.0,0.0,0.0,0.0,0.0,0.0,0.0,0.0,0.0,5.2364,5.202,5.1163,5.1298,5.1316,5.114,4.8846,4.7617,4.7242,4.8009,0.0,0.0,0.0,0.0,0.0,0.0,0.0,0.0,0.0,0.0,0.0,0.0,0.0,0.0,0.0,0.0,0.0,0.0,0.0,0.0,0.0,0.0,0.0,0.0,4.56,4.4506,0.0,0.0,0.0,0.0,0.0,0.0,0.0,0.0,0.0,0.0,0.0,0.0,4.049,4.107,4.1207,4.0301,4.0223,4.0279,4.0323,4.0288,4.0008,3.9402,3.9237,3.8885,0.0,0.0,0.0,0.0,0.0,0.0,0.0,0.0,0.0,0.0,0.0,0.0,0.0,0.0,0.0,0.0,0.0,0.0,0.0,0.0,0.0,0.0,0.0,0.0,0.0,0.0,0.0,0.0,0.0,0.0,0.0,0.0,4.3566,4.368,0.0,0.0,0.0,0.0,0.0,0.0,0.0,0.0,0.0,0.0,0.0,0.0,0.0,5.3058,5.3173,5.3926,5.3898,5.3128,5.4573,5.4467,5.2974,5.3687,5.3649,5.3039,5.2665,0.0,4.9146,4.9251,0.0,0.0,0.0,0.0,0.0,0.0,0.0,0.0,0.0,0.0,0.0,0.0,0.0,0.0,0.0,0.0,0.0,0.0,0.0,0.0,0.0,0.0,4.6371,4.7134,4.6081,4.4835,0.0,4.3952,4.3166,4.2291,4.221,0.0,0.0,0.0,0.0,0.0,0.0,0.0,4.0763,4.135,4.1505,4.0639,4.0492,4.0465,4.0473,4.0516,4.0512,4.0411,3.9755,3.9313,3.9211,3.8338,0.0,0.0,0.0,0.0,0.0,0.0,0.0,0.0,0.0,0.0,0.0,0.0,0.0,0.0,0.0,0.0,0.0,0.0,0.0,0.0,0.0,0.0,0.0,0.0,0.0,0.0,0.0,0.0,0.0,4.4113,4.4979,4.5977,4.6448,4.6844,0.0,0.0,0.0,0.0,0.0,0.0,0.0,0.0,0.0,5.3918,5.4438,5.4718,5.4718,5.5104,5.5364,5.5509,5.6242,5.6213,5.5556,5.5903,5.5623,5.4849,5.4903,5.3984,5.2437,5.1948,5.128,5.0596,0.0,0.0,0.0,0.0,5.0284,4.9872,4.9517,4.9103,0.0,4.8755,0.0,0.0,0.0,0.0,0.0,0.0,0.0,0.0,0.0,0.0,4.775,4.8147,4.7272,4.6377,4.6403,4.5733,4.4707,0.0,4.3448,4.3327,4.1926,0.0,0.0,0.0,0.0,4.1718,4.0823,4.1393,4.1569,4.0684,4.0576,4.0564,4.0564,4.0579,4.0619,4.0641,4.0333,4.0147,4.019,3.9391,3.8764,0.0,0.0,0.0,0.0,0.0,0.0,0.0,0.0,0.0,0.0,0.0,0.0,0.0,0.0,0.0,0.0,0.0,0.0,0.0,0.0,0.0,0.0,0.0,0.0,0.0,0.0,0.0,0.0,4.5587,4.6405,4.7701,4.8088,4.8264,0.0,0.0,0.0,0.0,0.0,0.0,5.359,5.4274,5.4814,5.5258,5.5682,5.603,5.6233,5.603,5.626,5.6933,5.7146,5.7164,5.7024,5.7218,5.685,5.6046,5.6098,5.5754,5.5083,5.4231,5.336,5.27,5.3349,5.3208,5.2653,5.2639,5.2285,5.1754,5.1522,5.0911,5.0231,5.0252,4.9688,4.8943,4.8775,0.0,0.0,0.0,0.0,4.8031,4.8903,4.8967,4.8855,4.9081,4.8476,4.7852,4.792,4.7414,4.6355,0.0,4.4521,4.4442,4.2896,0.0,0.0,0.0,0.0,4.1734,4.0855,4.1261,4.1375,4.0716,4.0647,4.0648,4.0648,4.0642,4.0668,4.0718,4.075,4.0767,4.0807,4.0408,4.0117,3.995,0.0,0.0,0.0,0.0,0.0,0.0,0.0,0.0,0.0,0.0,0.0,0.0,0.0,0.0,0.0,0.0,0.0,0.0,0.0,0.0,0.0,0.0,0.0,0.0,0.0,0.0,0.0,0.0,0.0,4.7988,4.8659,0.0,0.0,0.0,0.0,5.1867,5.2752,5.3656,5.457,5.4675,5.5429,5.7023,5.6364,5.6372,5.7119,5.6392,5.604,5.6167,5.7,5.6985,5.6288,5.7044,5.6947,5.6191,5.6191,5.6182,5.6056,5.5186,5.4319,5.3531,5.357,5.3617,5.3624,5.3564,5.3579,5.3541,5.2632,5.1806,5.1157,5.12,5.0689,4.9864,4.9045,4.8761,0.0,0.0,4.8733,4.8938,4.9813,4.9413,4.9015,4.9843,4.9371,4.8742,4.8828,4.8745,4.7938,0.0,4.4977,4.4677,4.3696,0.0,4.3227,4.2349,4.2213,4.1873,4.0999,4.087,4.0837,4.0797,4.0796,4.0788,4.0788,4.0779,4.0782,4.0782,4.0848,4.0867,4.0807,4.1609,4.1678,4.0844,3.9932,0.0,0.0,0.0,0.0,0.0,0.0,0.0,0.0,0.0,0.0,0.0,0.0,0.0,0.0,0.0,0.0,0.0,0.0,0.0,0.0,0.0,0.0,0.0,0.0,0.0,0.0,0.0,0.0,5.0374,5.1308,0.0,5.1867,5.2223,5.28,5.3675,5.4041,5.4608,5.5483,5.5541,5.6081,5.7295,5.7061,5.7312,5.8166,5.7893,5.8017,5.8557,5.8867,5.861,5.7885,5.8176,5.7531,5.6239,5.6841,5.7094,5.7127,5.7372,5.6628,5.5346,5.5384,5.5071,5.4669,5.5202,5.5075,5.4587,5.4249,5.3974,5.3604,5.2535,5.1639,5.0876,5.0569,5.0462,5.0588,5.1141,5.091,5.0678,5.1556,5.113,5.0544,5.0853,5.0264,4.9639,4.9669,4.8805,4.7766,4.6857,4.6632,4.6165,4.4733,4.3992,4.3308,4.2432,4.1793,4.1298,4.0956,4.0883,4.0844,4.0807,4.0848,4.0863,4.0863,4.0854,4.0859,4.0859,4.0888,4.0888,4.0864,4.1723,4.1786,4.0913,4.1198,4.0647,0.0,0.0,0.0,0.0,0.0,0.0,0.0,0.0,0.0,0.0,0.0,0.0,0.0,0.0,0.0,0.0,0.0,0.0,0.0,0.0,0.0,0.0,0.0,0.0,0.0,0.0,5.0433,5.2194,5.3177,5.3639,5.335,5.3908,5.4406,5.4718,5.5009,5.5423,5.599,5.6065,5.6604,5.781,5.7555,5.7962,5.9124,5.8853,5.8986,5.9533,5.9533,5.9281,5.8822,5.8836,5.8195,5.7107,5.7767,5.8032,5.8039,5.8645,5.8223,5.7156,5.6906,5.6299,5.5604,5.6197,5.6042,5.5526,5.5234,5.516,5.4968,5.3553,5.271,5.2252,5.2279,5.2288,5.2394,5.299,5.2503,5.1976,5.2545,5.2057,5.1393,5.1409,5.0957,5.0546,5.0532,4.9669,4.8807,4.8504,4.771,4.6642,4.5242,4.4482,4.368,4.2515,4.1825,4.1319,4.0978,4.0906,4.0873,4.0845,4.0878,4.0893,4.0902,4.0926,4.093,4.0921,4.0924,4.0924,4.0907,4.2032,4.2386,4.1796,4.2419,4.2023,4.0571,0.0,0.0,0.0,0.0,0.0,0.0,0.0,0.0,0.0,0.0,0.0,0.0,0.0,0.0,0.0,0.0,0.0,0.0,0.0,0.0,0.0,0.0,0.0,5.05,5.0788,5.1489,5.331,5.4245,5.4409,5.3642,5.5061,5.5724,5.4936,5.5652,5.6137,5.6137,5.6234,5.7017,5.8643,5.7909,5.83,5.9995,5.9192,5.8804,5.8881,5.8881,5.8901,5.8933,5.8949,5.8886,5.8804,5.8901,5.8914,5.8849,5.8951,5.8974,5.8857,5.7948,5.7147,5.6466,5.6421,5.6446,5.639,5.5528,5.5217,5.5069,5.4213,5.3933,5.3919,5.4003,5.4031,5.4033,5.4042,5.3401,5.2739,5.2706,5.2044,5.14,5.1404,5.1402,5.1398,5.1398,5.1374,5.1117,5.0277,4.8065,4.6069,4.5237,4.5049,4.4426,4.2737,4.237,0.0,4.114,4.096,4.09,4.0917,4.0912,4.0902,4.0909,4.0968,4.1007,4.101,4.1007,4.0995,4.0951,4.2648,4.3594,4.3572,4.3594,4.3198,4.2389,0.0,0.0,0.0,0.0,0.0,0.0,0.0,0.0,0.0,0.0,0.0,0.0,0.0,0.0,0.0,0.0,0.0,0.0,0.0,0.0,0.0,0.0,5.0499,5.1561,5.2859,5.4323,5.6087,5.7054,5.7469,5.7207,5.7091,5.6922,5.6707,5.6908,5.7035,5.7036,5.766,5.8246,5.8768,5.9148,5.959,6.0067,6.0405,6.0611,6.0701,6.0701,6.0385,5.9838,5.9886,5.9551,5.8978,5.9625,5.9898,5.9951,6.0585,6.0497,5.9776,5.8257,5.7911,5.813,5.6918,5.6483,5.6473,5.6225,5.5727,5.5168,5.4972,5.448,5.4083,5.4751,5.4934,5.4939,5.494,5.4315,5.3494,5.2868,5.2049,5.1405,5.1402,5.1402,5.1403,5.1403,5.0892,5.0402,5.0213,4.8586,4.717,4.6937,4.5831,4.4818,4.43,4.3153,0.0,4.1974,4.1422,4.1048,4.1041,4.1041,4.1041,4.1048,4.1052,4.1048,4.0995,4.1048,4.133,4.1894,4.3004,4.4191,4.5434,4.4238,4.3794,0.0,0.0,0.0,0.0,0.0,0.0,0.0,0.0,0.0,0.0,0.0,0.0,0.0,0.0,0.0,0.0,0.0,0.0,0.0,0.0,0.0,0.0,5.1966,5.305,5.4602,5.481,5.5299,5.6698,5.7954,5.8408,5.7628,5.7799,5.7649,5.6939,5.6912,5.6939,5.6948,5.7771,5.8413,5.8797,5.9664,6.03,6.0631,6.1114,6.1366,6.1401,6.1434,6.1188,6.0744,6.0803,6.0546,6.0073,6.0604,6.0823,6.0833,6.1388,6.1295,0.0,0.0,0.0,0.0,0.0,5.7034,5.6987,5.6625,5.6166,5.5742,5.5782,5.5462,5.514,5.5674,5.5582,5.5292,5.5292,5.4413,5.3339,5.2831,5.2051,5.1406,5.1405,5.1406,5.1406,5.1406,5.0995,5.0662,5.0703,4.9586,0.0,4.8641,4.6617,4.4864,4.4463,4.3561,4.2924,4.2848,4.2467,4.2181,4.2156,4.2149,4.2146,4.2156,4.2146,0.0,0.0,0.0,4.2526,4.3353,4.4545,0.0,0.0,0.0,4.6036,4.6521,0.0,0.0,0.0,4.5122,4.5254,0.0,0.0,0.0,0.0,0.0,0.0,0.0,0.0,0.0,0.0,0.0,0.0,0.0,0.0,0.0,0.0,5.3788,5.5696,5.8127,5.6613,5.561,5.6579,5.7967,5.8285,5.6838,5.7916,5.8102,5.6613,5.6544,5.6583,5.6596,0.0,0.0,0.0,0.0,6.0553,6.1265,6.1375,6.1408,6.1408,6.1478,6.1509,6.1509,6.1563,6.1563,6.1501,6.1568,6.1578,6.1529,6.1583,6.1592,6.1519,6.0755,5.9858,5.8927,5.8324,5.8024,5.7833,5.707,0.0,0.0,5.6658,5.6589,5.6515,5.6571,5.6067,5.5423,5.533,5.4119,5.2811,5.2734,5.2051,5.1406,5.1405,5.1405,5.1405,5.1405,5.1406,5.1406,5.1406,5.0702,5.0092,5.0111,4.7426,4.5068,4.4376,4.4108,4.3962,4.3893,4.3852,4.3768,4.3616,0.0,0.0,4.3749,4.3754,4.3799,4.3883,4.3994,4.438,4.5156,4.6722,4.7599,4.7648,4.8412,4.8801,4.8799,4.8799,4.8847,4.8881,4.6472,4.6167,0.0,0.0,0.0,0.0,0.0,0.0,0.0,0.0,0.0,0.0,0.0,0.0,0.0,0.0,0.0,5.3904,5.5114,5.6245,5.7455,5.7862,5.8583,6.0115,5.9976,5.9906,6.0328,5.9401,5.8658,5.8396,5.8337,5.8344,5.8387,5.8506,5.9004,5.9977,6.0141,6.0308,6.0507,6.1159,6.1484,6.1473,0.0,0.0,6.1504,6.1573,6.1592,6.1582,6.1592,6.1591,6.158,6.1584,6.1608,6.158,6.1411,6.0393,5.9065,5.9669,5.9453,5.8825,5.8663,5.8141,5.7558,5.7551,5.7111,5.6571,5.6597,5.6483,0.0,5.5507,5.4551,5.3594,5.289,5.205,5.1405,5.1406,5.1406,5.1405,5.1405,5.1405,5.1405,5.1402,5.0703,5.0117,5.0176,4.8472,4.7265,4.7744,4.6663,4.5779,4.5714,4.5082,4.439,4.3674,4.3643,4.3936,4.4587,4.4655,4.4952,4.5655,4.6357,4.6827,4.6986,4.7975,4.8538,4.8544,4.8716,4.8794,4.8797,4.8797,4.9151,4.9817,4.8602,4.8229,0.0,0.0,0.0,0.0,0.0,0.0,0.0,0.0,0.0,0.0,0.0,5.151,0.0,0.0,5.4483,5.5803,5.6792,5.7821,5.908,5.9675,6.0014,6.0053,6.0041,6.0223,6.0711,6.0362,5.9929,5.9536,5.951,5.9134,5.8287,5.8665,5.9124,5.9635,6.0033,6.0461,6.0905,6.1301,6.149,6.1507,6.1504,6.1495,6.1495,6.1578,6.1602,6.1599,6.1591,6.1608,6.1595,6.1604,6.16,6.16,6.1608,6.1066,6.0317,6.0373,6.0115,5.9683,5.9245,5.8804,5.8458,5.8486,5.7923,5.7242,5.7245,5.664,5.5859,5.5428,5.4354,5.3241,5.2809,5.2046,5.1402,5.1404,5.1403,5.1402,5.1399,5.1401,5.1401,5.1395,5.1049,5.076,5.0799,4.9726,4.8842,4.8814,4.8099,4.7543,4.7506,4.6778,4.6069,4.5597,4.5575,4.5767,4.617,4.6599,4.703,4.7467,4.8321,4.8613,4.8179,4.9413,4.9898,4.9455,4.9878,5.0093,5.0101,5.0101,5.0318,5.0733,5.0306,4.9872,0.0,0.0,0.0,0.0,0.0,0.0,0.0,0.0,5.0336,5.127,5.2705,5.3851,5.4042,5.514,5.6335,5.7376,5.8194,5.9198,6.0653,6.0912,6.0519,5.9432,5.9753,6.0206,6.0553,6.0932,6.0934,6.0377,6.0093,5.9347,5.7943,5.8437,5.89,5.9236,5.9937,6.0769,6.1765,6.1765,6.1863,6.2024,6.2011,6.1943,6.1768,6.1826,6.1771,6.1615,6.1615,6.1604,6.1595,6.1618,6.1611,6.1615,6.1618,6.1625,6.155,6.0899,6.0659,6.0555,5.9843,5.9499,5.9347,5.9235,5.8494,5.7615,5.7441,5.6308,5.5078,5.5252,5.4178,5.2987,5.3159,5.2552,5.1907,5.1907,5.179,5.1651,5.1645,5.1511,5.1396,5.1408,5.1394,5.1399,5.1402,5.0819,5.0117,4.941,4.9165,4.9057,4.9062,4.8491,4.8002,4.7788,4.7762,4.7836,4.799,4.8803,4.9311,4.9319,4.9955,5.0035,4.9329,5.0657,5.1079,5.0364,5.1037,5.1408,5.1401,5.1401,5.1406,5.1394,5.1398,5.1023,4.7545,4.7578,4.7637,4.7795,4.8422,4.9229,0.0,0.0,5.3109,5.3976,5.494,5.5856,5.6692,5.6393,5.6548,5.8197,5.8535,5.894,5.9895,6.0039,6.0295,6.0946,6.0418,6.0623,6.2176,6.1068,6.054,6.1208,5.9873,5.899,5.8851,5.8218,5.8545,6.0102,6.0258,6.1086,6.2726,6.2745,6.3124,6.3905,6.3909,6.3499,6.2735,6.2758,6.2359,6.1693,6.1693,6.1667,6.1598,6.1651,6.1696,6.1696,6.1691,6.1696,6.1676,6.1598,6.1549,6.1541,6.1432,6.0909,6.0149,5.9431,5.8084,5.66,5.584,5.4902,5.4316,5.5076,5.4608,5.4023,5.4802,5.4353,5.3708,5.3708,5.312,5.2549,5.2542,5.1941,5.1395,5.14,5.1409,5.1397,5.1393,5.1323,5.121,5.1113,5.0442,4.9987,5.0035,4.9911,4.9514,4.8733,4.8719,4.9033,4.9755,5.0614,5.1102,5.1102,5.12,5.1217,5.1115,5.1309,5.1343,5.1256,5.1351,5.139,5.1392,5.1392,5.1392,5.1394,5.1391,5.1351,4.7988,4.7895,4.8167,0.0,4.9786,5.0441,5.1847,5.2782,5.3735,5.5075,5.6049,5.6936,5.7823,5.8142,5.8334,0.0,5.863,5.8772,5.9099,5.9183,5.9343,5.9743,5.9945,6.0744,6.2497,6.2014,6.1757,6.214,6.1518,6.0689,5.9744,5.9341,5.9732,6.1023,6.1062,6.1651,6.2892,6.2892,6.3072,6.3432,6.3432,6.3518,6.3667,6.3667,6.3207,6.2405,6.2437,6.2119,6.1618,6.1673,6.1699,6.1699,6.1693,6.1698,6.1698,6.1698,6.1707,6.1699,6.1702,6.1455,6.1109,6.0756,5.9509,5.8046,5.7675,5.6601,5.5585,5.5953,5.5426,5.484,5.5206,5.4641,5.3999,5.3999,5.3724,5.3467,5.346,5.3168,5.2913,5.2919,5.2495,5.2166,5.2163,5.1743,5.1398,5.14,5.1094,5.0876,5.0898,5.0426,4.997,4.9599,4.9578,4.9949,5.0789,5.1195,5.1407,5.1407,5.1407,5.1405,5.1402,5.1402,5.1402,5.1403,5.1403,5.1405,5.139,5.139,5.139,5.139,5.1396,5.1396,4.8862,4.8832,0.0,5.0632,5.097,5.1442,5.3234,5.388,5.4582,5.6261,5.7496,5.8481,5.9099,5.9591,5.9687,5.9048,5.8803,5.8654,5.8615,5.8269,5.8196,5.8669,5.892,5.974,6.1485,6.2067,6.2449,6.2682,6.2262,6.1596,6.0602,6.0556,6.0875,6.1588,6.1822,6.2255,6.2883,6.2903,6.3024,6.3267,6.3252,6.3479,6.3866,6.387,6.3659,6.3253,6.3312,6.2958,6.232,6.2376,6.2265,6.2053,6.2069,6.192,6.1705,6.1707,6.1694,6.1699,6.1704,6.1691,6.1617,6.1144,6.0016,5.875,5.8279,5.707,5.5936,5.6166,5.5794,5.5365,5.5592,5.5182,5.4717,5.4718,5.4521,5.4361,5.4358,5.4161,5.4003,5.3992,5.3485,5.3057,5.3055,5.2534,5.2129,5.2111,5.191,5.1679,5.1424,5.0859,5.0464,5.0464,5.0462,5.0615,5.1024,5.1274,5.131,5.1075,5.1271,5.1408,5.1407,5.1407,5.1408,5.1393,5.1393,5.1394,5.1398,5.1398,5.1398,5.1398,5.14,5.1537,5.0506,5.1092,5.1708,5.1836,5.1905,5.2396,5.4072,5.522,5.6395,5.8066,5.9785,6.1002,6.1021,6.0402,5.988,5.9861,5.9151,5.8596,5.8596,5.7261,5.6893,5.8598,5.7398,5.7101,0.0,6.0481,6.1781,6.2643,6.1201,6.0611,6.1419,6.1454,6.1505,6.1607,6.2426,6.2868,6.289,6.289,6.3312,6.415,6.4167,6.3767,6.3045,6.304,6.3458,6.417,6.4171,6.4148,6.4111,6.4112,6.365,6.2954,6.2957,6.2438,6.1699,6.1705,6.1704,6.1701,6.1694,6.1694,6.1416,5.9737,5.8628,5.7615,5.5935,5.4785,5.4258,5.5096,5.5329,5.5485,5.634,5.6549,5.6525,5.6514,5.5879,5.5263,5.5254,5.4591,5.4003,5.3992,5.3979,5.3963,5.3953,5.3932,5.3916,5.3925,5.3204,5.2351,5.1501,5.1386,5.1367,5.1367,5.1367,5.1054,5.0291,5.0956,5.1074,5.0291,5.0976,5.1406,5.1404,5.1404,5.1402,5.1398,5.1398,5.1398,5.1398,5.1398,5.1398,5.1398,5.1403,5.1854,5.1297,5.1653,5.2019,5.2666,5.3282,5.3889,5.4496,5.5787,5.701,5.759,5.8633,5.9435,5.9435,5.9223,5.8855,5.8275,5.7962,5.7423,5.6304,5.6175,5.6211,5.6265,5.679,0.0,0.0,0.0,0.0,6.0968,6.1058,6.1433,6.232,6.2349,6.2635,6.3244,6.303,6.2898,6.2907,6.2907,6.3053,6.3351,6.393,6.4054,6.3829,6.4392,6.4489,6.4226,6.4805,6.4726,6.4206,6.42,6.405,6.3809,6.3798,6.3638,6.3359,6.2781,6.2567,6.2488,6.1906,6.1691,6.1513,6.0337,5.9383,5.8489,5.7313,5.6383,5.5781,5.6074,5.617,5.6224,5.6515,5.6591,5.6609,5.6606,5.6372,5.6156,5.6152,5.5938,5.5721,5.5737,5.5267,5.4853,5.4851,5.4381,5.3994,5.4003,5.3251,5.2398,5.1502,5.1406,5.1406,5.1406,5.0918,5.0487,5.0213,5.0408,5.0425,5.0151,5.0933,5.1402,5.1401,5.1401,5.1402,5.1403,5.1405,5.1405,5.1405,5.1406,5.1699,5.2265,5.2265,5.2421,5.1838,5.2184,5.2541,5.3157,5.3503,5.38,5.4155,5.5358,5.6418,5.6418,5.7579,5.8488,5.8197,5.8391,5.8314,5.7434,5.7351,5.6916,5.5552,5.5603,5.5683,5.5489,5.6188,5.7127,0.0,0.0,0.0,6.0521,6.0851,6.1512,6.2691,6.2754,6.3036,6.3619,6.3132,6.2728,6.2445,6.2445,6.2435,6.2438,6.3003,6.3436,6.3768,6.4658,6.4918,6.4703,6.5588,6.5654,6.5133,6.5127,6.4958,6.4693,6.4699,6.436,6.3767,6.321,6.2803,6.2451,6.1887,6.1691,6.1513,6.0318,5.9557,5.8878,5.7721,5.7005,5.6601,5.6601,5.6601,5.6597,5.6594,5.6591,5.6609,5.6606,5.6605,5.6605,5.6606,5.6602,5.6598,5.6605,5.6147,5.5769,5.5753,5.5304,5.4816,5.4507,5.3996,5.3318,5.2438,5.2069,5.1855,5.1855,5.1113,5.0507,5.0213,5.0428,5.0427,5.0114,5.0916,5.1405,5.1405,5.1405,5.1406,5.1406,5.1406,5.1405,5.1405,5.1404,5.1695,5.2242,5.2242,5.2398,5.2152,5.2711,5.329,5.3252,5.2708,5.2387,5.3217,5.4121,5.4793,5.4793,5.6766,5.8197,0.0,0.0,5.8226,5.7424,5.7326,5.7071,5.6315,5.5546,5.5359,0.0,0.0,0.0,0.0,0.0,0.0,6.1206,0.0,6.0916,6.2601,6.2705,6.2736,6.2794,6.276,6.2362,6.1607,6.1646,6.1699,6.174,6.1685,6.2091,6.2929,6.3868,6.4701,6.5472,6.6405,6.6807,6.6795,6.6809,6.6346,6.5663,6.5655,6.4624,6.3123,6.3074,6.251,6.1768,6.1715,6.1694,6.1416,5.9718,5.9172,5.8858,5.7218,5.673,5.6712,5.6679,5.668,5.666,5.6615,5.6609,5.6605,5.6592,5.6602,5.6593,5.661,5.6602,5.6593,5.6591,5.66,5.661,5.66,5.66,5.6325,5.5495,5.5379,5.5035,5.4112,5.3238,5.2693,5.2693,5.1874,5.1015,5.0253,5.0898,5.0975,5.0156,5.0954,5.1457,5.1398,5.1437,5.1457,5.1398,5.1398,5.1398,5.1398,5.1437,5.1476,5.1476,5.1555,5.1986,5.2827,5.3173,5.3219,5.2563,5.2771,5.3191,5.3423,5.4166,5.4793,5.4793,5.5799,5.6418,0.0,0.0,0.0,5.7301,5.6889,0.0,5.6223,5.6071,0.0,5.5378,0.0,5.7353,5.8383,5.8487,0.0,0.0,6.1234,6.1609,6.2646,6.2748,6.2783,6.2799,6.2211,6.1817,6.1607,6.2249,6.2882,6.3533,6.2875,6.2684,6.2933,6.3826,6.434,6.4613,6.6135,6.6805,6.6792,6.6801,6.6691,6.6489,6.6483,6.5868,6.4862,6.4206,6.3428,6.2588,6.1925,6.1691,6.1514,6.0425,6.0073,5.9875,5.878,5.849,5.8395,5.775,5.7577,5.7422,5.6777,5.6599,5.6596,5.6593,5.6591,5.6607,5.6592,5.661,5.6609,5.6592,5.6605,5.6598,5.66,5.6595,5.6511,5.6294,5.6261,5.5721,5.4203,5.3236,5.2693,5.2709,5.1342,5.0347,5.0133,5.0307,5.0346,5.0113,5.1537,5.2082,5.1437,5.2023,5.2062,5.1418,5.1398,5.14,5.1404,5.2045,5.2375,5.2394,5.3697,5.3731,5.2812,5.2848,5.2768,5.2266,5.2244,5.2356,5.2356,5.3033,5.3556,5.3169,5.4368,0.0,5.4387,5.557,0.0,0.0,0.0,0.0,5.7285,5.7028,5.6925,0.0,5.7727,0.0,5.9779,5.9585,5.9922,0.0,6.1084,6.1259,6.2076,6.2167,6.2198,6.219,6.2129,6.2282,6.2698,6.3181,6.3663,6.4144,6.3698,6.3468,6.346,6.4365,6.4762,6.4856,0.0,6.6801,6.6792,6.6801,6.6808,6.6804,6.6798,6.6063,6.4974,6.4475,6.3518,6.2363,6.188,6.1704,6.157,6.068,6.0406,6.0249,5.9409,5.9155,5.9058,5.8608,5.8474,5.8359,5.7871,5.7461,5.7167,5.7164,5.6889,5.6596,5.6593,5.6591,5.6607,5.6603,5.6602,5.66,5.6596,5.6595,5.6591,5.6606,5.6595,5.6247,5.5269,5.4052,5.3276,5.327,5.1712,5.0678,5.0676,5.0674,5.0673,5.0676,5.1941,5.2485,5.1999,5.2817,5.2854,5.1995,5.1976,5.1783,5.1396,5.2271,5.2698,5.2737,5.4099,5.4213,5.2387,5.2194,5.2155,5.2039,5.1459,5.0929,5.1025,5.1556,5.1854,5.1196,0.0,5.4407,5.3633,5.5531,5.7268,5.7373,0.0,5.779,5.8683,5.8132,5.8164,5.9502,5.92,5.9425,6.0821,6.0538,6.0573,6.1327,6.0694,6.0604,6.1354,6.1407,6.1466,6.1583,6.2316,6.3216,6.4268,6.4268,6.4324,6.4432,6.4398,6.4339,6.4301,6.5005,6.5324,6.5375,6.6248,6.6632,6.6632,6.6749,6.6798,6.6795,6.6807,6.577,6.4299,6.429,6.3193,6.1701,6.1692,6.1697,6.1584,6.0816,6.0564,6.0447,5.9744,5.9489,5.9427,5.9372,5.9353,5.9334,5.9238,5.8633,5.8047,5.7928,5.7401,5.6911,5.681,5.6765,5.6737,5.6612,5.6596,5.6598,5.6608,5.6595,5.6596,5.6606,5.6602,5.6606,5.6608,5.5176,5.4129,5.4006,5.2532,5.1538,5.1417,5.151,5.1567,5.1572,5.2497,5.2979,5.2889,5.3702,5.3756,5.2899,5.286,5.2431,5.1572,5.245,5.2804,5.2726,5.3717,5.4112,5.2155,5.2127,5.1955,5.1294,5.1004,5.1062,5.1738,5.1493,0.0,0.0,5.2898,5.3672,5.3536,5.5048,5.6559,5.7277,0.0,0.0,0.0,0.0,5.8331,0.0,0.0,0.0,0.0,0.0,0.0,0.0,0.0,6.1237,6.1393,6.1454,6.1809,6.2519,6.2696,6.3552,6.5164,6.5164,6.5531,6.6244,6.5528,6.5207,6.5245,6.4673,6.4427,6.4474,6.5344,0.0,6.5776,6.6498,6.6801,6.6798,6.6795,6.5783,6.4299,6.429,6.3193,6.1698,6.1703,6.1709,6.1681,6.1519,6.1463,6.1443,6.1308,6.1269,6.1093,6.0389,6.0193,6.0037,5.9373,5.9081,5.8788,5.8066,5.8339,5.8552,5.7829,5.7669,5.745,5.6745,5.6605,5.66,5.6598,5.6593,5.6608,5.6606,5.6596,5.66,5.6606,5.572,5.4807,5.4083,5.309,5.2172,5.1469,5.2054,5.2461,5.2474,5.3975,5.4539,5.3797,5.4617,5.4654,5.3795,5.3766,5.3359,5.2479,5.3359,5.3398,5.2733,5.4326,5.4695,5.1586,5.1481,5.1385,5.1001,5.0893,5.1009,5.1396,0.0,0.0,0.0,5.2569,5.3498,5.3498,5.5299,0.0,5.7331,0.0,0.0,0.0,0.0,0.0,0.0,0.0,0.0,0.0,0.0,0.0,0.0,0.0,6.1393,6.1393,6.1428,6.2057,6.3379,6.3424,6.4267,6.6011,6.601,6.6248,6.6691,6.6273,6.6093,6.6108,6.5264,6.4859,6.4816,6.4813,0.0,6.5539,6.5948,6.6397,6.6795,6.679,6.6053,6.4982,6.4974,6.3878,6.2384,6.2384,6.2074,6.1692,6.1705,6.1694,6.1697,6.1697,6.1698,6.1601,6.119,6.1073,6.0995,6.0605,6.0155,5.9608,5.8789,5.8202,5.7869,5.7888,5.7534,5.7217,5.7213,5.6898,5.66,5.6595,5.6595,5.6593,5.6606,5.66,5.6605,5.6596,5.6247,5.5643,5.4759,5.3904,5.3203,5.2788,5.3139,5.3373,5.3375,5.46,5.5105,5.4681,5.5515,5.5571,5.4693,5.468,5.4252,5.3373,5.3803,5.3783,5.3391,5.4227,5.4635,5.1048,5.0883,5.0863,5.0893,5.0909,5.0909,5.0909,5.089,0.0,5.0898,5.2144,5.3285,5.3459,5.533,5.6903,0.0,5.7265,5.7928,0.0,0.0,0.0,0.0,0.0,0.0,0.0,0.0,0.0,0.0,0.0,0.0,6.1407,6.1575,6.2391,6.3959,6.4165,6.5015,6.6586,6.6594,6.6627,6.6682,6.6691,6.6579,6.636,6.5577,6.507,6.4812,6.4198,0.0,6.5201,6.5396,6.5987,6.6782,6.6781,6.6299,6.5582,6.5594,6.4501,6.3008,6.3008,6.2423,6.1701,6.1692,6.1705,6.1694,6.1691,6.1696,6.1699,6.1698,6.1698,6.1699,6.1699,6.1191,6.0526,5.9883,5.8418,5.7343,5.8026,5.7496,5.7004,5.7465,5.7034,5.6602,5.6591,5.6596,5.6598,5.6606,5.6603,5.6609,5.66,5.6603,5.6348,5.5652,5.48,5.4197,5.4014,5.4168,5.4289,5.4275,5.5109,5.5576,5.5581,5.6239,5.6274,5.5591,5.5571,5.5142,5.4283,5.4283,5.4186,5.401,5.401,5.4361,5.0803,5.0747,5.0757,5.0863,5.0908,5.0908,5.0908,0.0,5.0898,5.0898,5.166,5.2558,5.3343,5.4338,5.5294,5.609,5.6839,5.7643,0.0,0.0,0.0,0.0,0.0,0.0,0.0,0.0,0.0,0.0,0.0,0.0,6.1447,6.2159,6.3026,6.3975,6.4717,6.5572,6.6586,6.6593,6.6594,6.6607,6.6663,6.6254,6.5407,6.4607,6.3799,6.3038,6.3025,0.0,0.0,6.5075,6.5913,6.672,6.6779,6.6271,6.5526,6.5582,6.4492,6.3008,6.3008,6.2423,6.1698,6.1701,6.169,6.1701,6.1707,6.1694,6.1697,6.1697,6.1698,6.1699,6.1699,6.164,6.1562,6.1484,6.0195,5.8984,5.9061,5.8398,5.7577,5.6848,5.665,5.6609,5.6602,5.66,5.6598,5.6606,5.6603,5.6607,5.661,5.6609,5.6574,5.6491,5.5697,5.4862,5.4062,5.4726,5.5171,5.5183,5.6001,5.6489,5.6489,5.6567,5.6567,5.6489,5.6489,5.6059,5.5181,5.5181,5.4771,5.401,5.401,5.4049,5.073,5.1105,5.151,5.1592,5.1608,5.1614,5.1614,0.0,5.0898,5.0898,5.1583,5.248,5.3343,5.4213,5.5073,5.5894,5.6311,5.6824,5.7701,0.0,0.0,0.0,0.0,0.0,0.0,0.0,0.0,0.0,0.0,0.0,6.1421,6.2728,6.3641,6.3986,6.4301,6.4884,6.5754,6.5795,6.6088,6.6594,6.6627,6.6438,6.6037,6.4699,6.421,6.4313,6.3272,0.0,0.0,6.5036,6.5636,6.6029,6.6544,6.6541,6.6291,6.6307,6.5552,6.444,6.3943,6.3204,6.2403,6.1874,6.1698,6.1698,6.169,6.1704,6.1693,6.1693,6.1696,6.1698,6.1699,6.1308,6.0918,6.0918,6.0038,5.9335,5.9824,5.9277,5.8574,5.8239,5.775,5.7221,5.6688,5.6605,5.66,5.6596,5.6606,5.6591,5.6605,5.6592,5.6595,5.6592,5.6292,5.5934,5.5597,5.589,5.6083,5.6079,5.6411,5.6606,5.6606,5.6606,5.6606,5.6606,5.6606,5.643,5.6079,5.5552,5.4849,5.399,5.3463,5.321,5.0692,5.1327,5.1943,5.174,5.1882,5.2033,0.0,0.0,5.0901,5.0901,5.1401,5.2086,5.2956,5.3826,5.4697,5.5509,5.5838,5.6293,5.7183,5.7244,0.0,0.0,0.0,0.0,0.0,0.0,0.0,0.0,0.0,0.0,6.1733,6.313,6.3817,6.358,6.3825,6.4342,6.5184,6.5253,6.5703,6.6572,6.6588,6.6445,6.6147,6.4746,6.4298,6.4549,6.3056,0.0,0.0,6.4383,6.4963,6.5533,6.6122,6.6525,6.6775,6.6798,6.6255,6.538,6.4554,6.3698,6.282,6.1986,6.1685,6.1676,6.1691,6.1709,6.1702,6.1705,6.1693,6.1697,6.1699,6.123,6.0781,6.0781,6.0155,5.9704,6.0273,5.9744,5.9098,5.8867,5.832,5.7616,5.6752,5.6592,5.6606,5.6602,5.6591,5.6594,5.6591,5.6595,5.6597,5.6597,5.6593,5.6605,5.6596,5.6608,5.6606,5.6591,5.6608,5.6606,5.6606,5.6606,5.6606,5.6606,5.6606,5.6606,5.6606,5.5981,5.524,5.4361,5.3756,5.3329,5.0616,5.128,5.1799,5.0932,5.1412,5.1873,5.1014,5.0855,5.0899,5.0899,5.0913,5.1169,5.2047,5.2917,5.3807,5.4677,5.549,5.6293,5.7183,0.0,0.0,0.0,0.0,0.0,0.0,0.0,0.0,0.0,0.0,0.0,6.2499,6.3313,6.3436,6.2641,6.3377,6.425,6.5184,6.5211,6.5635,6.6508,6.6572,6.6099,6.5188,6.4448,6.3624,6.2787,0.0,0.0,0.0,6.2849,6.3847,6.5407,6.5474,6.6009,6.6711,6.6775,6.6257,6.5375,6.4501,6.3623,6.2769,6.1966,6.167,6.1618,6.1673,6.1707,6.1703,6.1696,6.1709,6.1697,6.1697,6.1698,6.1699,6.1699,6.1013,6.0383,6.0407,5.9717,5.8871,5.8063,5.7908,5.7617,5.6756,5.6599,5.6597,5.6603,5.6594,5.6597,5.6603,5.6598,5.6601,5.6594,5.6597,5.6598,5.6593,5.6598,5.6591,5.66,5.6593,5.6606,5.6606,5.6606,5.6606,5.6606,5.6606,5.6606,5.6606,5.6586,5.6138,5.53,5.5281,5.481,5.0673,5.1289,5.1876,5.1587,5.178,5.1953,5.1692,5.1208,5.0846,5.0891,5.0888,5.1164,5.2047,5.2898,5.3788,5.4658,5.549,5.6091,0.0,0.0,0.0,0.0,0.0,0.0,0.0,0.0,0.0,0.0,0.0,0.0,6.248,6.2194,6.2183,6.2516,6.2779,6.3341,6.4231,6.4231,6.4984,6.6422,6.6458,6.6338,6.6042,6.4653,6.4208,0.0,0.0,0.0,0.0,6.3456,6.3661,6.3686,6.4296,6.4695,6.4934,6.5,6.4852,6.4482,6.362,6.3136,6.2765,6.1914,6.1611,6.1596,6.1638,6.1628,6.1637,6.1681,6.1701,6.1693,6.1697,6.1698,6.1698,6.1698,6.1499,6.128,6.1282,6.1061,6.0627,5.9777,5.9605,5.9158,5.7734,5.75,5.7282,5.6693,5.6598,5.6599,5.6596,5.6599,5.6601,5.6601,5.6598,5.6595,5.6593,5.6603,5.6598,5.6602,5.6593,5.6606,5.6606,5.6606,5.6606,5.6606,5.6606,5.6606,5.6606,5.6606,5.5845,5.44,5.44,5.3932,5.0557,5.1259,5.1827,5.1499,5.1693,0.0,5.1578,5.1115,5.0784,5.0846,5.0872,5.107,5.1614,5.2685,5.3672,5.4213,5.5258,5.5995,0.0,0.0,0.0,0.0,0.0,0.0,0.0,0.0,0.0,0.0,0.0,0.0,6.1918,6.1764,6.1754,6.1963,6.1963,6.2398,6.3288,6.3307,6.4011,6.5411,6.576,6.594,6.5961,6.4932,6.4566,0.0,0.0,6.2543,0.0,6.2852,6.2966,6.2861,6.3403,6.3817,6.4115,6.414,6.415,6.4038,6.3183,6.2898,6.2762,6.1873,6.1596,6.1603,6.1592,6.1627,6.1651,6.1688,6.169,6.1707,6.1691,6.1695,6.1697,6.1695,6.1692,6.1708,6.1705,6.1699,6.144,6.057,6.0401,5.9974,5.861,5.8398,5.8085,5.7225,5.7088,5.6971,5.6638,5.66,5.6601,5.6601,5.66,5.6597,5.6596,5.6607,5.6602,5.6602,5.6593,5.6606,5.6606,5.6899,5.7055,5.7055,5.7387,5.7387,5.7055,5.6743,5.604,5.4986,5.4986,5.4693,0.0,5.1152,5.1625,5.0805,5.122,5.1625,5.0856,5.0702,0.0,5.0784,5.0846,5.0888,5.0909,5.2279,5.342,5.3478,5.4851,5.5926,0.0,0.0,0.0,0.0,0.0,0.0,0.0,0.0,0.0,0.0,0.0,0.0,6.1079,6.1863,6.1969,6.1215,6.1137,6.1543,6.2488,6.2488,6.2941,6.3817,6.4632,6.5037,6.5106,6.5048,6.4559,0.0,0.0,6.2133,6.1389,6.1389,6.1914,6.2704,6.271,6.3196,6.3922,6.3918,6.3929,6.3812,6.3078,6.2796,6.2659,6.1864,6.1599,6.1595,6.1597,6.1635,6.1696,6.1696,6.1698,6.1696,6.1697,6.1708,6.1695,6.169,6.1708,6.1707,6.1699,6.1707,6.1469,6.0659,6.0485,6.0238,5.941,5.9294,5.8984,5.8124,5.7949,5.7617,5.6795,5.664,5.6601,5.6601,5.6601,5.6601,5.6599,5.6591,5.6602,5.6602,5.6593,5.6606,5.6606,5.7367,5.7797,5.7797,5.8597,5.8577,5.7719,5.6957,5.6567,5.6508,5.6567,5.6567,4.9364,0.0,5.0933,5.0731,5.0827,5.0933,0.0,5.0702,5.0702,5.073,5.0775,5.0846,5.0888,5.178,5.2724,5.3382,5.4353,5.5226,0.0,0.0,0.0,0.0,0.0,0.0,0.0,0.0,0.0,0.0,0.0,6.1351,6.1949,6.1611,6.1621,6.2085,6.1447,6.1524,6.2413,6.2433,6.2887,6.3804,6.4017,6.4102,6.4106,6.3447,6.302,0.0,6.1989,6.1512,6.1334,6.1386,6.153,6.1738,6.179,6.1931,6.2112,6.2102,6.2118,6.2079,6.1948,6.187,6.1797,6.1588,6.1564,6.1597,6.1607,6.161,6.1615,6.1615,6.1664,6.1693,6.1701,6.1696,6.1704,6.1701,6.1701,6.1697,6.1707,6.1701,6.1642,6.143,6.1399,6.1115,6.0264,6.0113,5.9842,5.9023,5.832,5.7832,5.7617,5.7012,5.6601,5.6601,5.6601,5.6599,5.6595,5.6592,5.6607,5.6602,5.6593,5.6606,5.6606,5.7367,5.7797,5.7797,5.7992,5.7699,5.6879,5.6684,5.6255,5.5611,5.6294,5.6235,4.8566,4.9673,5.0712,5.0712,5.0712,5.0712,5.0712,5.0712,5.0712,5.0739,0.0,0.0,5.1407,5.1884,5.2608,5.3859,5.4433,0.0,0.0,0.0,0.0,0.0,0.0,0.0,0.0,0.0,0.0,0.0,0.0,6.1243,6.1676,6.1629,6.165,6.1755,6.1669,6.1669,6.1795,6.1795,6.2056,6.2568,6.2974,6.3176,6.321,6.3124,6.2872,0.0,6.2045,6.1619,6.1253,6.1341,6.1352,6.1359,6.1434,6.1454,6.1441,6.1458,6.1482,6.1512,6.1548,6.1523,6.1493,6.1509,6.1519,6.1554,6.1583,6.1597,6.161,6.1599,6.1627,6.1654,6.1688,6.1701,6.169,6.169,6.1694,6.1696,6.1703,6.1698,6.1698,6.1698,6.1705,6.1557,6.1078,6.1007,6.0719,5.9882,5.9355,5.8906,5.8535,5.8086,5.7793,5.7793,5.7441,5.7205,5.7199,5.6827,5.6607,5.6595,5.6608,5.6606,5.6606,5.7367,5.7992,5.8382,5.8402,5.7992,5.7153,5.6782,5.6352,5.5903,5.6372,5.6352,4.7978,4.9393,5.0837,5.0721,5.0712,5.0712,5.0712,5.0712,5.0721,0.0,0.0,0.0,0.0,5.2298,0.0,0.0,0.0,0.0,0.0,0.0,0.0,0.0,0.0,0.0,0.0,0.0,0.0,0.0,0.0,6.1018,6.1008,6.1645,6.1713,6.1027,6.1664,6.1725,6.1089,6.1089,6.1089,6.1118,6.1853,6.222,6.2305,6.306,6.2982,6.2285,0.0,0.0,6.121,6.1275,6.1295,6.1302,6.1359,6.1393,6.14,6.1402,6.1434,6.1478,6.1478,6.1497,6.1503,6.1493,6.1484,6.1514,6.1578,6.1583,6.1592,6.1591,6.1596,6.1615,6.1673,6.1707,6.1696,6.1698,6.1707,6.1692,6.1701,6.1698,6.1698,6.1698,6.1698,6.1703,6.1696,6.1704,6.1458,6.0701,6.0488,6.0156,5.9472,5.9277,5.9199,5.9199,5.8535,5.8046,5.7903,5.7335,5.6938,5.6807,5.6784,5.6899,5.7172,5.7836,5.8538,5.928,5.93,5.887,5.7992,5.7172,5.6782,5.6782,5.6665,5.6665,4.7978,4.9785,5.1469,5.0846,5.0712,5.0712,5.0712,5.0712,5.0702,0.0,0.0,0.0,0.0,5.2757,0.0,0.0,0.0,0.0,0.0,0.0,0.0,0.0,0.0,0.0,0.0,0.0,0.0,0.0,0.0,6.1051,6.0992,6.1127,6.1127,6.0992,6.1115,6.1125,6.1012,6.1012,6.1041,6.1099,6.1234,6.1292,6.1321,6.1456,6.1437,6.1301,0.0,6.1271,6.121,6.127,6.1291,6.1302,6.1359,6.1393,6.14,6.1402,6.1421,6.1421,6.1421,6.144,6.1497,6.144,6.1451,6.1495,6.1519,6.1554,6.1607,6.1592,6.1591,6.1615,6.167,6.1699,6.1705,6.1696,6.1701,6.1701,6.1701,6.1698,6.1698,6.1698,6.1698,6.1703,6.1696,6.1704,6.1653,6.1521,6.0877,6.037,6.0233,5.9627,5.9197,5.9197,5.9082,5.8709,5.7966,5.8408,5.8422,5.7743,5.7651,5.8285,5.9768,5.9944,6.0061,6.0198,6.0198,5.9768,5.8909,5.8031,5.7621,5.7601,5.6918,5.6957,4.7968,4.9524,5.1149,5.1356,5.1376,5.1231,5.0798,5.0712,5.0837,0.0,0.0,0.0,0.0,0.0,0.0,0.0,0.0,0.0,0.0,0.0,0.0,0.0,0.0,0.0,0.0,0.0,0.0,0.0,0.0,0.0,6.0981,6.099,6.0969,6.0886,6.0924,6.0946,6.0948,6.098,6.1041,6.1099,6.1099,6.1099,6.1099,6.1099,6.1099,6.1099,0.0,6.1127,6.1155,6.1253,6.1294,6.1318,6.1371,6.1393,6.14,6.1402,6.1402,6.1408,6.1409,6.1415,6.1447,6.1415,6.1446,6.1507,6.1509,6.1549,6.1592,6.1602,6.1606,6.161,6.1643,6.1657,6.1651,6.1685,6.1693,6.1698,6.1698,6.1698,6.1698,6.1698,6.1698,6.1701,6.1707,6.1697,6.1705,6.1708,6.136,6.1108,6.1108,6.0776,6.0542,6.0544,6.0136,5.9687,5.9275,5.9194,5.8975,5.856,5.8515,5.8863,5.9669,6.0146,6.0182,5.972,6.0163,5.9963,5.9102,5.8695,5.8499,5.8499,5.8128,5.8148,4.7958,4.9503,5.1233,5.1818,5.1944,5.1808,5.1414,5.1318,5.152,0.0,0.0,0.0,0.0,0.0,0.0,0.0,0.0,0.0,0.0,0.0,0.0,0.0,0.0,0.0,0.0,0.0,0.0,0.0,0.0,0.0,6.098,6.0997,6.0955,6.0846,6.088,6.0911,6.0933,6.0955,6.1009,6.108,6.1089,6.1089,6.108,6.1089,6.1089,6.108,6.1089,6.1099,6.1117,6.1245,6.1297,6.1306,6.1364,6.1393,6.14,6.1389,6.1401,6.14,6.1395,6.1401,6.14,6.1395,6.1447,6.1509,6.1493,6.1544,6.1592,6.161,6.1602,6.1597,6.1603,6.1604,6.1621,6.1676,6.171,6.1698,6.1698,6.1698,6.1698,6.1698,6.1698,6.1698,6.1698,6.169,6.1697,6.1697,6.1702,6.1707,6.1707,6.1707,6.1709,6.1694,6.1091,6.0703,6.0701,5.9959,5.9547,5.9694,5.9711,5.9712,5.9717,6.0349,6.0382,5.9727,6.036,6.0373,5.9714,5.9495,5.9397,5.9399,5.9202,5.9202,4.7958,5.0366,5.267,5.2057,5.1904,5.2126,5.3012,5.3167,5.3157,5.3268,0.0,0.0,0.0,0.0,0.0,0.0,0.0,0.0,0.0,0.0,0.0,0.0,0.0,0.0,0.0,0.0,0.0,0.0,0.0,0.0,6.1002,6.0999,6.1006,6.0976,6.0933,6.0933,6.0987,6.0944,6.0938,6.1012,6.108,6.107,6.1012,6.108,6.107,6.1012,6.108,6.1137,6.1201,6.1281,6.1297,6.1306,6.1364,6.1393,6.1393,6.14,6.14,6.1393,6.14,6.14,6.1393,6.14,6.1447,6.1503,6.1503,6.1548,6.1607,6.1592,6.1607,6.1602,6.1604,6.1595,6.1621,6.1676,6.171,6.1698,6.1698,6.1698,6.1698,6.1698,6.1698,6.1698,6.1698,6.169,6.1697,6.1697,6.1699,6.1699,6.1699,6.1699,6.1699,6.1699,6.1633,6.1601,6.1619,6.08,6.0664,6.1462,6.1516,6.1513,6.1514,6.1566,6.158,6.1502,6.1568,6.1588,6.1502,6.0692,6.0302,6.029,5.948,5.9538,4.8581,5.0453,5.2346,5.2684,5.3157,5.3494,5.3369,5.335,5.3532,5.4088,5.4473,0.0,0.0,0.0,0.0,0.0,0.0,0.0,0.0,0.0,0.0,0.0,0.0,0.0,0.0,0.0,0.0,0.0,0.0,0.0,6.0971,6.1008,6.0976,6.0944,6.0903,6.088,6.0888,6.088,6.0914,6.0938,6.1009,6.1031,6.1002,6.1022,6.1061,6.1051,6.1089,6.1108,6.1146,6.1219,6.1236,6.1245,6.1302,6.1341,6.1344,6.1344,6.1359,6.1393,6.1393,6.1393,6.1393,6.1393,6.1415,6.146,6.1497,6.1512,6.1549,6.1583,6.1607,6.1592,6.1591,6.1608,6.16,6.1621,6.1676,6.171,6.1698,6.1698,6.1698,6.1698,6.1698,6.1698,6.1698,6.1703,6.1707,6.1707,6.1707,6.1707,6.1707,6.1707,6.1709,6.1697,6.1692,6.1698,6.1699,6.1406,6.1347,6.1679,6.1697,6.1696,6.1698,6.1691,6.1708,6.1692,6.1705,6.1702,6.1705,6.137,6.1214,6.1198,6.0863,6.0882,4.8945,5.0664,5.2357,5.3108,5.4121,5.4795,5.4256,5.4178,5.4379,5.4984,5.4914,5.5077,5.623,0.0,0.0,0.0,0.0,0.0,0.0,0.0,0.0,0.0,0.0,0.0,0.0,0.0,0.0,0.0,0.0,0.0,0.0,6.056,6.0539,6.0487,6.0487,6.0599,6.0835,6.0858,6.0858,6.0858,6.0903,6.0957,6.0971,6.0991,6.1031,6.107,6.107,6.108,6.1099,6.1164,6.121,6.1227,6.1253,6.1275,6.1302,6.1302,6.1344,6.1393,6.1393,6.1393,6.1393,6.1393,6.1401,6.1402,6.1472,6.1507,6.1514,6.1554,6.1578,6.1578,6.1578,6.1582,6.1608,6.1591,6.1648,6.1702,6.1696,6.1698,6.1698,6.1698,6.1698,6.1698,6.1698,6.1932,6.211,6.211,6.2345,6.2423,6.2149,6.211,6.2017,6.1737,6.1708,6.1695,6.1697,6.1698,6.1699,6.1699,6.1699,6.1698,6.1699,6.1696,6.1694,6.1697,6.1693,6.1691,6.1692,6.1691,6.1691,6.1692,6.1691,6.1691,4.8964,5.1067,5.3037,5.3243,5.4593,5.5895,5.5895,5.5962,5.5989,5.6003,5.536,5.4796,5.4802,0.0,0.0,0.0,0.0,0.0,0.0,0.0,0.0,0.0,0.0,0.0,0.0,0.0,0.0,0.0,0.0,0.0,0.0,5.9601,5.9601,5.9601,5.9601,6.0025,6.0891,6.0835,6.08,6.08,6.08,6.0835,6.0891,6.0965,6.0987,6.0997,6.1001,6.1032,6.1099,6.1164,6.1236,6.1297,6.1227,6.1242,6.1302,6.1302,6.1344,6.1393,6.1393,6.1393,6.1393,6.1393,6.1401,6.1402,6.1472,6.1507,6.1495,6.1495,6.1495,6.1495,6.1495,6.1549,6.1608,6.1591,6.1648,6.1702,6.1696,6.1698,6.1698,6.1698,6.1698,6.1698,6.1718,6.2423,6.2989,6.3008,6.3731,6.3965,6.3106,6.2989,6.2662,6.1795,6.1697,6.1705,6.1696,6.1697,6.1698,6.1699,6.1699,6.1699,6.1699,6.1698,6.1697,6.1697,6.1693,6.1693,6.1697,6.1693,6.1693,6.1697,6.1693,6.1693,4.9865,5.1105,0.0,5.3038,0.0,0.0,0.0,5.5989,0.0,0.0,5.5428,5.48,5.4855,0.0,0.0,0.0,0.0,0.0,0.0,0.0,0.0,0.0,0.0,0.0,0.0,0.0,0.0,0.0,0.0,0.0,0.0,5.9557,5.9557,5.959,5.9557,5.9938,6.0816,6.0812,6.08,6.08,6.08,6.0835,6.0911,6.0922,6.0957,6.1001,6.0992,6.1032,6.1099,6.1108,6.1164,6.1227,6.1155,6.1197,6.1295,6.131,6.1341,6.1393,6.1393,6.1393,6.1393,6.1393,6.1407,6.1408,6.1485,6.1509,6.1501,6.1504,6.1524,6.1554,6.1519,6.1554,6.1606,6.1608,6.163,6.1648,6.1682,6.1693,6.1698,6.1698,6.1698,6.1893,6.2501,6.2325,6.2501,6.3731,6.3086,6.2384,6.213,6.2091,6.1993,6.1725,6.1694,6.1701,6.1705,6.1709,6.1693,6.1694,6.1695,6.1697,6.1699,6.1699,6.1699,6.1699,6.1698,6.1698,6.1699,6.1698,6.1698,6.1699,6.1698,6.1698,5.1138,5.2152,0.0,5.3578,5.439,5.5229,5.5835,0.0,0.0,0.0,0.0,5.4846,5.4858,0.0,0.0,0.0,0.0,0.0,0.0,0.0,0.0,0.0,0.0,0.0,0.0,0.0,0.0,0.0,0.0,0.0,0.0,5.8567,5.8699,5.9056,5.9042,5.9608,6.0781,6.08,6.08,6.08,6.08,6.0823,6.0858,6.0858,6.0905,6.0991,6.1031,6.1051,6.1099,6.1099,6.1117,6.1155,6.1127,6.1171,6.1291,6.1286,6.1334,6.1393,6.1393,6.1393,6.1393,6.1393,6.1393,6.1407,6.1479,6.1472,6.1472,6.1482,6.1518,6.1518,6.1493,6.1523,6.1568,6.1591,6.1592,6.1611,6.1693,6.1705,6.1693,6.1698,6.1698,6.1971,6.2852,6.2559,6.2696,6.4084,6.3106,6.2228,6.2228,6.1913,6.1698,6.1698,6.1707,6.1694,6.1697,6.1702,6.1707,6.1709,6.1709,6.1693,6.1697,6.1698,6.1698,6.1699,6.1699,6.1699,6.1699,6.1699,6.1699,6.1699,6.1699,6.1699,5.2452,5.3566,5.4334,5.4466,5.521,0.0,5.6057,5.6098,5.6106,5.6106,0.0,5.4975,0.0,0.0,0.0,0.0,0.0,0.0,0.0,0.0,0.0,0.0,0.0,0.0,0.0,0.0,0.0,0.0,0.0,0.0,0.0,5.7174,5.7546,5.8292,5.83,5.9108,6.0793,6.0716,6.0716,6.0812,6.08,6.08,6.08,6.08,6.0869,6.0997,6.107,6.1099,6.1099,6.1099,6.1099,6.1099,6.1099,6.1182,6.1306,6.1306,6.1334,6.1393,6.1393,6.1393,6.1393,6.1393,6.1393,6.1407,6.1479,6.146,6.1402,6.1472,6.144,6.1428,6.1478,6.1503,6.1526,6.1582,6.1599,6.1612,6.1687,6.1696,6.1702,6.1696,6.1698,6.1971,6.2852,6.293,6.3145,6.3945,6.3457,6.2969,6.2891,6.2189,6.1698,6.1698,6.1698,6.1705,6.1696,6.1696,6.1699,6.1707,6.1707,6.1707,6.1707,6.1708,6.1692,6.1697,6.1697,6.1698,6.1699,6.1699,6.1699,6.1699,6.1699,6.1699,5.1916,5.2702,0.0,0.0,5.5219,5.5924,5.6003,5.6098,5.6172,5.619,5.6029,0.0,0.0,0.0,0.0,0.0,0.0,0.0,0.0,0.0,0.0,0.0,0.0,0.0,0.0,0.0,0.0,0.0,0.0,0.0,5.7196,5.7734,5.8126,5.8289,5.8303,5.913,6.085,6.015,6.015,6.0869,6.0823,6.08,6.08,6.08,6.0869,6.0997,6.107,6.1099,6.1099,6.1099,6.1137,6.1164,6.1108,6.118,6.1306,6.1294,6.1334,6.1393,6.1393,6.1393,6.1393,6.1393,6.1393,6.1407,6.1415,6.1402,6.1396,6.1421,6.146,6.1472,6.1497,6.1501,6.1514,6.1588,6.161,6.1603,6.1615,6.166,6.1699,6.1702,6.1693,6.1971,6.2852,6.2423,6.2032,6.2228,6.2676,6.2755,6.2071,6.1815,6.1698,6.1698,6.1698,6.1701,6.1703,6.1703,6.1705,6.1707,6.1707,6.1707,6.1707,6.1702,6.1692,6.1697,6.1697,6.1698,6.1699,6.1699,6.1699,6.1699,6.1699,6.1699,5.2728,5.3355,0.0,5.4928,0.0,5.5969,5.6029,5.6145,5.6121,5.5675,0.0,0.0,0.0,0.0,0.0,0.0,0.0,0.0,0.0,0.0,0.0,0.0,0.0,0.0,0.0,0.0,0.0,0.0,0.0,5.6626,5.6638,5.6985,5.736,5.7702,5.7739,5.8355,5.9639,5.9587,5.981,6.0327,6.071,6.0668,6.0283,6.0718,6.0935,6.1,6.1061,6.1099,6.1099,6.1099,6.1146,6.1201,6.1155,6.1206,6.1295,6.1299,6.1349,6.1393,6.1393,6.1393,6.1393,6.1393,6.1393,6.14,6.1402,6.1402,6.1395,6.1389,6.1434,6.146,6.1491,6.1495,6.1518,6.1578,6.1597,6.161,6.1599,6.1627,6.1651,6.1696,6.1691,6.1971,6.2852,6.2618,6.2189,6.1757,6.2091,6.2208,6.1757,6.1698,6.1698,6.1698,6.1698,6.1698,6.1698,6.1698,6.1698,6.1698,6.1698,6.1698,6.1698,6.1692,6.1702,6.1691,6.1691,6.1693,6.1697,6.1697,6.1697,6.1697,6.1698,6.1698,5.3572,5.4345,5.4836,5.5692,5.5951,0.0,5.609,5.6093,5.5845,0.0,0.0,0.0,0.0,0.0,0.0,0.0,0.0,0.0,0.0,0.0,0.0,0.0,0.0,0.0,0.0,0.0,0.0,0.0,0.0,5.5996,5.5999,5.6116,5.6474,5.7107,5.7231,5.7636,5.8331,5.9188,5.9644,5.9734,6.0438,6.0312,5.9502,6.0226,6.0643,6.0799,6.1022,6.1099,6.1099,6.1099,6.1137,6.1173,6.1201,6.1242,6.1295,6.1295,6.1344,6.1393,6.1393,6.1393,6.1393,6.1393,6.1393,6.14,6.1395,6.1401,6.14,6.1395,6.1401,6.1414,6.1485,6.1503,6.1515,6.1573,6.1607,6.1592,6.1591,6.1596,6.1615,6.1673,6.1688,6.1932,6.2657,6.2774,6.254,6.1815,6.1698,6.1698,6.1698,6.1698,6.1698,6.1698,6.1698,6.1698,6.1698,6.1698,6.1698,6.1698,6.1698,6.1698,6.1698,6.1698,6.1705,6.1696,6.1697,6.1702,6.1709,6.1709,6.1709,6.1709,6.1695,6.1696,5.266,0.0,5.559,0.0,5.5904,5.5958,0.0,0.0,5.5061,0.0,0.0,0.0,0.0,0.0,0.0,0.0,0.0,0.0,0.0,0.0,0.0,0.0,0.0,0.0,0.0,0.0,0.0,0.0,5.6007,5.5999,5.5999,5.6609,5.7012,5.7177,5.7821,5.8247,5.8462,5.9271,5.9725,5.9795,5.986,5.9424,5.8576,5.8742,5.9254,6.0007,6.077,6.1099,6.1099,6.1099,6.1099,6.1108,6.1192,6.1236,6.1294,6.1306,6.1344,6.1393,6.1393,6.1393,6.1393,6.1393,6.1393,6.1393,6.14,6.14,6.1393,6.14,6.14,6.1414,6.1485,6.1503,6.1515,6.1573,6.1607,6.1607,6.1592,6.1591,6.1592,6.1615,6.1663,6.1737,6.1854,6.1874,6.1835,6.1718,6.1698,6.1698,6.1698,6.1698,6.1698,6.1698,6.1698,6.1698,6.1698,6.1698,6.1698,6.1698,6.1698,6.1698,6.1698,6.1698,6.1701,6.1701,6.1694,6.1702,6.1709,6.1709,6.1709,6.1709,6.169,6.1691,5.2406,5.4017,5.5179,0.0,5.5979,5.6057,5.6164,0.0,0.0,0.0,0.0,0.0,0.0,0.0,0.0,0.0,0.0,0.0,0.0,0.0,0.0,0.0,0.0,0.0,0.0,0.0,0.0,0.0,5.6005,5.5996,5.5996,5.6299,5.6502,5.6522,5.6801,5.6984,5.7033,5.7843,5.8499,5.9031,5.9977,5.9475,5.7757,5.8722,5.9389,5.9814,6.0248,6.0673,6.1099,6.1099,6.1108,6.1164,6.1227,6.1278,6.1299,6.1337,6.1359,6.1393,6.1393,6.1393,6.1393,6.1393,6.1393,6.1393,6.1393,6.1393,6.1393,6.1393,6.1393,6.1414,6.1485,6.1503,6.1515,6.1573,6.1607,6.1607,6.1607,6.1606,6.1612,6.1644,6.1679,6.1691,6.1698,6.1698,6.1698,6.1698,6.1698,6.1698,6.1698,6.213,6.2423,6.2423,6.2872,6.3164,6.3164,6.3164,6.295,6.2462,6.2423,6.2208,6.1718,6.1698,6.1698,6.1698,6.1705,6.169,6.1696,6.1696,6.1696,6.1696,6.1701,6.1705,0.0,0.0,5.4659,5.5451,5.5851,5.6082,0.0,0.0,0.0,0.0,0.0,0.0,0.0,0.0,0.0,0.0,0.0,0.0,0.0,0.0,0.0,0.0,0.0,0.0,0.0,0.0,0.0,0.0,5.5685,5.5666,5.5666,5.5852,5.5854,5.569,5.602,5.6136,5.5933,5.6724,5.7456,5.8114,5.965,5.9244,5.7245,5.8722,5.9427,5.9486,5.9756,6.0219,6.0809,6.1021,6.1146,6.121,6.1261,6.1302,6.1302,6.1378,6.1393,6.1393,6.1393,6.1393,6.1393,6.1393,6.1393,6.1393,6.1393,6.1393,6.1393,6.1393,6.1393,6.1414,6.1485,6.1348,6.1242,6.1539,6.1432,6.1334,6.1549,6.1606,6.1612,6.166,6.1693,6.1702,6.1693,6.1696,6.1776,6.1991,6.2032,6.211,6.2325,6.293,6.3321,6.3321,6.3906,6.4299,6.4299,6.4299,6.4026,6.336,6.3321,6.3047,6.2384,6.2364,6.2267,6.2032,6.2032,6.1913,6.1698,6.1698,6.1698,6.1698,6.1709,6.1697,0.0,5.3072,0.0,5.4622,5.5296,0.0,0.0,0.0,0.0,0.0,0.0,0.0,0.0,0.0,0.0,0.0,0.0,0.0,0.0,0.0,0.0,0.0,0.0,0.0,0.0,0.0,0.0,0.0,5.4809,5.4763,5.4763,5.5432,5.5499,5.4792,5.63,5.6763,5.6009,5.6802,5.7226,5.7265,5.8182,5.8124,5.7226,5.8153,5.8559,5.8616,5.9447,5.9882,6.0016,6.0789,6.1146,6.121,6.1261,6.1302,6.1302,6.1378,6.1393,6.1393,6.1393,6.1393,6.1393,6.1393,6.1393,6.1393,6.1393,6.1393,6.1393,6.1393,6.1393,6.1414,6.1485,6.09,6.0483,6.1383,6.0964,6.0594,6.1412,6.1606,6.1603,6.1603,6.1657,6.1699,6.1699,6.1691,6.1971,6.2813,6.293,6.3223,6.4065,6.4201,6.424,6.424,6.4279,6.4299,6.4299,6.4299,6.4279,6.424,6.424,6.4201,6.4162,6.4162,6.377,6.295,6.293,6.254,6.1698,6.1698,6.1698,6.1698,6.1701,6.1701,0.0,0.0,0.0,5.4236,5.4871,5.5346,0.0,0.0,0.0,0.0,0.0,0.0,0.0,0.0,0.0,0.0,0.0,0.0,0.0,0.0,0.0,0.0,0.0,0.0,0.0,0.0,0.0,0.0,0.0,5.4169,5.4729,5.5003,5.5274,5.5541,5.6115,5.6242,5.5885,5.6714,5.7138,5.7157,5.8636,5.8877,5.8047,5.8317,5.8481,5.8576,5.881,5.9283,5.9957,6.077,6.1146,6.121,6.1261,6.1302,6.1302,6.1378,6.1393,6.1393,6.1393,6.1393,6.1393,6.1393,6.1393,6.1393,6.1393,6.1393,6.1393,6.1393,6.1394,6.1428,6.1472,6.1267,6.1134,6.15,6.1354,6.1218,6.1529,6.1597,6.1606,6.1599,6.1615,6.1829,6.2437,6.2524,6.2822,6.3691,6.3828,6.3945,6.426,6.4785,6.5136,6.5136,6.5604,6.59,6.59,6.59,6.5682,6.5175,6.5136,6.4882,6.4319,6.4299,6.4143,6.3848,6.3282,6.2579,6.1698,6.1698,6.1698,6.1698,6.1698,6.1703,5.0567,0.0,0.0,0.0,0.0,5.4859,5.5462,0.0,0.0,0.0,0.0,0.0,0.0,0.0,0.0,0.0,0.0,0.0,0.0,0.0,0.0,0.0,0.0,0.0,0.0,0.0,0.0,0.0,0.0,0.0,5.4329,5.4622,5.5,5.5541,5.5564,5.5644,5.5836,5.6394,5.6808,5.7076,5.8576,5.8983,5.8442,5.8712,5.8578,5.816,5.8645,5.9264,5.9957,6.077,6.1146,6.121,6.1261,6.1302,6.1302,6.1378,6.1386,6.1378,6.1393,6.1386,6.1378,6.1393,6.1393,6.1393,6.1393,6.1393,6.1393,6.1393,6.1408,6.1421,6.1472,6.1512,6.1471,6.1213,6.1393,6.1685,6.1977,6.1802,6.169,6.1976,6.2043,6.2333,6.324,6.339,6.3695,6.4562,6.4724,6.4824,6.5099,6.5643,6.5995,6.5995,6.6483,6.6795,6.6795,6.6795,6.6561,6.6034,6.5995,6.5741,6.5158,6.5133,6.4994,6.4701,6.4127,6.3402,6.2544,6.1964,6.1847,6.2095,6.1802,6.1674,0.0,0.0,0.0,0.0,0.0,0.0,5.4701,0.0,5.5932,0.0,0.0,0.0,0.0,0.0,0.0,0.0,0.0,0.0,0.0,0.0,0.0,0.0,0.0,0.0,0.0,0.0,0.0,0.0,5.2956,5.344,5.3498,5.4248,5.4666,5.4666,5.4685,5.5064,5.5856,5.5817,5.6209,5.7022,5.7895,5.8301,5.8351,5.926,5.879,5.7361,5.9041,5.9843,5.9996,6.0789,6.1146,6.121,6.1281,6.1302,6.1302,6.1378,6.1352,6.1302,6.1359,6.1352,6.131,6.1386,6.1393,6.1393,6.1393,6.1393,6.1393,6.14,6.1408,6.1428,6.1497,6.1548,6.1393,6.0536,6.1003,6.1861,6.2718,6.225,6.1919,6.2776,6.2931,6.3217,6.4079,6.4232,6.4528,6.5403,6.5594,6.5917,6.6697,6.6795,6.6795,6.6795,6.6795,6.6795,6.6795,6.6795,6.6795,6.6795,6.6795,6.6795,6.6795,6.6801,6.6401,6.554,6.5503,6.5102,6.4263,6.2587,6.2177,6.2921,6.2044,6.1683,4.871,0.0,0.0,0.0,0.0,0.0,5.3465,5.3406,5.3537,0.0,0.0,0.0,0.0,0.0,0.0,0.0,0.0,0.0,0.0,0.0,0.0,0.0,0.0,0.0,0.0,0.0,0.0,0.0,5.1834,5.2163,5.342,5.3721,5.3829,5.3829,5.4394,5.4774,5.495,5.5528,5.625,5.7138,5.7987,5.8423,5.8529,5.8732,5.8945,5.9146,5.8954,5.9582,6.0789,6.1002,6.1146,6.121,6.1219,6.1259,6.1302,6.1318,6.1326,6.1302,6.131,6.1329,6.131,6.1386,6.1393,6.1393,6.1393,6.1393,6.14,6.1395,6.1428,6.1484,6.1553,6.1598,6.1549,6.1295,6.1919,6.2601,6.2854,6.3166,6.3478,6.3711,6.3775,6.4057,6.4972,6.5145,6.5434,6.6301,6.6463,6.655,6.6776,6.6795,6.6795,6.6795,6.6807,6.6801,6.6801,6.6808,6.6801,6.6801,6.6801,6.6801,6.6801,6.6794,6.6693,6.6459,6.5827,6.566,6.5998,6.4322,6.3627,6.3819,6.2994,6.261,0.0,0.0,0.0,0.0,0.0,0.0,5.2417,5.2529,5.2858,0.0,0.0,0.0,0.0,0.0,0.0,0.0,0.0,0.0,0.0,0.0,0.0,0.0,0.0,0.0,0.0,5.13,5.1711,5.2152,5.2066,5.2279,5.2917,5.2956,5.2956,5.2956,5.3415,5.3971,5.464,5.5114,5.5972,5.7216,5.7641,5.7902,5.7998,5.7969,5.8259,5.875,5.8606,5.932,6.0634,6.0963,6.1146,6.121,6.1227,6.127,6.1299,6.131,6.1275,6.1255,6.1287,6.1287,6.1306,6.1378,6.1393,6.1393,6.1393,6.1393,6.1407,6.1409,6.1452,6.1512,6.1578,6.1607,6.1685,6.2055,6.2523,6.3088,6.3789,6.4305,6.4646,6.4646,6.4637,6.4939,6.584,6.5996,6.6174,6.6686,6.6775,6.6805,6.6795,6.6798,6.6661,6.631,6.6574,6.6645,6.6294,6.6596,6.6803,6.6803,6.6803,6.6803,6.6803,6.6775,6.6771,6.6771,6.6252,6.6239,6.6693,6.5024,6.4189,6.4142,6.3714,6.3491,0.0,0.0,0.0,0.0,0.0,0.0,5.1476,5.205,5.2831,5.3881,0.0,0.0,0.0,0.0,0.0,0.0,0.0,0.0,0.0,0.0,0.0,0.0,0.0,0.0,5.1269,5.1916,5.2384,5.248,5.3207,5.3265,5.2384,5.2248,5.221,5.221,5.221,5.2959,5.455,5.4647,5.5489,5.7052,5.7091,5.7101,5.7062,5.7265,5.7351,5.7408,5.8343,5.9223,6.0093,6.0809,6.1137,6.1182,6.1245,6.1289,6.1297,6.1291,6.1259,6.1227,6.1291,6.1291,6.1302,6.1371,6.1393,6.1393,6.1393,6.14,6.1394,6.1415,6.1451,6.1519,6.1583,6.1666,6.1938,6.2718,6.3049,6.3595,6.5075,6.5478,6.5534,6.5534,6.5531,6.5781,6.6552,6.6692,6.6702,6.6707,6.6748,6.6779,6.6803,6.6725,6.6393,6.571,6.6257,6.637,6.5687,6.635,6.6795,6.6795,6.6795,6.6795,6.6795,6.6735,6.6648,6.657,6.6469,6.6517,6.6712,6.5197,6.4456,6.4393,6.4363,6.4333,0.0,0.0,0.0,0.0,0.0,0.0,5.0361,4.9992,5.0097,0.0,0.0,0.0,0.0,0.0,0.0,0.0,0.0,0.0,0.0,0.0,0.0,0.0,0.0,0.0,5.3011,5.3158,5.3536,5.4233,5.4445,5.4175,5.3285,5.2577,5.221,5.221,5.221,5.2669,5.3642,5.4357,5.5199,5.6165,5.685,5.685,5.629,5.7641,5.8287,5.8382,5.9261,6.0112,6.0886,6.1041,6.1099,6.1108,6.1126,6.1173,6.1219,6.1154,6.1199,6.1289,6.1306,6.131,6.1314,6.1378,6.1393,6.1393,6.1393,6.1401,6.1421,6.1482,6.1539,6.1583,6.1607,6.2114,6.2698,6.2854,6.3926,6.4997,6.5329,6.5951,6.6429,6.6386,6.6367,6.6425,6.6594,6.6663,6.6696,6.6698,6.6702,6.6744,6.6779,6.6198,6.5964,6.6491,6.6065,6.5959,6.6423,6.6619,6.6727,6.6727,6.6727,6.6727,6.6727,6.6702,6.6366,6.5665,6.4958,6.5309,6.6712,6.6366,6.621,6.6186,6.5547,6.5249,0.0,0.0,0.0,4.9402,0.0,0.0,0.0,4.9603,4.9707,5.1142,5.1172,0.0,0.0,0.0,0.0,0.0,0.0,0.0,0.0,0.0,0.0,0.0,0.0,0.0,5.3411,5.3814,5.4285,5.4755,5.4793,5.4426,5.3556,5.2666,5.221,5.221,5.1776,5.2155,5.3445,5.3889,5.4723,5.5951,5.6385,5.6626,5.6664,5.7079,5.7986,5.9242,5.9242,5.9957,6.1099,6.1099,6.1099,6.1099,6.1146,6.1164,6.1201,6.1164,6.1182,6.1245,6.1289,6.131,6.131,6.1386,6.1393,6.1393,6.1393,6.1415,6.1466,6.1501,6.1558,6.1607,6.1607,6.225,6.2991,6.34,6.4471,6.5518,6.5956,6.6377,6.6639,6.6601,6.6561,6.6554,6.6594,6.6627,6.6657,6.6686,6.6331,6.6059,6.6102,6.5717,6.5444,6.5444,6.5455,6.5445,6.5406,6.5392,6.5601,6.603,6.605,6.6244,6.6673,6.6712,6.6283,6.5426,6.4549,6.453,6.5407,6.5407,6.5645,6.6089,6.5693,6.5502,0.0,0.0,0.0,0.0,0.0,4.9368,0.0,0.0,0.0,5.0789,5.1049,0.0,0.0,0.0,0.0,0.0,0.0,0.0,0.0,0.0,0.0,0.0,0.0,0.0,5.3773,5.4486,5.4956,5.5028,5.5028,5.4727,5.402,5.3169,5.2713,5.2713,5.1846,5.2147,5.3721,5.3732,5.4469,5.5968,5.5977,5.6344,5.7021,5.6652,5.7647,5.9629,5.9242,5.9841,6.1099,6.1099,6.1099,6.1099,6.1155,6.1173,6.1173,6.1201,6.121,6.1227,6.1278,6.1318,6.1337,6.1386,6.1393,6.14,6.1407,6.1447,6.1478,6.1509,6.1548,6.1622,6.1802,6.2484,6.3341,6.416,6.5012,6.5839,6.6538,6.6639,6.6607,6.66,6.6565,6.6531,6.6572,6.6588,6.6627,6.6677,6.6079,6.5584,6.5421,6.5251,6.488,6.4179,6.4588,6.4705,6.416,6.4101,6.4393,6.5114,6.5153,6.5543,6.642,6.6459,6.605,6.5173,6.4315,6.3945,6.4101,6.3945,6.4349,6.5249,6.5401,6.5498,0.0,0.0,0.0,0.0,4.8854,0.0,0.0,0.0,4.9514,4.9751,0.0,0.0,0.0,0.0,0.0,0.0,0.0,0.0,0.0,0.0,0.0,0.0,0.0,0.0,0.0,5.5692,5.5789,5.5864,5.5864,5.5833,5.5713,5.4948,5.4503,5.4503,5.3591,5.3593,5.4559,5.4495,5.4931,5.5817,5.5876,5.5953,5.6107,5.7554,5.8412,5.8816,6.0209,6.0925,6.1099,6.1099,6.1099,6.1099,6.1099,6.1108,6.1127,6.1173,6.1236,6.1297,6.1299,6.1337,6.1393,6.1393,6.1393,6.14,6.1402,6.1415,6.1415,6.1473,6.1509,6.1695,6.2538,6.3341,6.4179,6.5056,6.5912,6.6577,6.6674,6.664,6.66,6.6595,6.6588,6.6572,6.6524,6.6565,6.6607,6.6601,6.6573,6.6271,6.5499,6.4725,6.4218,6.4121,6.3556,6.3439,6.4043,6.4101,6.414,6.4238,6.4257,6.4647,6.5504,6.5543,6.5134,6.4257,6.3458,6.34,6.4101,6.338,6.3492,6.4352,6.507,6.5441,0.0,0.0,0.0,0.0,0.0,0.0,4.8926,0.0,4.9209,0.0,0.0,0.0,0.0,0.0,0.0,0.0,5.0954,0.0,0.0,0.0,0.0,0.0,0.0,0.0,0.0,0.0,0.0,5.4486,5.4483,5.4723,5.5223,5.4959,5.4793,5.4793,5.3926,5.3879,5.474,5.4696,5.5083,5.5923,5.5952,5.6483,5.7466,5.7697,5.8624,6.0054,6.0306,6.0673,6.1099,6.1099,6.1099,6.1099,6.1099,6.1099,6.1099,6.1192,6.1236,6.1306,6.1306,6.1344,6.1393,6.1393,6.1393,6.14,6.1394,6.1395,6.1408,6.147,6.1868,6.2357,6.2791,6.3867,6.4953,6.5308,6.6068,6.6686,6.6651,6.6659,6.6646,6.6607,6.6595,6.6594,6.6561,6.6568,6.6614,6.6645,6.6254,6.5628,6.4759,6.4335,6.3926,6.3458,6.3107,6.3049,6.3361,6.2932,6.2874,6.3361,6.3848,6.4491,6.5368,6.4462,6.4232,6.4842,6.3063,6.2556,6.34,6.2562,6.2331,6.2715,6.4075,6.4718,4.7603,0.0,0.0,0.0,0.0,0.0,0.0,0.0,0.0,0.0,0.0,0.0,0.0,0.0,0.0,0.0,0.0,5.0854,0.0,0.0,0.0,0.0,0.0,0.0,0.0,0.0,5.2973,5.334,5.3145,5.3509,5.4636,5.474,5.4882,5.5122,5.4514,5.4478,5.5098,5.5034,5.5315,5.595,5.5971,5.6636,5.787,5.7724,5.8681,6.0402,6.0286,6.0557,6.1099,6.1099,6.0963,6.077,6.077,6.0779,6.0808,6.1095,6.1245,6.1302,6.1295,6.1344,6.1393,6.1393,6.1393,6.1393,6.1393,6.1394,6.1409,6.146,6.2118,6.2866,6.3151,6.4311,6.546,6.5712,6.6243,6.6691,6.6645,6.6651,6.6657,6.662,6.6639,6.6639,6.6626,6.6613,6.6613,6.6688,6.5968,6.5097,6.4213,6.3906,6.3453,6.2611,6.2538,6.2538,6.2513,6.1953,6.1861,6.2503,6.3517,6.4276,6.4705,6.3999,6.394,6.4705,6.3122,6.2366,6.2542,6.2367,6.2176,6.1997,6.3475,6.4181,0.0,0.0,0.0,4.7678,0.0,0.0,0.0,0.0,4.866,0.0,0.0,0.0,0.0,0.0,0.0,0.0,0.0,0.0,0.0,0.0,0.0,0.0,0.0,0.0,0.0,5.2342,5.2249,5.3225,5.2521,5.2819,5.4598,5.4694,5.5079,5.5926,5.5921,5.5894,5.5866,5.5798,5.5778,5.5797,5.5866,5.5962,5.6134,5.7793,5.8613,5.8758,6.0364,6.1079,6.1099,6.1099,6.0634,5.9938,5.9938,5.9946,6.0048,6.0891,6.1242,6.1302,6.1302,6.1344,6.1393,6.1393,6.1393,6.1393,6.1393,6.1393,6.1407,6.1409,6.2082,6.2994,6.384,6.4724,6.5621,6.6454,6.6671,6.6694,6.6688,6.6645,6.6613,6.6682,6.6688,6.6699,6.6702,6.6643,6.6613,6.6688,6.5968,6.5097,6.4213,6.3419,6.2572,6.1631,6.1593,6.1617,6.1553,6.1573,6.1607,6.1646,6.3185,6.377,6.301,6.4491,6.4588,6.301,6.3653,6.3244,6.1646,6.3244,6.3624,6.2886,6.3702,6.4149,0.0,0.0,4.7205,4.7385,0.0,0.0,0.0,0.0,0.0,0.0,0.0,0.0,0.0,0.0,0.0,0.0,0.0,0.0,0.0,0.0,0.0,0.0,0.0,0.0,0.0,0.0,0.0,5.0615,5.0962,5.1924,5.3687,5.4917,5.5687,5.5979,5.5996,5.5979,5.5971,5.5933,5.5924,5.5924,5.5962,5.6289,5.6875,5.7473,5.8372,5.9493,6.0054,6.0615,6.106,6.0538,6.0151,5.9841,5.9261,5.9411,6.0002,6.0292,6.079,6.1302,6.1352,6.1386,6.14,6.1408,6.1401,6.14,6.1408,6.1394,6.1516,6.2102,6.2899,6.3794,6.4667,6.5573,6.631,6.656,6.6674,6.6691,6.6694,6.668,6.6666,6.6696,6.6696,6.6702,6.6707,6.6677,6.6666,6.6696,6.5956,6.508,6.4213,6.34,6.2557,6.1656,6.2109,6.2226,6.1617,6.1583,6.1607,6.1607,6.2133,6.2815,6.3653,6.3161,6.3414,6.453,6.3726,6.3297,6.3244,6.3283,6.3453,6.3767,6.3994,6.4432,4.6637,4.6795,0.0,4.7143,4.7381,0.0,4.7747,0.0,0.0,0.0,0.0,0.0,0.0,0.0,0.0,0.0,0.0,0.0,0.0,4.7397,0.0,0.0,0.0,0.0,0.0,0.0,4.8982,4.9709,5.0346,5.1452,0.0,5.4697,5.565,5.5979,5.5996,5.6007,5.5999,5.5999,5.5999,5.5999,5.5999,5.6288,5.6854,5.7164,5.8081,5.9455,5.9764,6.019,6.0634,6.0112,5.9532,5.8913,5.8352,5.851,5.9153,5.9738,6.0538,6.1302,6.1386,6.1393,6.14,6.1408,6.1394,6.14,6.1408,6.1394,6.1575,6.2457,6.3333,6.4208,6.5058,6.5997,6.6688,6.6645,6.668,6.6707,6.671,6.6696,6.6712,6.6712,6.6712,6.6712,6.6712,6.6712,6.6595,6.6283,6.5504,6.4627,6.3789,6.2952,6.2323,6.2065,6.2557,6.2796,6.2503,6.2484,6.2367,6.2075,6.2328,6.2854,6.3634,6.2634,6.2966,6.49,6.3882,6.3589,6.4101,6.4199,6.4384,6.4631,6.4905,6.5358]}]]